<?xml version="1.0" encoding="UTF-8" standalone="no" ?>
<gpx xmlns="http://www.topografix.com/GPX/1/1" xmlns:xsi="http://www.w3.org/2001/XMLSchema-instance" xsi:schemaLocation="http://www.topografix.com/GPX/1/1 http://www.topografix.com/GPX/1/1/gpx.xsd" version="1.1" creator="VisuGPX - https://www.visugpx.com">
  <metadata>
    <name>test</name>
  </metadata>
  <trk>
    <name><![CDATA[Grand tour d'Hautacam parc le Lac d'Isaby]]></name>
    <trkseg>
      <trkpt lat="43.02581" lon="-0.07504">
        <ele>416</ele>
        <time>2019-06-14T20:15:03Z</time>
      </trkpt>
      <trkpt lat="43.02592" lon="-0.07482">
        <ele>416</ele>
        <time>2019-06-14T20:15:04Z</time>
      </trkpt>
      <trkpt lat="43.02589" lon="-0.07455">
        <ele>415</ele>
        <time>2019-06-14T20:15:05Z</time>
      </trkpt>
      <trkpt lat="43.02576" lon="-0.07431">
        <ele>415</ele>
        <time>2019-06-14T20:15:06Z</time>
      </trkpt>
      <trkpt lat="43.02562" lon="-0.07415">
        <ele>414</ele>
        <time>2019-06-14T20:15:07Z</time>
      </trkpt>
      <trkpt lat="43.02548" lon="-0.07398">
        <ele>413</ele>
        <time>2019-06-14T20:15:08Z</time>
      </trkpt>
      <trkpt lat="43.02552" lon="-0.07372">
        <ele>412</ele>
        <time>2019-06-14T20:15:09Z</time>
      </trkpt>
      <trkpt lat="43.02565" lon="-0.07349">
        <ele>412</ele>
        <time>2019-06-14T20:15:10Z</time>
      </trkpt>
      <trkpt lat="43.02578" lon="-0.07331">
        <ele>412</ele>
        <time>2019-06-14T20:15:11Z</time>
      </trkpt>
      <trkpt lat="43.02595" lon="-0.07315">
        <ele>411</ele>
        <time>2019-06-14T20:15:12Z</time>
      </trkpt>
      <trkpt lat="43.02615" lon="-0.07308">
        <ele>411</ele>
        <time>2019-06-14T20:15:13Z</time>
      </trkpt>
      <trkpt lat="43.02634" lon="-0.073">
        <ele>410</ele>
        <time>2019-06-14T20:15:14Z</time>
      </trkpt>
      <trkpt lat="43.02657" lon="-0.07293">
        <ele>410</ele>
        <time>2019-06-14T20:15:15Z</time>
      </trkpt>
      <trkpt lat="43.02678" lon="-0.07285">
        <ele>410</ele>
        <time>2019-06-14T20:15:16Z</time>
      </trkpt>
      <trkpt lat="43.027" lon="-0.07278">
        <ele>409</ele>
        <time>2019-06-14T20:15:17Z</time>
      </trkpt>
      <trkpt lat="43.02717" lon="-0.0727">
        <ele>409</ele>
        <time>2019-06-14T20:15:18Z</time>
      </trkpt>
      <trkpt lat="43.02735" lon="-0.07249">
        <ele>408</ele>
        <time>2019-06-14T20:15:19Z</time>
      </trkpt>
      <trkpt lat="43.02736" lon="-0.0722">
        <ele>409</ele>
        <time>2019-06-14T20:15:20Z</time>
      </trkpt>
      <trkpt lat="43.02727" lon="-0.07194">
        <ele>409</ele>
        <time>2019-06-14T20:15:21Z</time>
      </trkpt>
      <trkpt lat="43.02723" lon="-0.07163">
        <ele>409</ele>
        <time>2019-06-14T20:15:22Z</time>
      </trkpt>
      <trkpt lat="43.0271" lon="-0.07137">
        <ele>409</ele>
        <time>2019-06-14T20:15:23Z</time>
      </trkpt>
      <trkpt lat="43.02696" lon="-0.0711">
        <ele>409</ele>
        <time>2019-06-14T20:15:24Z</time>
      </trkpt>
      <trkpt lat="43.0269" lon="-0.07081">
        <ele>409</ele>
        <time>2019-06-14T20:15:25Z</time>
      </trkpt>
      <trkpt lat="43.02693" lon="-0.07052">
        <ele>409</ele>
        <time>2019-06-14T20:15:26Z</time>
      </trkpt>
      <trkpt lat="43.02699" lon="-0.07021">
        <ele>408</ele>
        <time>2019-06-14T20:15:27Z</time>
      </trkpt>
      <trkpt lat="43.02695" lon="-0.0699">
        <ele>408</ele>
        <time>2019-06-14T20:15:28Z</time>
      </trkpt>
      <trkpt lat="43.02689" lon="-0.06961">
        <ele>408</ele>
        <time>2019-06-14T20:15:29Z</time>
      </trkpt>
      <trkpt lat="43.02688" lon="-0.06929">
        <ele>408</ele>
        <time>2019-06-14T20:15:30Z</time>
      </trkpt>
      <trkpt lat="43.02687" lon="-0.06903">
        <ele>408</ele>
        <time>2019-06-14T20:15:31Z</time>
      </trkpt>
      <trkpt lat="43.0269" lon="-0.06872">
        <ele>408</ele>
        <time>2019-06-14T20:15:32Z</time>
      </trkpt>
      <trkpt lat="43.02692" lon="-0.0684">
        <ele>408</ele>
        <time>2019-06-14T20:15:33Z</time>
      </trkpt>
      <trkpt lat="43.02705" lon="-0.06819">
        <ele>407</ele>
        <time>2019-06-14T20:15:34Z</time>
      </trkpt>
      <trkpt lat="43.02712" lon="-0.06793">
        <ele>407</ele>
        <time>2019-06-14T20:15:35Z</time>
      </trkpt>
      <trkpt lat="43.02726" lon="-0.06767">
        <ele>406</ele>
        <time>2019-06-14T20:15:36Z</time>
      </trkpt>
      <trkpt lat="43.02736" lon="-0.06746">
        <ele>406</ele>
        <time>2019-06-14T20:15:37Z</time>
      </trkpt>
      <trkpt lat="43.02747" lon="-0.06726">
        <ele>405</ele>
        <time>2019-06-14T20:15:38Z</time>
      </trkpt>
      <trkpt lat="43.02762" lon="-0.06704">
        <ele>405</ele>
        <time>2019-06-14T20:15:39Z</time>
      </trkpt>
      <trkpt lat="43.02776" lon="-0.0668">
        <ele>404</ele>
        <time>2019-06-14T20:15:40Z</time>
      </trkpt>
      <trkpt lat="43.0279" lon="-0.06664">
        <ele>404</ele>
        <time>2019-06-14T20:15:41Z</time>
      </trkpt>
      <trkpt lat="43.02807" lon="-0.06646">
        <ele>404</ele>
        <time>2019-06-14T20:15:42Z</time>
      </trkpt>
      <trkpt lat="43.02823" lon="-0.06633">
        <ele>404</ele>
        <time>2019-06-14T20:15:43Z</time>
      </trkpt>
      <trkpt lat="43.02842" lon="-0.06616">
        <ele>405</ele>
        <time>2019-06-14T20:15:44Z</time>
      </trkpt>
      <trkpt lat="43.02857" lon="-0.06598">
        <ele>406</ele>
        <time>2019-06-14T20:15:45Z</time>
      </trkpt>
      <trkpt lat="43.02877" lon="-0.06585">
        <ele>406</ele>
        <time>2019-06-14T20:15:46Z</time>
      </trkpt>
      <trkpt lat="43.02897" lon="-0.06572">
        <ele>406</ele>
        <time>2019-06-14T20:15:47Z</time>
      </trkpt>
      <trkpt lat="43.02909" lon="-0.06548">
        <ele>406</ele>
        <time>2019-06-14T20:15:48Z</time>
      </trkpt>
      <trkpt lat="43.02919" lon="-0.06523">
        <ele>406</ele>
        <time>2019-06-14T20:15:49Z</time>
      </trkpt>
      <trkpt lat="43.02925" lon="-0.06495">
        <ele>406</ele>
        <time>2019-06-14T20:15:50Z</time>
      </trkpt>
      <trkpt lat="43.02933" lon="-0.06468">
        <ele>406</ele>
        <time>2019-06-14T20:15:51Z</time>
      </trkpt>
      <trkpt lat="43.02948" lon="-0.06449">
        <ele>407</ele>
        <time>2019-06-14T20:15:52Z</time>
      </trkpt>
      <trkpt lat="43.02966" lon="-0.06442">
        <ele>407</ele>
        <time>2019-06-14T20:15:53Z</time>
      </trkpt>
      <trkpt lat="43.02983" lon="-0.06422">
        <ele>408</ele>
        <time>2019-06-14T20:15:54Z</time>
      </trkpt>
      <trkpt lat="43.0299" lon="-0.06395">
        <ele>409</ele>
        <time>2019-06-14T20:15:55Z</time>
      </trkpt>
      <trkpt lat="43.02999" lon="-0.06366">
        <ele>409</ele>
        <time>2019-06-14T20:15:56Z</time>
      </trkpt>
      <trkpt lat="43.03005" lon="-0.06342">
        <ele>409</ele>
        <time>2019-06-14T20:15:57Z</time>
      </trkpt>
      <trkpt lat="43.03013" lon="-0.06319">
        <ele>410</ele>
        <time>2019-06-14T20:15:58Z</time>
      </trkpt>
      <trkpt lat="43.03027" lon="-0.06303">
        <ele>410</ele>
        <time>2019-06-14T20:15:59Z</time>
      </trkpt>
      <trkpt lat="43.03039" lon="-0.06279">
        <ele>410</ele>
        <time>2019-06-14T20:16:00Z</time>
      </trkpt>
      <trkpt lat="43.0306" lon="-0.0627">
        <ele>409</ele>
        <time>2019-06-14T20:16:01Z</time>
      </trkpt>
      <trkpt lat="43.03082" lon="-0.06262">
        <ele>408</ele>
        <time>2019-06-14T20:16:02Z</time>
      </trkpt>
      <trkpt lat="43.03103" lon="-0.06254">
        <ele>407</ele>
        <time>2019-06-14T20:16:03Z</time>
      </trkpt>
      <trkpt lat="43.03125" lon="-0.06247">
        <ele>407</ele>
        <time>2019-06-14T20:16:04Z</time>
      </trkpt>
      <trkpt lat="43.03146" lon="-0.0624">
        <ele>408</ele>
        <time>2019-06-14T20:16:05Z</time>
      </trkpt>
      <trkpt lat="43.03167" lon="-0.06231">
        <ele>408</ele>
        <time>2019-06-14T20:16:06Z</time>
      </trkpt>
      <trkpt lat="43.03188" lon="-0.06225">
        <ele>409</ele>
        <time>2019-06-14T20:16:07Z</time>
      </trkpt>
      <trkpt lat="43.0321" lon="-0.06217">
        <ele>410</ele>
        <time>2019-06-14T20:16:08Z</time>
      </trkpt>
      <trkpt lat="43.03233" lon="-0.06209">
        <ele>413</ele>
        <time>2019-06-14T20:16:09Z</time>
      </trkpt>
      <trkpt lat="43.03255" lon="-0.06202">
        <ele>414</ele>
        <time>2019-06-14T20:16:10Z</time>
      </trkpt>
      <trkpt lat="43.03278" lon="-0.06194">
        <ele>414</ele>
        <time>2019-06-14T20:16:11Z</time>
      </trkpt>
      <trkpt lat="43.03296" lon="-0.06188">
        <ele>414</ele>
        <time>2019-06-14T20:16:12Z</time>
      </trkpt>
      <trkpt lat="43.03319" lon="-0.0618">
        <ele>414</ele>
        <time>2019-06-14T20:16:13Z</time>
      </trkpt>
      <trkpt lat="43.03337" lon="-0.06174">
        <ele>414</ele>
        <time>2019-06-14T20:16:14Z</time>
      </trkpt>
      <trkpt lat="43.03354" lon="-0.06168">
        <ele>414</ele>
        <time>2019-06-14T20:16:15Z</time>
      </trkpt>
      <trkpt lat="43.03376" lon="-0.0616">
        <ele>416</ele>
        <time>2019-06-14T20:16:16Z</time>
      </trkpt>
      <trkpt lat="43.03395" lon="-0.06153">
        <ele>418</ele>
        <time>2019-06-14T20:16:17Z</time>
      </trkpt>
      <trkpt lat="43.03417" lon="-0.06146">
        <ele>420</ele>
        <time>2019-06-14T20:16:18Z</time>
      </trkpt>
      <trkpt lat="43.0344" lon="-0.0614">
        <ele>420</ele>
        <time>2019-06-14T20:16:19Z</time>
      </trkpt>
      <trkpt lat="43.03458" lon="-0.06135">
        <ele>421</ele>
        <time>2019-06-14T20:16:20Z</time>
      </trkpt>
      <trkpt lat="43.0344" lon="-0.06143">
        <ele>419</ele>
        <time>2019-06-14T20:16:21Z</time>
      </trkpt>
      <trkpt lat="43.03428" lon="-0.06164">
        <ele>412</ele>
        <time>2019-06-14T20:16:22Z</time>
      </trkpt>
      <trkpt lat="43.03445" lon="-0.0618">
        <ele>409</ele>
        <time>2019-06-14T20:16:23Z</time>
      </trkpt>
      <trkpt lat="43.03464" lon="-0.06175">
        <ele>409</ele>
        <time>2019-06-14T20:16:24Z</time>
      </trkpt>
      <trkpt lat="43.03484" lon="-0.06175">
        <ele>408</ele>
        <time>2019-06-14T20:16:25Z</time>
      </trkpt>
      <trkpt lat="43.03501" lon="-0.06184">
        <ele>407</ele>
        <time>2019-06-14T20:16:26Z</time>
      </trkpt>
      <trkpt lat="43.03512" lon="-0.06206">
        <ele>405</ele>
        <time>2019-06-14T20:16:27Z</time>
      </trkpt>
      <trkpt lat="43.03533" lon="-0.06199">
        <ele>405</ele>
        <time>2019-06-14T20:16:28Z</time>
      </trkpt>
      <trkpt lat="43.03553" lon="-0.06216">
        <ele>404</ele>
        <time>2019-06-14T20:16:29Z</time>
      </trkpt>
      <trkpt lat="43.03573" lon="-0.06215">
        <ele>404</ele>
        <time>2019-06-14T20:16:30Z</time>
      </trkpt>
      <trkpt lat="43.03592" lon="-0.06217">
        <ele>403</ele>
        <time>2019-06-14T20:16:31Z</time>
      </trkpt>
      <trkpt lat="43.03608" lon="-0.06205">
        <ele>403</ele>
        <time>2019-06-14T20:16:32Z</time>
      </trkpt>
      <trkpt lat="43.03628" lon="-0.06202">
        <ele>403</ele>
        <time>2019-06-14T20:16:33Z</time>
      </trkpt>
      <trkpt lat="43.03646" lon="-0.0621">
        <ele>402</ele>
        <time>2019-06-14T20:16:34Z</time>
      </trkpt>
      <trkpt lat="43.03669" lon="-0.06205">
        <ele>402</ele>
        <time>2019-06-14T20:16:35Z</time>
      </trkpt>
      <trkpt lat="43.03685" lon="-0.06219">
        <ele>402</ele>
        <time>2019-06-14T20:16:36Z</time>
      </trkpt>
      <trkpt lat="43.03706" lon="-0.06224">
        <ele>403</ele>
        <time>2019-06-14T20:16:37Z</time>
      </trkpt>
      <trkpt lat="43.03727" lon="-0.06217">
        <ele>404</ele>
        <time>2019-06-14T20:16:38Z</time>
      </trkpt>
      <trkpt lat="43.03745" lon="-0.06212">
        <ele>405</ele>
        <time>2019-06-14T20:16:39Z</time>
      </trkpt>
      <trkpt lat="43.03767" lon="-0.06199">
        <ele>406</ele>
        <time>2019-06-14T20:16:40Z</time>
      </trkpt>
      <trkpt lat="43.03784" lon="-0.0619">
        <ele>406</ele>
        <time>2019-06-14T20:16:41Z</time>
      </trkpt>
      <trkpt lat="43.03799" lon="-0.06174">
        <ele>407</ele>
        <time>2019-06-14T20:16:42Z</time>
      </trkpt>
      <trkpt lat="43.03815" lon="-0.06187">
        <ele>406</ele>
        <time>2019-06-14T20:16:43Z</time>
      </trkpt>
      <trkpt lat="43.03832" lon="-0.06202">
        <ele>406</ele>
        <time>2019-06-14T20:16:44Z</time>
      </trkpt>
      <trkpt lat="43.03851" lon="-0.06197">
        <ele>406</ele>
        <time>2019-06-14T20:16:45Z</time>
      </trkpt>
      <trkpt lat="43.0387" lon="-0.06194">
        <ele>406</ele>
        <time>2019-06-14T20:16:46Z</time>
      </trkpt>
      <trkpt lat="43.03891" lon="-0.06188">
        <ele>407</ele>
        <time>2019-06-14T20:16:47Z</time>
      </trkpt>
      <trkpt lat="43.03909" lon="-0.0618">
        <ele>407</ele>
        <time>2019-06-14T20:16:48Z</time>
      </trkpt>
      <trkpt lat="43.03931" lon="-0.06175">
        <ele>407</ele>
        <time>2019-06-14T20:16:49Z</time>
      </trkpt>
      <trkpt lat="43.03949" lon="-0.06171">
        <ele>407</ele>
        <time>2019-06-14T20:16:50Z</time>
      </trkpt>
      <trkpt lat="43.03968" lon="-0.06163">
        <ele>407</ele>
        <time>2019-06-14T20:16:51Z</time>
      </trkpt>
      <trkpt lat="43.03988" lon="-0.06158">
        <ele>406</ele>
        <time>2019-06-14T20:16:52Z</time>
      </trkpt>
      <trkpt lat="43.04007" lon="-0.0615">
        <ele>406</ele>
        <time>2019-06-14T20:16:53Z</time>
      </trkpt>
      <trkpt lat="43.04023" lon="-0.06138">
        <ele>405</ele>
        <time>2019-06-14T20:16:54Z</time>
      </trkpt>
      <trkpt lat="43.04039" lon="-0.06129">
        <ele>404</ele>
        <time>2019-06-14T20:16:55Z</time>
      </trkpt>
      <trkpt lat="43.04057" lon="-0.06119">
        <ele>403</ele>
        <time>2019-06-14T20:16:56Z</time>
      </trkpt>
      <trkpt lat="43.04071" lon="-0.06102">
        <ele>402</ele>
        <time>2019-06-14T20:16:57Z</time>
      </trkpt>
      <trkpt lat="43.04089" lon="-0.06095">
        <ele>401</ele>
        <time>2019-06-14T20:16:58Z</time>
      </trkpt>
      <trkpt lat="43.0411" lon="-0.06097">
        <ele>401</ele>
        <time>2019-06-14T20:16:59Z</time>
      </trkpt>
      <trkpt lat="43.0413" lon="-0.06105">
        <ele>401</ele>
        <time>2019-06-14T20:17:00Z</time>
      </trkpt>
      <trkpt lat="43.04149" lon="-0.06118">
        <ele>401</ele>
        <time>2019-06-14T20:17:01Z</time>
      </trkpt>
      <trkpt lat="43.04166" lon="-0.06128">
        <ele>401</ele>
        <time>2019-06-14T20:17:02Z</time>
      </trkpt>
      <trkpt lat="43.04183" lon="-0.06136">
        <ele>401</ele>
        <time>2019-06-14T20:17:03Z</time>
      </trkpt>
      <trkpt lat="43.04206" lon="-0.06133">
        <ele>401</ele>
        <time>2019-06-14T20:17:04Z</time>
      </trkpt>
      <trkpt lat="43.04222" lon="-0.06119">
        <ele>401</ele>
        <time>2019-06-14T20:17:05Z</time>
      </trkpt>
      <trkpt lat="43.0424" lon="-0.06105">
        <ele>401</ele>
        <time>2019-06-14T20:17:06Z</time>
      </trkpt>
      <trkpt lat="43.04258" lon="-0.06094">
        <ele>401</ele>
        <time>2019-06-14T20:17:07Z</time>
      </trkpt>
      <trkpt lat="43.04273" lon="-0.06076">
        <ele>401</ele>
        <time>2019-06-14T20:17:08Z</time>
      </trkpt>
      <trkpt lat="43.04288" lon="-0.06052">
        <ele>401</ele>
        <time>2019-06-14T20:17:09Z</time>
      </trkpt>
      <trkpt lat="43.04299" lon="-0.06025">
        <ele>400</ele>
        <time>2019-06-14T20:17:10Z</time>
      </trkpt>
      <trkpt lat="43.04297" lon="-0.05998">
        <ele>400</ele>
        <time>2019-06-14T20:17:11Z</time>
      </trkpt>
      <trkpt lat="43.04296" lon="-0.05968">
        <ele>400</ele>
        <time>2019-06-14T20:17:12Z</time>
      </trkpt>
      <trkpt lat="43.04303" lon="-0.05944">
        <ele>400</ele>
        <time>2019-06-14T20:17:13Z</time>
      </trkpt>
      <trkpt lat="43.04304" lon="-0.05916">
        <ele>400</ele>
        <time>2019-06-14T20:17:14Z</time>
      </trkpt>
      <trkpt lat="43.04306" lon="-0.05891">
        <ele>399</ele>
        <time>2019-06-14T20:17:15Z</time>
      </trkpt>
      <trkpt lat="43.04314" lon="-0.05865">
        <ele>399</ele>
        <time>2019-06-14T20:17:16Z</time>
      </trkpt>
      <trkpt lat="43.04322" lon="-0.0584">
        <ele>398</ele>
        <time>2019-06-14T20:17:17Z</time>
      </trkpt>
      <trkpt lat="43.04325" lon="-0.05815">
        <ele>398</ele>
        <time>2019-06-14T20:17:18Z</time>
      </trkpt>
      <trkpt lat="43.0434" lon="-0.05803">
        <ele>398</ele>
        <time>2019-06-14T20:17:19Z</time>
      </trkpt>
      <trkpt lat="43.04359" lon="-0.0579">
        <ele>398</ele>
        <time>2019-06-14T20:17:20Z</time>
      </trkpt>
      <trkpt lat="43.04378" lon="-0.05776">
        <ele>397</ele>
        <time>2019-06-14T20:17:21Z</time>
      </trkpt>
      <trkpt lat="43.04398" lon="-0.05763">
        <ele>397</ele>
        <time>2019-06-14T20:17:22Z</time>
      </trkpt>
      <trkpt lat="43.04415" lon="-0.05749">
        <ele>397</ele>
        <time>2019-06-14T20:17:23Z</time>
      </trkpt>
      <trkpt lat="43.0443" lon="-0.0573">
        <ele>397</ele>
        <time>2019-06-14T20:17:24Z</time>
      </trkpt>
      <trkpt lat="43.04445" lon="-0.05709">
        <ele>397</ele>
        <time>2019-06-14T20:17:25Z</time>
      </trkpt>
      <trkpt lat="43.04463" lon="-0.05694">
        <ele>397</ele>
        <time>2019-06-14T20:17:26Z</time>
      </trkpt>
      <trkpt lat="43.04482" lon="-0.05684">
        <ele>398</ele>
        <time>2019-06-14T20:17:27Z</time>
      </trkpt>
      <trkpt lat="43.045" lon="-0.05667">
        <ele>399</ele>
        <time>2019-06-14T20:17:28Z</time>
      </trkpt>
      <trkpt lat="43.04516" lon="-0.05645">
        <ele>400</ele>
        <time>2019-06-14T20:17:29Z</time>
      </trkpt>
      <trkpt lat="43.04533" lon="-0.05626">
        <ele>400</ele>
        <time>2019-06-14T20:17:30Z</time>
      </trkpt>
      <trkpt lat="43.04555" lon="-0.05612">
        <ele>401</ele>
        <time>2019-06-14T20:17:31Z</time>
      </trkpt>
      <trkpt lat="43.04573" lon="-0.05603">
        <ele>402</ele>
        <time>2019-06-14T20:17:32Z</time>
      </trkpt>
      <trkpt lat="43.04596" lon="-0.05587">
        <ele>402</ele>
        <time>2019-06-14T20:17:33Z</time>
      </trkpt>
      <trkpt lat="43.0461" lon="-0.05564">
        <ele>401</ele>
        <time>2019-06-14T20:17:34Z</time>
      </trkpt>
      <trkpt lat="43.04631" lon="-0.05545">
        <ele>401</ele>
        <time>2019-06-14T20:17:35Z</time>
      </trkpt>
      <trkpt lat="43.04644" lon="-0.05523">
        <ele>401</ele>
        <time>2019-06-14T20:17:36Z</time>
      </trkpt>
      <trkpt lat="43.04656" lon="-0.05501">
        <ele>402</ele>
        <time>2019-06-14T20:17:37Z</time>
      </trkpt>
      <trkpt lat="43.04667" lon="-0.05478">
        <ele>403</ele>
        <time>2019-06-14T20:17:38Z</time>
      </trkpt>
      <trkpt lat="43.04684" lon="-0.05465">
        <ele>402</ele>
        <time>2019-06-14T20:17:39Z</time>
      </trkpt>
      <trkpt lat="43.04699" lon="-0.05447">
        <ele>402</ele>
        <time>2019-06-14T20:17:40Z</time>
      </trkpt>
      <trkpt lat="43.04711" lon="-0.0542">
        <ele>403</ele>
        <time>2019-06-14T20:17:41Z</time>
      </trkpt>
      <trkpt lat="43.04719" lon="-0.05396">
        <ele>402</ele>
        <time>2019-06-14T20:17:42Z</time>
      </trkpt>
      <trkpt lat="43.04737" lon="-0.05375">
        <ele>402</ele>
        <time>2019-06-14T20:17:43Z</time>
      </trkpt>
      <trkpt lat="43.04756" lon="-0.05359">
        <ele>402</ele>
        <time>2019-06-14T20:17:44Z</time>
      </trkpt>
      <trkpt lat="43.0478" lon="-0.0536">
        <ele>402</ele>
        <time>2019-06-14T20:17:45Z</time>
      </trkpt>
      <trkpt lat="43.04793" lon="-0.05337">
        <ele>402</ele>
        <time>2019-06-14T20:17:46Z</time>
      </trkpt>
      <trkpt lat="43.04811" lon="-0.05324">
        <ele>403</ele>
        <time>2019-06-14T20:17:47Z</time>
      </trkpt>
      <trkpt lat="43.0483" lon="-0.05326">
        <ele>403</ele>
        <time>2019-06-14T20:17:48Z</time>
      </trkpt>
      <trkpt lat="43.0485" lon="-0.05317">
        <ele>402</ele>
        <time>2019-06-14T20:17:49Z</time>
      </trkpt>
      <trkpt lat="43.04866" lon="-0.053">
        <ele>401</ele>
        <time>2019-06-14T20:17:50Z</time>
      </trkpt>
      <trkpt lat="43.04871" lon="-0.05276">
        <ele>400</ele>
        <time>2019-06-14T20:17:51Z</time>
      </trkpt>
      <trkpt lat="43.04887" lon="-0.0525">
        <ele>400</ele>
        <time>2019-06-14T20:17:52Z</time>
      </trkpt>
      <trkpt lat="43.04905" lon="-0.05228">
        <ele>400</ele>
        <time>2019-06-14T20:17:53Z</time>
      </trkpt>
      <trkpt lat="43.04919" lon="-0.05211">
        <ele>399</ele>
        <time>2019-06-14T20:17:54Z</time>
      </trkpt>
      <trkpt lat="43.04939" lon="-0.05211">
        <ele>399</ele>
        <time>2019-06-14T20:17:55Z</time>
      </trkpt>
      <trkpt lat="43.04947" lon="-0.05185">
        <ele>399</ele>
        <time>2019-06-14T20:17:56Z</time>
      </trkpt>
      <trkpt lat="43.04964" lon="-0.05175">
        <ele>398</ele>
        <time>2019-06-14T20:17:57Z</time>
      </trkpt>
      <trkpt lat="43.04982" lon="-0.05181">
        <ele>398</ele>
        <time>2019-06-14T20:17:58Z</time>
      </trkpt>
      <trkpt lat="43.05003" lon="-0.05189">
        <ele>398</ele>
        <time>2019-06-14T20:17:59Z</time>
      </trkpt>
      <trkpt lat="43.0502" lon="-0.05198">
        <ele>398</ele>
        <time>2019-06-14T20:18:00Z</time>
      </trkpt>
      <trkpt lat="43.05042" lon="-0.0519">
        <ele>398</ele>
        <time>2019-06-14T20:18:01Z</time>
      </trkpt>
      <trkpt lat="43.05061" lon="-0.05181">
        <ele>398</ele>
        <time>2019-06-14T20:18:02Z</time>
      </trkpt>
      <trkpt lat="43.05083" lon="-0.05168">
        <ele>397</ele>
        <time>2019-06-14T20:18:03Z</time>
      </trkpt>
      <trkpt lat="43.05101" lon="-0.0516">
        <ele>397</ele>
        <time>2019-06-14T20:18:04Z</time>
      </trkpt>
      <trkpt lat="43.05121" lon="-0.05145">
        <ele>398</ele>
        <time>2019-06-14T20:18:05Z</time>
      </trkpt>
      <trkpt lat="43.05136" lon="-0.05124">
        <ele>398</ele>
        <time>2019-06-14T20:18:06Z</time>
      </trkpt>
      <trkpt lat="43.05144" lon="-0.05099">
        <ele>398</ele>
        <time>2019-06-14T20:18:07Z</time>
      </trkpt>
      <trkpt lat="43.05143" lon="-0.05068">
        <ele>397</ele>
        <time>2019-06-14T20:18:08Z</time>
      </trkpt>
      <trkpt lat="43.05147" lon="-0.05039">
        <ele>396</ele>
        <time>2019-06-14T20:18:09Z</time>
      </trkpt>
      <trkpt lat="43.05146" lon="-0.05006">
        <ele>395</ele>
        <time>2019-06-14T20:18:10Z</time>
      </trkpt>
      <trkpt lat="43.05148" lon="-0.04976">
        <ele>395</ele>
        <time>2019-06-14T20:18:11Z</time>
      </trkpt>
      <trkpt lat="43.0515" lon="-0.04945">
        <ele>395</ele>
        <time>2019-06-14T20:18:12Z</time>
      </trkpt>
      <trkpt lat="43.05151" lon="-0.04914">
        <ele>394</ele>
        <time>2019-06-14T20:18:13Z</time>
      </trkpt>
      <trkpt lat="43.05149" lon="-0.04885">
        <ele>394</ele>
        <time>2019-06-14T20:18:14Z</time>
      </trkpt>
      <trkpt lat="43.0515" lon="-0.04855">
        <ele>394</ele>
        <time>2019-06-14T20:18:15Z</time>
      </trkpt>
      <trkpt lat="43.05148" lon="-0.04827">
        <ele>394</ele>
        <time>2019-06-14T20:18:16Z</time>
      </trkpt>
      <trkpt lat="43.05148" lon="-0.048">
        <ele>395</ele>
        <time>2019-06-14T20:18:17Z</time>
      </trkpt>
      <trkpt lat="43.05155" lon="-0.04774">
        <ele>395</ele>
        <time>2019-06-14T20:18:18Z</time>
      </trkpt>
      <trkpt lat="43.05165" lon="-0.0475">
        <ele>396</ele>
        <time>2019-06-14T20:18:19Z</time>
      </trkpt>
      <trkpt lat="43.05176" lon="-0.04726">
        <ele>396</ele>
        <time>2019-06-14T20:18:20Z</time>
      </trkpt>
      <trkpt lat="43.05189" lon="-0.04704">
        <ele>396</ele>
        <time>2019-06-14T20:18:21Z</time>
      </trkpt>
      <trkpt lat="43.05204" lon="-0.04686">
        <ele>395</ele>
        <time>2019-06-14T20:18:22Z</time>
      </trkpt>
      <trkpt lat="43.05219" lon="-0.04672">
        <ele>395</ele>
        <time>2019-06-14T20:18:23Z</time>
      </trkpt>
      <trkpt lat="43.0523" lon="-0.04652">
        <ele>395</ele>
        <time>2019-06-14T20:18:24Z</time>
      </trkpt>
      <trkpt lat="43.05229" lon="-0.04625">
        <ele>394</ele>
        <time>2019-06-14T20:18:25Z</time>
      </trkpt>
      <trkpt lat="43.05235" lon="-0.04596">
        <ele>394</ele>
        <time>2019-06-14T20:18:26Z</time>
      </trkpt>
      <trkpt lat="43.05247" lon="-0.04575">
        <ele>393</ele>
        <time>2019-06-14T20:18:27Z</time>
      </trkpt>
      <trkpt lat="43.05263" lon="-0.04564">
        <ele>393</ele>
        <time>2019-06-14T20:18:28Z</time>
      </trkpt>
      <trkpt lat="43.05282" lon="-0.04552">
        <ele>393</ele>
        <time>2019-06-14T20:18:29Z</time>
      </trkpt>
      <trkpt lat="43.053" lon="-0.0454">
        <ele>393</ele>
        <time>2019-06-14T20:18:30Z</time>
      </trkpt>
      <trkpt lat="43.05319" lon="-0.04528">
        <ele>393</ele>
        <time>2019-06-14T20:18:31Z</time>
      </trkpt>
      <trkpt lat="43.05338" lon="-0.04515">
        <ele>394</ele>
        <time>2019-06-14T20:18:32Z</time>
      </trkpt>
      <trkpt lat="43.05358" lon="-0.04503">
        <ele>394</ele>
        <time>2019-06-14T20:18:33Z</time>
      </trkpt>
      <trkpt lat="43.05377" lon="-0.0449">
        <ele>395</ele>
        <time>2019-06-14T20:18:34Z</time>
      </trkpt>
      <trkpt lat="43.05398" lon="-0.04477">
        <ele>395</ele>
        <time>2019-06-14T20:18:35Z</time>
      </trkpt>
      <trkpt lat="43.05418" lon="-0.04464">
        <ele>395</ele>
        <time>2019-06-14T20:18:36Z</time>
      </trkpt>
      <trkpt lat="43.0544" lon="-0.04451">
        <ele>394</ele>
        <time>2019-06-14T20:18:37Z</time>
      </trkpt>
      <trkpt lat="43.05457" lon="-0.04441">
        <ele>394</ele>
        <time>2019-06-14T20:18:38Z</time>
      </trkpt>
      <trkpt lat="43.05474" lon="-0.0443">
        <ele>393</ele>
        <time>2019-06-14T20:18:39Z</time>
      </trkpt>
      <trkpt lat="43.05491" lon="-0.04418">
        <ele>393</ele>
        <time>2019-06-14T20:18:40Z</time>
      </trkpt>
      <trkpt lat="43.05513" lon="-0.04404">
        <ele>393</ele>
        <time>2019-06-14T20:18:41Z</time>
      </trkpt>
      <trkpt lat="43.0553" lon="-0.04394">
        <ele>393</ele>
        <time>2019-06-14T20:18:42Z</time>
      </trkpt>
      <trkpt lat="43.05546" lon="-0.04382">
        <ele>393</ele>
        <time>2019-06-14T20:18:43Z</time>
      </trkpt>
      <trkpt lat="43.05563" lon="-0.04372">
        <ele>393</ele>
        <time>2019-06-14T20:18:44Z</time>
      </trkpt>
      <trkpt lat="43.05584" lon="-0.04359">
        <ele>392</ele>
        <time>2019-06-14T20:18:45Z</time>
      </trkpt>
      <trkpt lat="43.05602" lon="-0.04349">
        <ele>392</ele>
        <time>2019-06-14T20:18:46Z</time>
      </trkpt>
      <trkpt lat="43.05623" lon="-0.04334">
        <ele>392</ele>
        <time>2019-06-14T20:18:47Z</time>
      </trkpt>
      <trkpt lat="43.05644" lon="-0.0432">
        <ele>392</ele>
        <time>2019-06-14T20:18:48Z</time>
      </trkpt>
      <trkpt lat="43.05661" lon="-0.04309">
        <ele>393</ele>
        <time>2019-06-14T20:18:49Z</time>
      </trkpt>
      <trkpt lat="43.05682" lon="-0.04295">
        <ele>393</ele>
        <time>2019-06-14T20:18:50Z</time>
      </trkpt>
      <trkpt lat="43.05702" lon="-0.04283">
        <ele>393</ele>
        <time>2019-06-14T20:18:51Z</time>
      </trkpt>
      <trkpt lat="43.0572" lon="-0.0427">
        <ele>393</ele>
        <time>2019-06-14T20:18:52Z</time>
      </trkpt>
      <trkpt lat="43.05716" lon="-0.04242">
        <ele>393</ele>
        <time>2019-06-14T20:18:53Z</time>
      </trkpt>
      <trkpt lat="43.05698" lon="-0.04233">
        <ele>393</ele>
        <time>2019-06-14T20:18:54Z</time>
      </trkpt>
      <trkpt lat="43.05677" lon="-0.0423">
        <ele>393</ele>
        <time>2019-06-14T20:18:55Z</time>
      </trkpt>
      <trkpt lat="43.05659" lon="-0.04219">
        <ele>393</ele>
        <time>2019-06-14T20:18:56Z</time>
      </trkpt>
      <trkpt lat="43.05654" lon="-0.04195">
        <ele>394</ele>
        <time>2019-06-14T20:18:57Z</time>
      </trkpt>
      <trkpt lat="43.05652" lon="-0.04168">
        <ele>394</ele>
        <time>2019-06-14T20:18:58Z</time>
      </trkpt>
      <trkpt lat="43.05648" lon="-0.04144">
        <ele>397</ele>
        <time>2019-06-14T20:18:59Z</time>
      </trkpt>
      <trkpt lat="43.05663" lon="-0.04127">
        <ele>398</ele>
        <time>2019-06-14T20:19:00Z</time>
      </trkpt>
      <trkpt lat="43.05681" lon="-0.04117">
        <ele>398</ele>
        <time>2019-06-14T20:19:01Z</time>
      </trkpt>
      <trkpt lat="43.05678" lon="-0.0409">
        <ele>401</ele>
        <time>2019-06-14T20:19:02Z</time>
      </trkpt>
      <trkpt lat="43.05685" lon="-0.04063">
        <ele>403</ele>
        <time>2019-06-14T20:19:03Z</time>
      </trkpt>
      <trkpt lat="43.05701" lon="-0.04044">
        <ele>404</ele>
        <time>2019-06-14T20:19:04Z</time>
      </trkpt>
      <trkpt lat="43.05717" lon="-0.04028">
        <ele>404</ele>
        <time>2019-06-14T20:19:05Z</time>
      </trkpt>
      <trkpt lat="43.05732" lon="-0.04013">
        <ele>404</ele>
        <time>2019-06-14T20:19:06Z</time>
      </trkpt>
      <trkpt lat="43.05746" lon="-0.03991">
        <ele>404</ele>
        <time>2019-06-14T20:19:07Z</time>
      </trkpt>
      <trkpt lat="43.05759" lon="-0.03972">
        <ele>405</ele>
        <time>2019-06-14T20:19:08Z</time>
      </trkpt>
      <trkpt lat="43.05775" lon="-0.03953">
        <ele>408</ele>
        <time>2019-06-14T20:19:09Z</time>
      </trkpt>
      <trkpt lat="43.05793" lon="-0.03938">
        <ele>410</ele>
        <time>2019-06-14T20:19:10Z</time>
      </trkpt>
      <trkpt lat="43.05812" lon="-0.03923">
        <ele>411</ele>
        <time>2019-06-14T20:19:11Z</time>
      </trkpt>
      <trkpt lat="43.0583" lon="-0.03915">
        <ele>413</ele>
        <time>2019-06-14T20:19:12Z</time>
      </trkpt>
      <trkpt lat="43.05849" lon="-0.03905">
        <ele>417</ele>
        <time>2019-06-14T20:19:13Z</time>
      </trkpt>
      <trkpt lat="43.05867" lon="-0.03893">
        <ele>421</ele>
        <time>2019-06-14T20:19:14Z</time>
      </trkpt>
      <trkpt lat="43.05885" lon="-0.03881">
        <ele>424</ele>
        <time>2019-06-14T20:19:15Z</time>
      </trkpt>
      <trkpt lat="43.05902" lon="-0.03868">
        <ele>427</ele>
        <time>2019-06-14T20:19:16Z</time>
      </trkpt>
      <trkpt lat="43.0592" lon="-0.03855">
        <ele>430</ele>
        <time>2019-06-14T20:19:17Z</time>
      </trkpt>
      <trkpt lat="43.05936" lon="-0.03839">
        <ele>430</ele>
        <time>2019-06-14T20:19:18Z</time>
      </trkpt>
      <trkpt lat="43.05952" lon="-0.03824">
        <ele>431</ele>
        <time>2019-06-14T20:19:19Z</time>
      </trkpt>
      <trkpt lat="43.05966" lon="-0.03809">
        <ele>433</ele>
        <time>2019-06-14T20:19:20Z</time>
      </trkpt>
      <trkpt lat="43.05986" lon="-0.03789">
        <ele>435</ele>
        <time>2019-06-14T20:19:21Z</time>
      </trkpt>
      <trkpt lat="43.06005" lon="-0.03777">
        <ele>436</ele>
        <time>2019-06-14T20:19:22Z</time>
      </trkpt>
      <trkpt lat="43.06029" lon="-0.03775">
        <ele>436</ele>
        <time>2019-06-14T20:19:23Z</time>
      </trkpt>
      <trkpt lat="43.06047" lon="-0.03782">
        <ele>436</ele>
        <time>2019-06-14T20:19:24Z</time>
      </trkpt>
      <trkpt lat="43.06064" lon="-0.038">
        <ele>434</ele>
        <time>2019-06-14T20:19:25Z</time>
      </trkpt>
      <trkpt lat="43.06079" lon="-0.03813">
        <ele>433</ele>
        <time>2019-06-14T20:19:26Z</time>
      </trkpt>
      <trkpt lat="43.06098" lon="-0.03823">
        <ele>432</ele>
        <time>2019-06-14T20:19:27Z</time>
      </trkpt>
      <trkpt lat="43.06115" lon="-0.0383">
        <ele>432</ele>
        <time>2019-06-14T20:19:28Z</time>
      </trkpt>
      <trkpt lat="43.06136" lon="-0.03833">
        <ele>432</ele>
        <time>2019-06-14T20:19:29Z</time>
      </trkpt>
      <trkpt lat="43.06157" lon="-0.03831">
        <ele>433</ele>
        <time>2019-06-14T20:19:30Z</time>
      </trkpt>
      <trkpt lat="43.06177" lon="-0.03821">
        <ele>434</ele>
        <time>2019-06-14T20:19:31Z</time>
      </trkpt>
      <trkpt lat="43.06194" lon="-0.03811">
        <ele>435</ele>
        <time>2019-06-14T20:19:32Z</time>
      </trkpt>
      <trkpt lat="43.06215" lon="-0.03805">
        <ele>436</ele>
        <time>2019-06-14T20:19:33Z</time>
      </trkpt>
      <trkpt lat="43.06233" lon="-0.03797">
        <ele>437</ele>
        <time>2019-06-14T20:19:34Z</time>
      </trkpt>
      <trkpt lat="43.06253" lon="-0.0379">
        <ele>438</ele>
        <time>2019-06-14T20:19:35Z</time>
      </trkpt>
      <trkpt lat="43.06272" lon="-0.03785">
        <ele>438</ele>
        <time>2019-06-14T20:19:36Z</time>
      </trkpt>
      <trkpt lat="43.06291" lon="-0.03781">
        <ele>437</ele>
        <time>2019-06-14T20:19:37Z</time>
      </trkpt>
      <trkpt lat="43.0631" lon="-0.03781">
        <ele>437</ele>
        <time>2019-06-14T20:19:38Z</time>
      </trkpt>
      <trkpt lat="43.06331" lon="-0.03772">
        <ele>437</ele>
        <time>2019-06-14T20:19:39Z</time>
      </trkpt>
      <trkpt lat="43.06348" lon="-0.0376">
        <ele>438</ele>
        <time>2019-06-14T20:19:40Z</time>
      </trkpt>
      <trkpt lat="43.06369" lon="-0.03742">
        <ele>439</ele>
        <time>2019-06-14T20:19:41Z</time>
      </trkpt>
      <trkpt lat="43.0639" lon="-0.0374">
        <ele>437</ele>
        <time>2019-06-14T20:19:42Z</time>
      </trkpt>
      <trkpt lat="43.06412" lon="-0.03748">
        <ele>434</ele>
        <time>2019-06-14T20:19:43Z</time>
      </trkpt>
      <trkpt lat="43.06432" lon="-0.03757">
        <ele>432</ele>
        <time>2019-06-14T20:19:44Z</time>
      </trkpt>
      <trkpt lat="43.06452" lon="-0.03761">
        <ele>431</ele>
        <time>2019-06-14T20:19:45Z</time>
      </trkpt>
      <trkpt lat="43.06466" lon="-0.03742">
        <ele>433</ele>
        <time>2019-06-14T20:19:46Z</time>
      </trkpt>
      <trkpt lat="43.06474" lon="-0.03714">
        <ele>435</ele>
        <time>2019-06-14T20:19:47Z</time>
      </trkpt>
      <trkpt lat="43.06479" lon="-0.03684">
        <ele>437</ele>
        <time>2019-06-14T20:19:48Z</time>
      </trkpt>
      <trkpt lat="43.06486" lon="-0.03659">
        <ele>437</ele>
        <time>2019-06-14T20:19:49Z</time>
      </trkpt>
      <trkpt lat="43.06492" lon="-0.03635">
        <ele>435</ele>
        <time>2019-06-14T20:19:50Z</time>
      </trkpt>
      <trkpt lat="43.06491" lon="-0.03608">
        <ele>434</ele>
        <time>2019-06-14T20:19:51Z</time>
      </trkpt>
      <trkpt lat="43.06474" lon="-0.03599">
        <ele>437</ele>
        <time>2019-06-14T20:19:52Z</time>
      </trkpt>
      <trkpt lat="43.06455" lon="-0.036">
        <ele>442</ele>
        <time>2019-06-14T20:19:53Z</time>
      </trkpt>
      <trkpt lat="43.06439" lon="-0.03611">
        <ele>445</ele>
        <time>2019-06-14T20:19:54Z</time>
      </trkpt>
      <trkpt lat="43.06423" lon="-0.03622">
        <ele>448</ele>
        <time>2019-06-14T20:19:55Z</time>
      </trkpt>
      <trkpt lat="43.06412" lon="-0.03643">
        <ele>449</ele>
        <time>2019-06-14T20:19:56Z</time>
      </trkpt>
      <trkpt lat="43.06428" lon="-0.03631">
        <ele>447</ele>
        <time>2019-06-14T20:19:57Z</time>
      </trkpt>
      <trkpt lat="43.06448" lon="-0.03621">
        <ele>443</ele>
        <time>2019-06-14T20:19:58Z</time>
      </trkpt>
      <trkpt lat="43.06465" lon="-0.03609">
        <ele>439</ele>
        <time>2019-06-14T20:19:59Z</time>
      </trkpt>
      <trkpt lat="43.06486" lon="-0.03607">
        <ele>435</ele>
        <time>2019-06-14T20:20:00Z</time>
      </trkpt>
      <trkpt lat="43.0649" lon="-0.03632">
        <ele>435</ele>
        <time>2019-06-14T20:20:01Z</time>
      </trkpt>
      <trkpt lat="43.06483" lon="-0.03659">
        <ele>437</ele>
        <time>2019-06-14T20:20:02Z</time>
      </trkpt>
      <trkpt lat="43.06479" lon="-0.03683">
        <ele>437</ele>
        <time>2019-06-14T20:20:03Z</time>
      </trkpt>
      <trkpt lat="43.06475" lon="-0.03708">
        <ele>435</ele>
        <time>2019-06-14T20:20:04Z</time>
      </trkpt>
      <trkpt lat="43.06467" lon="-0.03736">
        <ele>433</ele>
        <time>2019-06-14T20:20:05Z</time>
      </trkpt>
      <trkpt lat="43.06455" lon="-0.03757">
        <ele>431</ele>
        <time>2019-06-14T20:20:06Z</time>
      </trkpt>
      <trkpt lat="43.06436" lon="-0.03763">
        <ele>431</ele>
        <time>2019-06-14T20:20:07Z</time>
      </trkpt>
      <trkpt lat="43.06416" lon="-0.03754">
        <ele>433</ele>
        <time>2019-06-14T20:20:08Z</time>
      </trkpt>
      <trkpt lat="43.06392" lon="-0.03744">
        <ele>436</ele>
        <time>2019-06-14T20:20:09Z</time>
      </trkpt>
      <trkpt lat="43.06372" lon="-0.03741">
        <ele>438</ele>
        <time>2019-06-14T20:20:10Z</time>
      </trkpt>
      <trkpt lat="43.06353" lon="-0.03756">
        <ele>438</ele>
        <time>2019-06-14T20:20:11Z</time>
      </trkpt>
      <trkpt lat="43.06334" lon="-0.0377">
        <ele>438</ele>
        <time>2019-06-14T20:20:12Z</time>
      </trkpt>
      <trkpt lat="43.06316" lon="-0.0378">
        <ele>437</ele>
        <time>2019-06-14T20:20:13Z</time>
      </trkpt>
      <trkpt lat="43.06296" lon="-0.03783">
        <ele>437</ele>
        <time>2019-06-14T20:20:14Z</time>
      </trkpt>
      <trkpt lat="43.06275" lon="-0.03785">
        <ele>438</ele>
        <time>2019-06-14T20:20:15Z</time>
      </trkpt>
      <trkpt lat="43.06257" lon="-0.03791">
        <ele>437</ele>
        <time>2019-06-14T20:20:16Z</time>
      </trkpt>
      <trkpt lat="43.06236" lon="-0.03799">
        <ele>437</ele>
        <time>2019-06-14T20:20:17Z</time>
      </trkpt>
      <trkpt lat="43.06214" lon="-0.03805">
        <ele>436</ele>
        <time>2019-06-14T20:20:18Z</time>
      </trkpt>
      <trkpt lat="43.0619" lon="-0.03816">
        <ele>435</ele>
        <time>2019-06-14T20:20:19Z</time>
      </trkpt>
      <trkpt lat="43.0617" lon="-0.03828">
        <ele>433</ele>
        <time>2019-06-14T20:20:20Z</time>
      </trkpt>
      <trkpt lat="43.06157" lon="-0.03848">
        <ele>432</ele>
        <time>2019-06-14T20:20:21Z</time>
      </trkpt>
      <trkpt lat="43.06161" lon="-0.03875">
        <ele>430</ele>
        <time>2019-06-14T20:20:22Z</time>
      </trkpt>
      <trkpt lat="43.06167" lon="-0.03899">
        <ele>428</ele>
        <time>2019-06-14T20:20:23Z</time>
      </trkpt>
      <trkpt lat="43.06184" lon="-0.03919">
        <ele>425</ele>
        <time>2019-06-14T20:20:24Z</time>
      </trkpt>
      <trkpt lat="43.06206" lon="-0.03934">
        <ele>419</ele>
        <time>2019-06-14T20:20:25Z</time>
      </trkpt>
      <trkpt lat="43.06228" lon="-0.03946">
        <ele>415</ele>
        <time>2019-06-14T20:20:26Z</time>
      </trkpt>
      <trkpt lat="43.06255" lon="-0.03939">
        <ele>414</ele>
        <time>2019-06-14T20:20:27Z</time>
      </trkpt>
      <trkpt lat="43.06275" lon="-0.03938">
        <ele>413</ele>
        <time>2019-06-14T20:20:28Z</time>
      </trkpt>
      <trkpt lat="43.06299" lon="-0.03936">
        <ele>411</ele>
        <time>2019-06-14T20:20:29Z</time>
      </trkpt>
      <trkpt lat="43.06328" lon="-0.03933">
        <ele>410</ele>
        <time>2019-06-14T20:20:30Z</time>
      </trkpt>
      <trkpt lat="43.06355" lon="-0.03934">
        <ele>408</ele>
        <time>2019-06-14T20:20:31Z</time>
      </trkpt>
      <trkpt lat="43.06382" lon="-0.03935">
        <ele>406</ele>
        <time>2019-06-14T20:20:32Z</time>
      </trkpt>
      <trkpt lat="43.06408" lon="-0.03939">
        <ele>404</ele>
        <time>2019-06-14T20:20:33Z</time>
      </trkpt>
      <trkpt lat="43.06435" lon="-0.0394">
        <ele>402</ele>
        <time>2019-06-14T20:20:34Z</time>
      </trkpt>
      <trkpt lat="43.06456" lon="-0.03941">
        <ele>402</ele>
        <time>2019-06-14T20:20:35Z</time>
      </trkpt>
      <trkpt lat="43.06481" lon="-0.03941">
        <ele>401</ele>
        <time>2019-06-14T20:20:36Z</time>
      </trkpt>
      <trkpt lat="43.06509" lon="-0.0394">
        <ele>400</ele>
        <time>2019-06-14T20:20:37Z</time>
      </trkpt>
      <trkpt lat="43.06526" lon="-0.03914">
        <ele>401</ele>
        <time>2019-06-14T20:20:38Z</time>
      </trkpt>
      <trkpt lat="43.06535" lon="-0.03893">
        <ele>403</ele>
        <time>2019-06-14T20:20:39Z</time>
      </trkpt>
      <trkpt lat="43.06547" lon="-0.03867">
        <ele>405</ele>
        <time>2019-06-14T20:20:40Z</time>
      </trkpt>
      <trkpt lat="43.06561" lon="-0.03844">
        <ele>405</ele>
        <time>2019-06-14T20:20:41Z</time>
      </trkpt>
      <trkpt lat="43.06578" lon="-0.03824">
        <ele>404</ele>
        <time>2019-06-14T20:20:42Z</time>
      </trkpt>
      <trkpt lat="43.06594" lon="-0.03807">
        <ele>404</ele>
        <time>2019-06-14T20:20:43Z</time>
      </trkpt>
      <trkpt lat="43.06613" lon="-0.03795">
        <ele>404</ele>
        <time>2019-06-14T20:20:44Z</time>
      </trkpt>
      <trkpt lat="43.06629" lon="-0.03776">
        <ele>404</ele>
        <time>2019-06-14T20:20:45Z</time>
      </trkpt>
      <trkpt lat="43.06646" lon="-0.03762">
        <ele>403</ele>
        <time>2019-06-14T20:20:46Z</time>
      </trkpt>
      <trkpt lat="43.06662" lon="-0.03748">
        <ele>401</ele>
        <time>2019-06-14T20:20:47Z</time>
      </trkpt>
      <trkpt lat="43.06676" lon="-0.03728">
        <ele>404</ele>
        <time>2019-06-14T20:20:48Z</time>
      </trkpt>
      <trkpt lat="43.06685" lon="-0.03706">
        <ele>409</ele>
        <time>2019-06-14T20:20:49Z</time>
      </trkpt>
      <trkpt lat="43.06677" lon="-0.0368">
        <ele>411</ele>
        <time>2019-06-14T20:20:50Z</time>
      </trkpt>
      <trkpt lat="43.06658" lon="-0.03671">
        <ele>409</ele>
        <time>2019-06-14T20:20:51Z</time>
      </trkpt>
      <trkpt lat="43.06638" lon="-0.03659">
        <ele>412</ele>
        <time>2019-06-14T20:20:52Z</time>
      </trkpt>
      <trkpt lat="43.0662" lon="-0.03644">
        <ele>414</ele>
        <time>2019-06-14T20:20:53Z</time>
      </trkpt>
      <trkpt lat="43.06602" lon="-0.03627">
        <ele>415</ele>
        <time>2019-06-14T20:20:54Z</time>
      </trkpt>
      <trkpt lat="43.06587" lon="-0.03603">
        <ele>414</ele>
        <time>2019-06-14T20:20:55Z</time>
      </trkpt>
      <trkpt lat="43.06573" lon="-0.03581">
        <ele>415</ele>
        <time>2019-06-14T20:20:56Z</time>
      </trkpt>
      <trkpt lat="43.0656" lon="-0.03557">
        <ele>419</ele>
        <time>2019-06-14T20:20:57Z</time>
      </trkpt>
      <trkpt lat="43.06547" lon="-0.03532">
        <ele>421</ele>
        <time>2019-06-14T20:20:58Z</time>
      </trkpt>
      <trkpt lat="43.06532" lon="-0.0351">
        <ele>421</ele>
        <time>2019-06-14T20:20:59Z</time>
      </trkpt>
      <trkpt lat="43.06517" lon="-0.03493">
        <ele>420</ele>
        <time>2019-06-14T20:21:00Z</time>
      </trkpt>
      <trkpt lat="43.06501" lon="-0.03475">
        <ele>419</ele>
        <time>2019-06-14T20:21:01Z</time>
      </trkpt>
      <trkpt lat="43.06485" lon="-0.03458">
        <ele>422</ele>
        <time>2019-06-14T20:21:02Z</time>
      </trkpt>
      <trkpt lat="43.06472" lon="-0.03438">
        <ele>423</ele>
        <time>2019-06-14T20:21:03Z</time>
      </trkpt>
      <trkpt lat="43.06468" lon="-0.0341">
        <ele>423</ele>
        <time>2019-06-14T20:21:04Z</time>
      </trkpt>
      <trkpt lat="43.06458" lon="-0.03386">
        <ele>425</ele>
        <time>2019-06-14T20:21:05Z</time>
      </trkpt>
      <trkpt lat="43.06447" lon="-0.0336">
        <ele>425</ele>
        <time>2019-06-14T20:21:06Z</time>
      </trkpt>
      <trkpt lat="43.06439" lon="-0.03333">
        <ele>423</ele>
        <time>2019-06-14T20:21:07Z</time>
      </trkpt>
      <trkpt lat="43.06431" lon="-0.03304">
        <ele>424</ele>
        <time>2019-06-14T20:21:08Z</time>
      </trkpt>
      <trkpt lat="43.06424" lon="-0.03276">
        <ele>424</ele>
        <time>2019-06-14T20:21:09Z</time>
      </trkpt>
      <trkpt lat="43.06419" lon="-0.03247">
        <ele>423</ele>
        <time>2019-06-14T20:21:10Z</time>
      </trkpt>
      <trkpt lat="43.06416" lon="-0.03221">
        <ele>427</ele>
        <time>2019-06-14T20:21:11Z</time>
      </trkpt>
      <trkpt lat="43.06408" lon="-0.03195">
        <ele>430</ele>
        <time>2019-06-14T20:21:12Z</time>
      </trkpt>
      <trkpt lat="43.064" lon="-0.03172">
        <ele>431</ele>
        <time>2019-06-14T20:21:13Z</time>
      </trkpt>
      <trkpt lat="43.06387" lon="-0.03153">
        <ele>431</ele>
        <time>2019-06-14T20:21:14Z</time>
      </trkpt>
      <trkpt lat="43.06376" lon="-0.0313">
        <ele>432</ele>
        <time>2019-06-14T20:21:15Z</time>
      </trkpt>
      <trkpt lat="43.06363" lon="-0.03107">
        <ele>430</ele>
        <time>2019-06-14T20:21:16Z</time>
      </trkpt>
      <trkpt lat="43.06349" lon="-0.03086">
        <ele>428</ele>
        <time>2019-06-14T20:21:17Z</time>
      </trkpt>
      <trkpt lat="43.06337" lon="-0.03066">
        <ele>428</ele>
        <time>2019-06-14T20:21:18Z</time>
      </trkpt>
      <trkpt lat="43.06321" lon="-0.03045">
        <ele>431</ele>
        <time>2019-06-14T20:21:19Z</time>
      </trkpt>
      <trkpt lat="43.06307" lon="-0.0303">
        <ele>432</ele>
        <time>2019-06-14T20:21:20Z</time>
      </trkpt>
      <trkpt lat="43.06293" lon="-0.03006">
        <ele>433</ele>
        <time>2019-06-14T20:21:21Z</time>
      </trkpt>
      <trkpt lat="43.06278" lon="-0.02987">
        <ele>433</ele>
        <time>2019-06-14T20:21:22Z</time>
      </trkpt>
      <trkpt lat="43.06264" lon="-0.02969">
        <ele>433</ele>
        <time>2019-06-14T20:21:23Z</time>
      </trkpt>
      <trkpt lat="43.06245" lon="-0.0295">
        <ele>433</ele>
        <time>2019-06-14T20:21:24Z</time>
      </trkpt>
      <trkpt lat="43.06235" lon="-0.02924">
        <ele>437</ele>
        <time>2019-06-14T20:21:25Z</time>
      </trkpt>
      <trkpt lat="43.06225" lon="-0.029">
        <ele>440</ele>
        <time>2019-06-14T20:21:26Z</time>
      </trkpt>
      <trkpt lat="43.0621" lon="-0.02877">
        <ele>442</ele>
        <time>2019-06-14T20:21:27Z</time>
      </trkpt>
      <trkpt lat="43.06195" lon="-0.02862">
        <ele>442</ele>
        <time>2019-06-14T20:21:28Z</time>
      </trkpt>
      <trkpt lat="43.06177" lon="-0.02842">
        <ele>441</ele>
        <time>2019-06-14T20:21:29Z</time>
      </trkpt>
      <trkpt lat="43.0616" lon="-0.02832">
        <ele>440</ele>
        <time>2019-06-14T20:21:30Z</time>
      </trkpt>
      <trkpt lat="43.06137" lon="-0.02829">
        <ele>437</ele>
        <time>2019-06-14T20:21:31Z</time>
      </trkpt>
      <trkpt lat="43.06118" lon="-0.02825">
        <ele>436</ele>
        <time>2019-06-14T20:21:32Z</time>
      </trkpt>
      <trkpt lat="43.06099" lon="-0.02818">
        <ele>435</ele>
        <time>2019-06-14T20:21:33Z</time>
      </trkpt>
      <trkpt lat="43.06078" lon="-0.02808">
        <ele>435</ele>
        <time>2019-06-14T20:21:34Z</time>
      </trkpt>
      <trkpt lat="43.06061" lon="-0.02792">
        <ele>438</ele>
        <time>2019-06-14T20:21:35Z</time>
      </trkpt>
      <trkpt lat="43.06051" lon="-0.02769">
        <ele>440</ele>
        <time>2019-06-14T20:21:36Z</time>
      </trkpt>
      <trkpt lat="43.06041" lon="-0.02746">
        <ele>441</ele>
        <time>2019-06-14T20:21:37Z</time>
      </trkpt>
      <trkpt lat="43.06031" lon="-0.02723">
        <ele>441</ele>
        <time>2019-06-14T20:21:38Z</time>
      </trkpt>
      <trkpt lat="43.0602" lon="-0.02702">
        <ele>441</ele>
        <time>2019-06-14T20:21:39Z</time>
      </trkpt>
      <trkpt lat="43.06007" lon="-0.02677">
        <ele>439</ele>
        <time>2019-06-14T20:21:40Z</time>
      </trkpt>
      <trkpt lat="43.05993" lon="-0.02659">
        <ele>438</ele>
        <time>2019-06-14T20:21:41Z</time>
      </trkpt>
      <trkpt lat="43.05978" lon="-0.02642">
        <ele>439</ele>
        <time>2019-06-14T20:21:42Z</time>
      </trkpt>
      <trkpt lat="43.05962" lon="-0.02629">
        <ele>439</ele>
        <time>2019-06-14T20:21:43Z</time>
      </trkpt>
      <trkpt lat="43.05941" lon="-0.0262">
        <ele>435</ele>
        <time>2019-06-14T20:21:44Z</time>
      </trkpt>
      <trkpt lat="43.05925" lon="-0.02607">
        <ele>432</ele>
        <time>2019-06-14T20:21:45Z</time>
      </trkpt>
      <trkpt lat="43.05911" lon="-0.02583">
        <ele>429</ele>
        <time>2019-06-14T20:21:46Z</time>
      </trkpt>
      <trkpt lat="43.05905" lon="-0.02558">
        <ele>431</ele>
        <time>2019-06-14T20:21:47Z</time>
      </trkpt>
      <trkpt lat="43.05902" lon="-0.02533">
        <ele>432</ele>
        <time>2019-06-14T20:21:48Z</time>
      </trkpt>
      <trkpt lat="43.05899" lon="-0.02501">
        <ele>433</ele>
        <time>2019-06-14T20:21:49Z</time>
      </trkpt>
      <trkpt lat="43.05893" lon="-0.0247">
        <ele>434</ele>
        <time>2019-06-14T20:21:50Z</time>
      </trkpt>
      <trkpt lat="43.05888" lon="-0.02441">
        <ele>436</ele>
        <time>2019-06-14T20:21:51Z</time>
      </trkpt>
      <trkpt lat="43.0587" lon="-0.02433">
        <ele>437</ele>
        <time>2019-06-14T20:21:52Z</time>
      </trkpt>
      <trkpt lat="43.05851" lon="-0.02426">
        <ele>438</ele>
        <time>2019-06-14T20:21:53Z</time>
      </trkpt>
      <trkpt lat="43.05835" lon="-0.02412">
        <ele>439</ele>
        <time>2019-06-14T20:21:54Z</time>
      </trkpt>
      <trkpt lat="43.05827" lon="-0.02434">
        <ele>442</ele>
        <time>2019-06-14T20:21:55Z</time>
      </trkpt>
      <trkpt lat="43.05817" lon="-0.02456">
        <ele>447</ele>
        <time>2019-06-14T20:21:56Z</time>
      </trkpt>
      <trkpt lat="43.05804" lon="-0.02479">
        <ele>453</ele>
        <time>2019-06-14T20:21:57Z</time>
      </trkpt>
      <trkpt lat="43.0579" lon="-0.02494">
        <ele>460</ele>
        <time>2019-06-14T20:21:58Z</time>
      </trkpt>
      <trkpt lat="43.05777" lon="-0.02516">
        <ele>468</ele>
        <time>2019-06-14T20:21:59Z</time>
      </trkpt>
      <trkpt lat="43.05771" lon="-0.02541">
        <ele>472</ele>
        <time>2019-06-14T20:22:00Z</time>
      </trkpt>
      <trkpt lat="43.05767" lon="-0.02566">
        <ele>475</ele>
        <time>2019-06-14T20:22:01Z</time>
      </trkpt>
      <trkpt lat="43.0576" lon="-0.02542">
        <ele>478</ele>
        <time>2019-06-14T20:22:02Z</time>
      </trkpt>
      <trkpt lat="43.0576" lon="-0.02517">
        <ele>476</ele>
        <time>2019-06-14T20:22:03Z</time>
      </trkpt>
      <trkpt lat="43.05756" lon="-0.02492">
        <ele>477</ele>
        <time>2019-06-14T20:22:04Z</time>
      </trkpt>
      <trkpt lat="43.0575" lon="-0.02469">
        <ele>479</ele>
        <time>2019-06-14T20:22:05Z</time>
      </trkpt>
      <trkpt lat="43.05746" lon="-0.02443">
        <ele>480</ele>
        <time>2019-06-14T20:22:06Z</time>
      </trkpt>
      <trkpt lat="43.0573" lon="-0.0243">
        <ele>489</ele>
        <time>2019-06-14T20:22:07Z</time>
      </trkpt>
      <trkpt lat="43.05715" lon="-0.02411">
        <ele>496</ele>
        <time>2019-06-14T20:22:08Z</time>
      </trkpt>
      <trkpt lat="43.05704" lon="-0.02432">
        <ele>503</ele>
        <time>2019-06-14T20:22:09Z</time>
      </trkpt>
      <trkpt lat="43.0569" lon="-0.02414">
        <ele>509</ele>
        <time>2019-06-14T20:22:10Z</time>
      </trkpt>
      <trkpt lat="43.05688" lon="-0.02388">
        <ele>508</ele>
        <time>2019-06-14T20:22:11Z</time>
      </trkpt>
      <trkpt lat="43.05688" lon="-0.02361">
        <ele>505</ele>
        <time>2019-06-14T20:22:12Z</time>
      </trkpt>
      <trkpt lat="43.05679" lon="-0.02336">
        <ele>506</ele>
        <time>2019-06-14T20:22:13Z</time>
      </trkpt>
      <trkpt lat="43.05665" lon="-0.0232">
        <ele>512</ele>
        <time>2019-06-14T20:22:14Z</time>
      </trkpt>
      <trkpt lat="43.05657" lon="-0.02294">
        <ele>515</ele>
        <time>2019-06-14T20:22:15Z</time>
      </trkpt>
      <trkpt lat="43.05657" lon="-0.02267">
        <ele>513</ele>
        <time>2019-06-14T20:22:16Z</time>
      </trkpt>
      <trkpt lat="43.05655" lon="-0.02239">
        <ele>511</ele>
        <time>2019-06-14T20:22:17Z</time>
      </trkpt>
      <trkpt lat="43.05651" lon="-0.02212">
        <ele>509</ele>
        <time>2019-06-14T20:22:18Z</time>
      </trkpt>
      <trkpt lat="43.0565" lon="-0.02185">
        <ele>507</ele>
        <time>2019-06-14T20:22:19Z</time>
      </trkpt>
      <trkpt lat="43.05644" lon="-0.02159">
        <ele>505</ele>
        <time>2019-06-14T20:22:20Z</time>
      </trkpt>
      <trkpt lat="43.0563" lon="-0.02141">
        <ele>506</ele>
        <time>2019-06-14T20:22:21Z</time>
      </trkpt>
      <trkpt lat="43.05615" lon="-0.02125">
        <ele>508</ele>
        <time>2019-06-14T20:22:22Z</time>
      </trkpt>
      <trkpt lat="43.05595" lon="-0.02126">
        <ele>515</ele>
        <time>2019-06-14T20:22:23Z</time>
      </trkpt>
      <trkpt lat="43.05578" lon="-0.02133">
        <ele>522</ele>
        <time>2019-06-14T20:22:24Z</time>
      </trkpt>
      <trkpt lat="43.05558" lon="-0.02137">
        <ele>527</ele>
        <time>2019-06-14T20:22:25Z</time>
      </trkpt>
      <trkpt lat="43.05538" lon="-0.02131">
        <ele>531</ele>
        <time>2019-06-14T20:22:26Z</time>
      </trkpt>
      <trkpt lat="43.05521" lon="-0.02122">
        <ele>534</ele>
        <time>2019-06-14T20:22:27Z</time>
      </trkpt>
      <trkpt lat="43.05511" lon="-0.02101">
        <ele>533</ele>
        <time>2019-06-14T20:22:28Z</time>
      </trkpt>
      <trkpt lat="43.05495" lon="-0.0208">
        <ele>534</ele>
        <time>2019-06-14T20:22:29Z</time>
      </trkpt>
      <trkpt lat="43.05493" lon="-0.02052">
        <ele>531</ele>
        <time>2019-06-14T20:22:30Z</time>
      </trkpt>
      <trkpt lat="43.05491" lon="-0.02026">
        <ele>528</ele>
        <time>2019-06-14T20:22:31Z</time>
      </trkpt>
      <trkpt lat="43.0549" lon="-0.01999">
        <ele>525</ele>
        <time>2019-06-14T20:22:32Z</time>
      </trkpt>
      <trkpt lat="43.05485" lon="-0.01973">
        <ele>520</ele>
        <time>2019-06-14T20:22:33Z</time>
      </trkpt>
      <trkpt lat="43.05468" lon="-0.01955">
        <ele>520</ele>
        <time>2019-06-14T20:22:34Z</time>
      </trkpt>
      <trkpt lat="43.05451" lon="-0.01942">
        <ele>520</ele>
        <time>2019-06-14T20:22:35Z</time>
      </trkpt>
      <trkpt lat="43.05433" lon="-0.01928">
        <ele>520</ele>
        <time>2019-06-14T20:22:36Z</time>
      </trkpt>
      <trkpt lat="43.05417" lon="-0.01911">
        <ele>520</ele>
        <time>2019-06-14T20:22:37Z</time>
      </trkpt>
      <trkpt lat="43.05399" lon="-0.01907">
        <ele>522</ele>
        <time>2019-06-14T20:22:38Z</time>
      </trkpt>
      <trkpt lat="43.05379" lon="-0.01913">
        <ele>525</ele>
        <time>2019-06-14T20:22:39Z</time>
      </trkpt>
      <trkpt lat="43.05362" lon="-0.01919">
        <ele>528</ele>
        <time>2019-06-14T20:22:40Z</time>
      </trkpt>
      <trkpt lat="43.05342" lon="-0.01926">
        <ele>532</ele>
        <time>2019-06-14T20:22:41Z</time>
      </trkpt>
      <trkpt lat="43.05323" lon="-0.01924">
        <ele>535</ele>
        <time>2019-06-14T20:22:42Z</time>
      </trkpt>
      <trkpt lat="43.05312" lon="-0.01904">
        <ele>537</ele>
        <time>2019-06-14T20:22:43Z</time>
      </trkpt>
      <trkpt lat="43.05294" lon="-0.01896">
        <ele>541</ele>
        <time>2019-06-14T20:22:44Z</time>
      </trkpt>
      <trkpt lat="43.05304" lon="-0.01874">
        <ele>541</ele>
        <time>2019-06-14T20:22:45Z</time>
      </trkpt>
      <trkpt lat="43.05318" lon="-0.01856">
        <ele>541</ele>
        <time>2019-06-14T20:22:46Z</time>
      </trkpt>
      <trkpt lat="43.05333" lon="-0.01836">
        <ele>542</ele>
        <time>2019-06-14T20:22:47Z</time>
      </trkpt>
      <trkpt lat="43.05349" lon="-0.01816">
        <ele>538</ele>
        <time>2019-06-14T20:22:48Z</time>
      </trkpt>
      <trkpt lat="43.05354" lon="-0.01792">
        <ele>539</ele>
        <time>2019-06-14T20:22:49Z</time>
      </trkpt>
      <trkpt lat="43.05337" lon="-0.01807">
        <ele>543</ele>
        <time>2019-06-14T20:22:50Z</time>
      </trkpt>
      <trkpt lat="43.05333" lon="-0.0178">
        <ele>547</ele>
        <time>2019-06-14T20:22:51Z</time>
      </trkpt>
      <trkpt lat="43.05332" lon="-0.01755">
        <ele>550</ele>
        <time>2019-06-14T20:22:52Z</time>
      </trkpt>
      <trkpt lat="43.0533" lon="-0.01727">
        <ele>552</ele>
        <time>2019-06-14T20:22:53Z</time>
      </trkpt>
      <trkpt lat="43.05321" lon="-0.01705">
        <ele>556</ele>
        <time>2019-06-14T20:22:54Z</time>
      </trkpt>
      <trkpt lat="43.05312" lon="-0.01681">
        <ele>561</ele>
        <time>2019-06-14T20:22:55Z</time>
      </trkpt>
      <trkpt lat="43.05305" lon="-0.01656">
        <ele>564</ele>
        <time>2019-06-14T20:22:56Z</time>
      </trkpt>
      <trkpt lat="43.05299" lon="-0.01632">
        <ele>567</ele>
        <time>2019-06-14T20:22:57Z</time>
      </trkpt>
      <trkpt lat="43.0529" lon="-0.0161">
        <ele>571</ele>
        <time>2019-06-14T20:22:58Z</time>
      </trkpt>
      <trkpt lat="43.0528" lon="-0.01588">
        <ele>575</ele>
        <time>2019-06-14T20:22:59Z</time>
      </trkpt>
      <trkpt lat="43.05266" lon="-0.01568">
        <ele>579</ele>
        <time>2019-06-14T20:23:00Z</time>
      </trkpt>
      <trkpt lat="43.05257" lon="-0.01544">
        <ele>580</ele>
        <time>2019-06-14T20:23:01Z</time>
      </trkpt>
      <trkpt lat="43.05247" lon="-0.0152">
        <ele>582</ele>
        <time>2019-06-14T20:23:02Z</time>
      </trkpt>
      <trkpt lat="43.05239" lon="-0.01496">
        <ele>581</ele>
        <time>2019-06-14T20:23:03Z</time>
      </trkpt>
      <trkpt lat="43.05223" lon="-0.01482">
        <ele>581</ele>
        <time>2019-06-14T20:23:04Z</time>
      </trkpt>
      <trkpt lat="43.05207" lon="-0.01493">
        <ele>586</ele>
        <time>2019-06-14T20:23:05Z</time>
      </trkpt>
      <trkpt lat="43.05189" lon="-0.01495">
        <ele>589</ele>
        <time>2019-06-14T20:23:06Z</time>
      </trkpt>
      <trkpt lat="43.05177" lon="-0.01473">
        <ele>587</ele>
        <time>2019-06-14T20:23:07Z</time>
      </trkpt>
      <trkpt lat="43.05158" lon="-0.01465">
        <ele>587</ele>
        <time>2019-06-14T20:23:08Z</time>
      </trkpt>
      <trkpt lat="43.05138" lon="-0.01473">
        <ele>588</ele>
        <time>2019-06-14T20:23:09Z</time>
      </trkpt>
      <trkpt lat="43.05114" lon="-0.01471">
        <ele>587</ele>
        <time>2019-06-14T20:23:10Z</time>
      </trkpt>
      <trkpt lat="43.05091" lon="-0.01464">
        <ele>586</ele>
        <time>2019-06-14T20:23:11Z</time>
      </trkpt>
      <trkpt lat="43.05074" lon="-0.01455">
        <ele>588</ele>
        <time>2019-06-14T20:23:12Z</time>
      </trkpt>
      <trkpt lat="43.0506" lon="-0.01433">
        <ele>591</ele>
        <time>2019-06-14T20:23:13Z</time>
      </trkpt>
      <trkpt lat="43.05053" lon="-0.01409">
        <ele>593</ele>
        <time>2019-06-14T20:23:14Z</time>
      </trkpt>
      <trkpt lat="43.05047" lon="-0.01385">
        <ele>595</ele>
        <time>2019-06-14T20:23:15Z</time>
      </trkpt>
      <trkpt lat="43.0504" lon="-0.0136">
        <ele>597</ele>
        <time>2019-06-14T20:23:16Z</time>
      </trkpt>
      <trkpt lat="43.05033" lon="-0.01337">
        <ele>600</ele>
        <time>2019-06-14T20:23:17Z</time>
      </trkpt>
      <trkpt lat="43.05023" lon="-0.01314">
        <ele>603</ele>
        <time>2019-06-14T20:23:18Z</time>
      </trkpt>
      <trkpt lat="43.05013" lon="-0.01292">
        <ele>606</ele>
        <time>2019-06-14T20:23:19Z</time>
      </trkpt>
      <trkpt lat="43.05004" lon="-0.01269">
        <ele>609</ele>
        <time>2019-06-14T20:23:20Z</time>
      </trkpt>
      <trkpt lat="43.04992" lon="-0.01249">
        <ele>611</ele>
        <time>2019-06-14T20:23:21Z</time>
      </trkpt>
      <trkpt lat="43.04974" lon="-0.01236">
        <ele>610</ele>
        <time>2019-06-14T20:23:22Z</time>
      </trkpt>
      <trkpt lat="43.04955" lon="-0.0124">
        <ele>613</ele>
        <time>2019-06-14T20:23:23Z</time>
      </trkpt>
      <trkpt lat="43.04943" lon="-0.0126">
        <ele>616</ele>
        <time>2019-06-14T20:23:24Z</time>
      </trkpt>
      <trkpt lat="43.04932" lon="-0.01237">
        <ele>614</ele>
        <time>2019-06-14T20:23:25Z</time>
      </trkpt>
      <trkpt lat="43.04913" lon="-0.0123">
        <ele>615</ele>
        <time>2019-06-14T20:23:26Z</time>
      </trkpt>
      <trkpt lat="43.04895" lon="-0.01235">
        <ele>616</ele>
        <time>2019-06-14T20:23:27Z</time>
      </trkpt>
      <trkpt lat="43.04877" lon="-0.01235">
        <ele>617</ele>
        <time>2019-06-14T20:23:28Z</time>
      </trkpt>
      <trkpt lat="43.04858" lon="-0.01229">
        <ele>618</ele>
        <time>2019-06-14T20:23:29Z</time>
      </trkpt>
      <trkpt lat="43.04837" lon="-0.01223">
        <ele>618</ele>
        <time>2019-06-14T20:23:30Z</time>
      </trkpt>
      <trkpt lat="43.04819" lon="-0.01229">
        <ele>622</ele>
        <time>2019-06-14T20:23:31Z</time>
      </trkpt>
      <trkpt lat="43.048" lon="-0.01221">
        <ele>625</ele>
        <time>2019-06-14T20:23:32Z</time>
      </trkpt>
      <trkpt lat="43.04782" lon="-0.01211">
        <ele>628</ele>
        <time>2019-06-14T20:23:33Z</time>
      </trkpt>
      <trkpt lat="43.04765" lon="-0.012">
        <ele>631</ele>
        <time>2019-06-14T20:23:34Z</time>
      </trkpt>
      <trkpt lat="43.04748" lon="-0.01187">
        <ele>634</ele>
        <time>2019-06-14T20:23:35Z</time>
      </trkpt>
      <trkpt lat="43.04731" lon="-0.0117">
        <ele>636</ele>
        <time>2019-06-14T20:23:36Z</time>
      </trkpt>
      <trkpt lat="43.04711" lon="-0.01162">
        <ele>639</ele>
        <time>2019-06-14T20:23:37Z</time>
      </trkpt>
      <trkpt lat="43.04693" lon="-0.01158">
        <ele>643</ele>
        <time>2019-06-14T20:23:38Z</time>
      </trkpt>
      <trkpt lat="43.04675" lon="-0.0115">
        <ele>646</ele>
        <time>2019-06-14T20:23:39Z</time>
      </trkpt>
      <trkpt lat="43.04658" lon="-0.01137">
        <ele>650</ele>
        <time>2019-06-14T20:23:40Z</time>
      </trkpt>
      <trkpt lat="43.04646" lon="-0.01116">
        <ele>652</ele>
        <time>2019-06-14T20:23:41Z</time>
      </trkpt>
      <trkpt lat="43.04637" lon="-0.01094">
        <ele>654</ele>
        <time>2019-06-14T20:23:42Z</time>
      </trkpt>
      <trkpt lat="43.04639" lon="-0.01069">
        <ele>654</ele>
        <time>2019-06-14T20:23:43Z</time>
      </trkpt>
      <trkpt lat="43.04639" lon="-0.01043">
        <ele>658</ele>
        <time>2019-06-14T20:23:44Z</time>
      </trkpt>
      <trkpt lat="43.04642" lon="-0.01018">
        <ele>661</ele>
        <time>2019-06-14T20:23:45Z</time>
      </trkpt>
      <trkpt lat="43.04634" lon="-0.00996">
        <ele>667</ele>
        <time>2019-06-14T20:23:46Z</time>
      </trkpt>
      <trkpt lat="43.04618" lon="-0.00981">
        <ele>675</ele>
        <time>2019-06-14T20:23:47Z</time>
      </trkpt>
      <trkpt lat="43.046" lon="-0.00972">
        <ele>681</ele>
        <time>2019-06-14T20:23:48Z</time>
      </trkpt>
      <trkpt lat="43.04582" lon="-0.00979">
        <ele>684</ele>
        <time>2019-06-14T20:23:49Z</time>
      </trkpt>
      <trkpt lat="43.04565" lon="-0.00989">
        <ele>690</ele>
        <time>2019-06-14T20:23:50Z</time>
      </trkpt>
      <trkpt lat="43.04547" lon="-0.01001">
        <ele>696</ele>
        <time>2019-06-14T20:23:51Z</time>
      </trkpt>
      <trkpt lat="43.04531" lon="-0.01015">
        <ele>702</ele>
        <time>2019-06-14T20:23:52Z</time>
      </trkpt>
      <trkpt lat="43.04519" lon="-0.01035">
        <ele>705</ele>
        <time>2019-06-14T20:23:53Z</time>
      </trkpt>
      <trkpt lat="43.04516" lon="-0.01061">
        <ele>703</ele>
        <time>2019-06-14T20:23:54Z</time>
      </trkpt>
      <trkpt lat="43.04501" lon="-0.01076">
        <ele>708</ele>
        <time>2019-06-14T20:23:55Z</time>
      </trkpt>
      <trkpt lat="43.0449" lon="-0.01096">
        <ele>713</ele>
        <time>2019-06-14T20:23:56Z</time>
      </trkpt>
      <trkpt lat="43.04476" lon="-0.01114">
        <ele>720</ele>
        <time>2019-06-14T20:23:57Z</time>
      </trkpt>
      <trkpt lat="43.04462" lon="-0.01097">
        <ele>729</ele>
        <time>2019-06-14T20:23:58Z</time>
      </trkpt>
      <trkpt lat="43.04464" lon="-0.01072">
        <ele>729</ele>
        <time>2019-06-14T20:23:59Z</time>
      </trkpt>
      <trkpt lat="43.04447" lon="-0.01062">
        <ele>740</ele>
        <time>2019-06-14T20:24:00Z</time>
      </trkpt>
      <trkpt lat="43.04452" lon="-0.01036">
        <ele>740</ele>
        <time>2019-06-14T20:24:01Z</time>
      </trkpt>
      <trkpt lat="43.04445" lon="-0.01013">
        <ele>747</ele>
        <time>2019-06-14T20:24:02Z</time>
      </trkpt>
      <trkpt lat="43.04441" lon="-0.00988">
        <ele>752</ele>
        <time>2019-06-14T20:24:03Z</time>
      </trkpt>
      <trkpt lat="43.04438" lon="-0.00963">
        <ele>758</ele>
        <time>2019-06-14T20:24:04Z</time>
      </trkpt>
      <trkpt lat="43.0444" lon="-0.00936">
        <ele>761</ele>
        <time>2019-06-14T20:24:05Z</time>
      </trkpt>
      <trkpt lat="43.04446" lon="-0.00911">
        <ele>763</ele>
        <time>2019-06-14T20:24:06Z</time>
      </trkpt>
      <trkpt lat="43.04448" lon="-0.00884">
        <ele>766</ele>
        <time>2019-06-14T20:24:07Z</time>
      </trkpt>
      <trkpt lat="43.0445" lon="-0.00859">
        <ele>769</ele>
        <time>2019-06-14T20:24:08Z</time>
      </trkpt>
      <trkpt lat="43.0445" lon="-0.00834">
        <ele>774</ele>
        <time>2019-06-14T20:24:09Z</time>
      </trkpt>
      <trkpt lat="43.04431" lon="-0.00835">
        <ele>781</ele>
        <time>2019-06-14T20:24:10Z</time>
      </trkpt>
      <trkpt lat="43.04428" lon="-0.0081">
        <ele>783</ele>
        <time>2019-06-14T20:24:11Z</time>
      </trkpt>
      <trkpt lat="43.04424" lon="-0.00786">
        <ele>786</ele>
        <time>2019-06-14T20:24:12Z</time>
      </trkpt>
      <trkpt lat="43.04407" lon="-0.00778">
        <ele>793</ele>
        <time>2019-06-14T20:24:13Z</time>
      </trkpt>
      <trkpt lat="43.04401" lon="-0.00802">
        <ele>795</ele>
        <time>2019-06-14T20:24:14Z</time>
      </trkpt>
      <trkpt lat="43.04391" lon="-0.00825">
        <ele>799</ele>
        <time>2019-06-14T20:24:15Z</time>
      </trkpt>
      <trkpt lat="43.04379" lon="-0.00845">
        <ele>803</ele>
        <time>2019-06-14T20:24:16Z</time>
      </trkpt>
      <trkpt lat="43.04364" lon="-0.00862">
        <ele>808</ele>
        <time>2019-06-14T20:24:17Z</time>
      </trkpt>
      <trkpt lat="43.04352" lon="-0.0088">
        <ele>812</ele>
        <time>2019-06-14T20:24:18Z</time>
      </trkpt>
      <trkpt lat="43.0434" lon="-0.009">
        <ele>817</ele>
        <time>2019-06-14T20:24:19Z</time>
      </trkpt>
      <trkpt lat="43.04329" lon="-0.0092">
        <ele>821</ele>
        <time>2019-06-14T20:24:20Z</time>
      </trkpt>
      <trkpt lat="43.04318" lon="-0.0094">
        <ele>824</ele>
        <time>2019-06-14T20:24:21Z</time>
      </trkpt>
      <trkpt lat="43.04305" lon="-0.00958">
        <ele>829</ele>
        <time>2019-06-14T20:24:22Z</time>
      </trkpt>
      <trkpt lat="43.0429" lon="-0.00976">
        <ele>834</ele>
        <time>2019-06-14T20:24:23Z</time>
      </trkpt>
      <trkpt lat="43.04278" lon="-0.00994">
        <ele>838</ele>
        <time>2019-06-14T20:24:24Z</time>
      </trkpt>
      <trkpt lat="43.04267" lon="-0.01015">
        <ele>842</ele>
        <time>2019-06-14T20:24:25Z</time>
      </trkpt>
      <trkpt lat="43.04254" lon="-0.01033">
        <ele>846</ele>
        <time>2019-06-14T20:24:26Z</time>
      </trkpt>
      <trkpt lat="43.04253" lon="-0.01008">
        <ele>850</ele>
        <time>2019-06-14T20:24:27Z</time>
      </trkpt>
      <trkpt lat="43.04258" lon="-0.00984">
        <ele>851</ele>
        <time>2019-06-14T20:24:28Z</time>
      </trkpt>
      <trkpt lat="43.04263" lon="-0.0096">
        <ele>851</ele>
        <time>2019-06-14T20:24:29Z</time>
      </trkpt>
      <trkpt lat="43.04266" lon="-0.00934">
        <ele>853</ele>
        <time>2019-06-14T20:24:30Z</time>
      </trkpt>
      <trkpt lat="43.04263" lon="-0.00908">
        <ele>857</ele>
        <time>2019-06-14T20:24:31Z</time>
      </trkpt>
      <trkpt lat="43.04251" lon="-0.00926">
        <ele>863</ele>
        <time>2019-06-14T20:24:32Z</time>
      </trkpt>
      <trkpt lat="43.04236" lon="-0.00941">
        <ele>868</ele>
        <time>2019-06-14T20:24:33Z</time>
      </trkpt>
      <trkpt lat="43.04222" lon="-0.00958">
        <ele>873</ele>
        <time>2019-06-14T20:24:34Z</time>
      </trkpt>
      <trkpt lat="43.04206" lon="-0.00973">
        <ele>879</ele>
        <time>2019-06-14T20:24:35Z</time>
      </trkpt>
      <trkpt lat="43.04189" lon="-0.00987">
        <ele>885</ele>
        <time>2019-06-14T20:24:36Z</time>
      </trkpt>
      <trkpt lat="43.04188" lon="-0.00961">
        <ele>889</ele>
        <time>2019-06-14T20:24:37Z</time>
      </trkpt>
      <trkpt lat="43.04189" lon="-0.00936">
        <ele>893</ele>
        <time>2019-06-14T20:24:38Z</time>
      </trkpt>
      <trkpt lat="43.04194" lon="-0.00911">
        <ele>893</ele>
        <time>2019-06-14T20:24:39Z</time>
      </trkpt>
      <trkpt lat="43.04199" lon="-0.00886">
        <ele>891</ele>
        <time>2019-06-14T20:24:40Z</time>
      </trkpt>
      <trkpt lat="43.04181" lon="-0.00887">
        <ele>901</ele>
        <time>2019-06-14T20:24:41Z</time>
      </trkpt>
      <trkpt lat="43.04166" lon="-0.00901">
        <ele>908</ele>
        <time>2019-06-14T20:24:42Z</time>
      </trkpt>
      <trkpt lat="43.04151" lon="-0.00917">
        <ele>913</ele>
        <time>2019-06-14T20:24:43Z</time>
      </trkpt>
      <trkpt lat="43.04137" lon="-0.00937">
        <ele>915</ele>
        <time>2019-06-14T20:24:44Z</time>
      </trkpt>
      <trkpt lat="43.04123" lon="-0.00957">
        <ele>919</ele>
        <time>2019-06-14T20:24:45Z</time>
      </trkpt>
      <trkpt lat="43.04109" lon="-0.00975">
        <ele>923</ele>
        <time>2019-06-14T20:24:46Z</time>
      </trkpt>
      <trkpt lat="43.04096" lon="-0.00994">
        <ele>927</ele>
        <time>2019-06-14T20:24:47Z</time>
      </trkpt>
      <trkpt lat="43.04083" lon="-0.01012">
        <ele>932</ele>
        <time>2019-06-14T20:24:48Z</time>
      </trkpt>
      <trkpt lat="43.04066" lon="-0.01025">
        <ele>930</ele>
        <time>2019-06-14T20:24:49Z</time>
      </trkpt>
      <trkpt lat="43.04051" lon="-0.01038">
        <ele>929</ele>
        <time>2019-06-14T20:24:50Z</time>
      </trkpt>
      <trkpt lat="43.04043" lon="-0.01061">
        <ele>930</ele>
        <time>2019-06-14T20:24:51Z</time>
      </trkpt>
      <trkpt lat="43.0404" lon="-0.01087">
        <ele>930</ele>
        <time>2019-06-14T20:24:52Z</time>
      </trkpt>
      <trkpt lat="43.04039" lon="-0.01113">
        <ele>931</ele>
        <time>2019-06-14T20:24:53Z</time>
      </trkpt>
      <trkpt lat="43.0404" lon="-0.01139">
        <ele>931</ele>
        <time>2019-06-14T20:24:54Z</time>
      </trkpt>
      <trkpt lat="43.04039" lon="-0.01164">
        <ele>932</ele>
        <time>2019-06-14T20:24:55Z</time>
      </trkpt>
      <trkpt lat="43.04046" lon="-0.01187">
        <ele>931</ele>
        <time>2019-06-14T20:24:56Z</time>
      </trkpt>
      <trkpt lat="43.04052" lon="-0.01211">
        <ele>931</ele>
        <time>2019-06-14T20:24:57Z</time>
      </trkpt>
      <trkpt lat="43.04055" lon="-0.01237">
        <ele>931</ele>
        <time>2019-06-14T20:24:58Z</time>
      </trkpt>
      <trkpt lat="43.04058" lon="-0.01262">
        <ele>931</ele>
        <time>2019-06-14T20:24:59Z</time>
      </trkpt>
      <trkpt lat="43.04059" lon="-0.0129">
        <ele>932</ele>
        <time>2019-06-14T20:25:00Z</time>
      </trkpt>
      <trkpt lat="43.04065" lon="-0.01316">
        <ele>934</ele>
        <time>2019-06-14T20:25:01Z</time>
      </trkpt>
      <trkpt lat="43.04068" lon="-0.01341">
        <ele>937</ele>
        <time>2019-06-14T20:25:02Z</time>
      </trkpt>
      <trkpt lat="43.0406" lon="-0.01364">
        <ele>937</ele>
        <time>2019-06-14T20:25:03Z</time>
      </trkpt>
      <trkpt lat="43.04046" lon="-0.01388">
        <ele>937</ele>
        <time>2019-06-14T20:25:04Z</time>
      </trkpt>
      <trkpt lat="43.04037" lon="-0.0141">
        <ele>938</ele>
        <time>2019-06-14T20:25:05Z</time>
      </trkpt>
      <trkpt lat="43.04047" lon="-0.01388">
        <ele>937</ele>
        <time>2019-06-14T20:25:06Z</time>
      </trkpt>
      <trkpt lat="43.04058" lon="-0.01368">
        <ele>938</ele>
        <time>2019-06-14T20:25:07Z</time>
      </trkpt>
      <trkpt lat="43.04075" lon="-0.01381">
        <ele>943</ele>
        <time>2019-06-14T20:25:08Z</time>
      </trkpt>
      <trkpt lat="43.04075" lon="-0.01407">
        <ele>946</ele>
        <time>2019-06-14T20:25:09Z</time>
      </trkpt>
      <trkpt lat="43.04078" lon="-0.01434">
        <ele>951</ele>
        <time>2019-06-14T20:25:10Z</time>
      </trkpt>
      <trkpt lat="43.04077" lon="-0.01461">
        <ele>955</ele>
        <time>2019-06-14T20:25:11Z</time>
      </trkpt>
      <trkpt lat="43.04068" lon="-0.01485">
        <ele>958</ele>
        <time>2019-06-14T20:25:12Z</time>
      </trkpt>
      <trkpt lat="43.04056" lon="-0.01507">
        <ele>960</ele>
        <time>2019-06-14T20:25:13Z</time>
      </trkpt>
      <trkpt lat="43.04048" lon="-0.01532">
        <ele>962</ele>
        <time>2019-06-14T20:25:14Z</time>
      </trkpt>
      <trkpt lat="43.0404" lon="-0.01554">
        <ele>965</ele>
        <time>2019-06-14T20:25:15Z</time>
      </trkpt>
      <trkpt lat="43.04031" lon="-0.01579">
        <ele>969</ele>
        <time>2019-06-14T20:25:16Z</time>
      </trkpt>
      <trkpt lat="43.0403" lon="-0.01611">
        <ele>969</ele>
        <time>2019-06-14T20:25:17Z</time>
      </trkpt>
      <trkpt lat="43.04021" lon="-0.01638">
        <ele>970</ele>
        <time>2019-06-14T20:25:18Z</time>
      </trkpt>
      <trkpt lat="43.04015" lon="-0.01664">
        <ele>972</ele>
        <time>2019-06-14T20:25:19Z</time>
      </trkpt>
      <trkpt lat="43.04006" lon="-0.01691">
        <ele>974</ele>
        <time>2019-06-14T20:25:20Z</time>
      </trkpt>
      <trkpt lat="43.03995" lon="-0.01715">
        <ele>975</ele>
        <time>2019-06-14T20:25:21Z</time>
      </trkpt>
      <trkpt lat="43.03984" lon="-0.01739">
        <ele>973</ele>
        <time>2019-06-14T20:25:22Z</time>
      </trkpt>
      <trkpt lat="43.03971" lon="-0.01756">
        <ele>972</ele>
        <time>2019-06-14T20:25:23Z</time>
      </trkpt>
      <trkpt lat="43.03957" lon="-0.01773">
        <ele>971</ele>
        <time>2019-06-14T20:25:24Z</time>
      </trkpt>
      <trkpt lat="43.03941" lon="-0.01792">
        <ele>972</ele>
        <time>2019-06-14T20:25:25Z</time>
      </trkpt>
      <trkpt lat="43.03928" lon="-0.01815">
        <ele>974</ele>
        <time>2019-06-14T20:25:26Z</time>
      </trkpt>
      <trkpt lat="43.03919" lon="-0.01839">
        <ele>977</ele>
        <time>2019-06-14T20:25:27Z</time>
      </trkpt>
      <trkpt lat="43.03915" lon="-0.01863">
        <ele>979</ele>
        <time>2019-06-14T20:25:28Z</time>
      </trkpt>
      <trkpt lat="43.03906" lon="-0.01886">
        <ele>979</ele>
        <time>2019-06-14T20:25:29Z</time>
      </trkpt>
      <trkpt lat="43.03895" lon="-0.01906">
        <ele>980</ele>
        <time>2019-06-14T20:25:30Z</time>
      </trkpt>
      <trkpt lat="43.03889" lon="-0.01931">
        <ele>981</ele>
        <time>2019-06-14T20:25:31Z</time>
      </trkpt>
      <trkpt lat="43.03882" lon="-0.01954">
        <ele>981</ele>
        <time>2019-06-14T20:25:32Z</time>
      </trkpt>
      <trkpt lat="43.03869" lon="-0.01974">
        <ele>983</ele>
        <time>2019-06-14T20:25:33Z</time>
      </trkpt>
      <trkpt lat="43.03859" lon="-0.01996">
        <ele>986</ele>
        <time>2019-06-14T20:25:34Z</time>
      </trkpt>
      <trkpt lat="43.03848" lon="-0.02017">
        <ele>988</ele>
        <time>2019-06-14T20:25:35Z</time>
      </trkpt>
      <trkpt lat="43.03837" lon="-0.02041">
        <ele>991</ele>
        <time>2019-06-14T20:25:36Z</time>
      </trkpt>
      <trkpt lat="43.03823" lon="-0.02057">
        <ele>990</ele>
        <time>2019-06-14T20:25:37Z</time>
      </trkpt>
      <trkpt lat="43.03808" lon="-0.02076">
        <ele>988</ele>
        <time>2019-06-14T20:25:38Z</time>
      </trkpt>
      <trkpt lat="43.03798" lon="-0.02096">
        <ele>987</ele>
        <time>2019-06-14T20:25:39Z</time>
      </trkpt>
      <trkpt lat="43.03789" lon="-0.0212">
        <ele>988</ele>
        <time>2019-06-14T20:25:40Z</time>
      </trkpt>
      <trkpt lat="43.03783" lon="-0.02145">
        <ele>989</ele>
        <time>2019-06-14T20:25:41Z</time>
      </trkpt>
      <trkpt lat="43.03773" lon="-0.02167">
        <ele>993</ele>
        <time>2019-06-14T20:25:42Z</time>
      </trkpt>
      <trkpt lat="43.03756" lon="-0.0218">
        <ele>995</ele>
        <time>2019-06-14T20:25:43Z</time>
      </trkpt>
      <trkpt lat="43.03745" lon="-0.02201">
        <ele>996</ele>
        <time>2019-06-14T20:25:44Z</time>
      </trkpt>
      <trkpt lat="43.03734" lon="-0.02223">
        <ele>994</ele>
        <time>2019-06-14T20:25:45Z</time>
      </trkpt>
      <trkpt lat="43.03726" lon="-0.02247">
        <ele>995</ele>
        <time>2019-06-14T20:25:46Z</time>
      </trkpt>
      <trkpt lat="43.03719" lon="-0.0227">
        <ele>996</ele>
        <time>2019-06-14T20:25:47Z</time>
      </trkpt>
      <trkpt lat="43.03712" lon="-0.02295">
        <ele>999</ele>
        <time>2019-06-14T20:25:48Z</time>
      </trkpt>
      <trkpt lat="43.03707" lon="-0.02319">
        <ele>1002</ele>
        <time>2019-06-14T20:25:49Z</time>
      </trkpt>
      <trkpt lat="43.03697" lon="-0.02343">
        <ele>1004</ele>
        <time>2019-06-14T20:25:50Z</time>
      </trkpt>
      <trkpt lat="43.03685" lon="-0.02363">
        <ele>1006</ele>
        <time>2019-06-14T20:25:51Z</time>
      </trkpt>
      <trkpt lat="43.03671" lon="-0.02382">
        <ele>1011</ele>
        <time>2019-06-14T20:25:52Z</time>
      </trkpt>
      <trkpt lat="43.03656" lon="-0.024">
        <ele>1012</ele>
        <time>2019-06-14T20:25:53Z</time>
      </trkpt>
      <trkpt lat="43.03642" lon="-0.02417">
        <ele>1014</ele>
        <time>2019-06-14T20:25:54Z</time>
      </trkpt>
      <trkpt lat="43.03631" lon="-0.02437">
        <ele>1014</ele>
        <time>2019-06-14T20:25:55Z</time>
      </trkpt>
      <trkpt lat="43.0362" lon="-0.02459">
        <ele>1016</ele>
        <time>2019-06-14T20:25:56Z</time>
      </trkpt>
      <trkpt lat="43.03606" lon="-0.02476">
        <ele>1020</ele>
        <time>2019-06-14T20:25:57Z</time>
      </trkpt>
      <trkpt lat="43.03589" lon="-0.02489">
        <ele>1025</ele>
        <time>2019-06-14T20:25:58Z</time>
      </trkpt>
      <trkpt lat="43.03572" lon="-0.02501">
        <ele>1027</ele>
        <time>2019-06-14T20:25:59Z</time>
      </trkpt>
      <trkpt lat="43.03554" lon="-0.02515">
        <ele>1025</ele>
        <time>2019-06-14T20:26:00Z</time>
      </trkpt>
      <trkpt lat="43.03536" lon="-0.02527">
        <ele>1024</ele>
        <time>2019-06-14T20:26:01Z</time>
      </trkpt>
      <trkpt lat="43.03519" lon="-0.02537">
        <ele>1024</ele>
        <time>2019-06-14T20:26:02Z</time>
      </trkpt>
      <trkpt lat="43.03501" lon="-0.02549">
        <ele>1026</ele>
        <time>2019-06-14T20:26:03Z</time>
      </trkpt>
      <trkpt lat="43.03485" lon="-0.02561">
        <ele>1028</ele>
        <time>2019-06-14T20:26:04Z</time>
      </trkpt>
      <trkpt lat="43.03466" lon="-0.02572">
        <ele>1030</ele>
        <time>2019-06-14T20:26:05Z</time>
      </trkpt>
      <trkpt lat="43.0345" lon="-0.02583">
        <ele>1034</ele>
        <time>2019-06-14T20:26:06Z</time>
      </trkpt>
      <trkpt lat="43.03432" lon="-0.02594">
        <ele>1036</ele>
        <time>2019-06-14T20:26:07Z</time>
      </trkpt>
      <trkpt lat="43.03419" lon="-0.02612">
        <ele>1039</ele>
        <time>2019-06-14T20:26:08Z</time>
      </trkpt>
      <trkpt lat="43.03403" lon="-0.02625">
        <ele>1043</ele>
        <time>2019-06-14T20:26:09Z</time>
      </trkpt>
      <trkpt lat="43.03386" lon="-0.02637">
        <ele>1047</ele>
        <time>2019-06-14T20:26:10Z</time>
      </trkpt>
      <trkpt lat="43.03367" lon="-0.02642">
        <ele>1052</ele>
        <time>2019-06-14T20:26:11Z</time>
      </trkpt>
      <trkpt lat="43.03349" lon="-0.02644">
        <ele>1056</ele>
        <time>2019-06-14T20:26:12Z</time>
      </trkpt>
      <trkpt lat="43.03329" lon="-0.02649">
        <ele>1062</ele>
        <time>2019-06-14T20:26:13Z</time>
      </trkpt>
      <trkpt lat="43.03311" lon="-0.02647">
        <ele>1067</ele>
        <time>2019-06-14T20:26:14Z</time>
      </trkpt>
      <trkpt lat="43.03292" lon="-0.02652">
        <ele>1072</ele>
        <time>2019-06-14T20:26:15Z</time>
      </trkpt>
      <trkpt lat="43.03275" lon="-0.02662">
        <ele>1077</ele>
        <time>2019-06-14T20:26:16Z</time>
      </trkpt>
      <trkpt lat="43.03259" lon="-0.02672">
        <ele>1079</ele>
        <time>2019-06-14T20:26:17Z</time>
      </trkpt>
      <trkpt lat="43.0324" lon="-0.02677">
        <ele>1080</ele>
        <time>2019-06-14T20:26:18Z</time>
      </trkpt>
      <trkpt lat="43.03222" lon="-0.02685">
        <ele>1079</ele>
        <time>2019-06-14T20:26:19Z</time>
      </trkpt>
      <trkpt lat="43.03203" lon="-0.02692">
        <ele>1078</ele>
        <time>2019-06-14T20:26:20Z</time>
      </trkpt>
      <trkpt lat="43.03185" lon="-0.02686">
        <ele>1081</ele>
        <time>2019-06-14T20:26:21Z</time>
      </trkpt>
      <trkpt lat="43.03171" lon="-0.02671">
        <ele>1085</ele>
        <time>2019-06-14T20:26:22Z</time>
      </trkpt>
      <trkpt lat="43.03154" lon="-0.02658">
        <ele>1086</ele>
        <time>2019-06-14T20:26:23Z</time>
      </trkpt>
      <trkpt lat="43.03139" lon="-0.0264">
        <ele>1087</ele>
        <time>2019-06-14T20:26:24Z</time>
      </trkpt>
      <trkpt lat="43.03123" lon="-0.02623">
        <ele>1088</ele>
        <time>2019-06-14T20:26:25Z</time>
      </trkpt>
      <trkpt lat="43.03105" lon="-0.02613">
        <ele>1088</ele>
        <time>2019-06-14T20:26:26Z</time>
      </trkpt>
      <trkpt lat="43.03088" lon="-0.02598">
        <ele>1089</ele>
        <time>2019-06-14T20:26:27Z</time>
      </trkpt>
      <trkpt lat="43.03076" lon="-0.02578">
        <ele>1091</ele>
        <time>2019-06-14T20:26:28Z</time>
      </trkpt>
      <trkpt lat="43.03062" lon="-0.02559">
        <ele>1092</ele>
        <time>2019-06-14T20:26:29Z</time>
      </trkpt>
      <trkpt lat="43.03053" lon="-0.02537">
        <ele>1093</ele>
        <time>2019-06-14T20:26:30Z</time>
      </trkpt>
      <trkpt lat="43.03041" lon="-0.02517">
        <ele>1096</ele>
        <time>2019-06-14T20:26:31Z</time>
      </trkpt>
      <trkpt lat="43.03027" lon="-0.02501">
        <ele>1100</ele>
        <time>2019-06-14T20:26:32Z</time>
      </trkpt>
      <trkpt lat="43.03007" lon="-0.02499">
        <ele>1105</ele>
        <time>2019-06-14T20:26:33Z</time>
      </trkpt>
      <trkpt lat="43.02989" lon="-0.02507">
        <ele>1109</ele>
        <time>2019-06-14T20:26:34Z</time>
      </trkpt>
      <trkpt lat="43.02972" lon="-0.02514">
        <ele>1113</ele>
        <time>2019-06-14T20:26:35Z</time>
      </trkpt>
      <trkpt lat="43.02955" lon="-0.02527">
        <ele>1115</ele>
        <time>2019-06-14T20:26:36Z</time>
      </trkpt>
      <trkpt lat="43.02938" lon="-0.02539">
        <ele>1116</ele>
        <time>2019-06-14T20:26:37Z</time>
      </trkpt>
      <trkpt lat="43.02919" lon="-0.02545">
        <ele>1118</ele>
        <time>2019-06-14T20:26:38Z</time>
      </trkpt>
      <trkpt lat="43.02901" lon="-0.02554">
        <ele>1120</ele>
        <time>2019-06-14T20:26:39Z</time>
      </trkpt>
      <trkpt lat="43.02883" lon="-0.02563">
        <ele>1122</ele>
        <time>2019-06-14T20:26:40Z</time>
      </trkpt>
      <trkpt lat="43.02864" lon="-0.02563">
        <ele>1127</ele>
        <time>2019-06-14T20:26:41Z</time>
      </trkpt>
      <trkpt lat="43.02845" lon="-0.02566">
        <ele>1131</ele>
        <time>2019-06-14T20:26:42Z</time>
      </trkpt>
      <trkpt lat="43.02825" lon="-0.02568">
        <ele>1134</ele>
        <time>2019-06-14T20:26:43Z</time>
      </trkpt>
      <trkpt lat="43.02807" lon="-0.02573">
        <ele>1135</ele>
        <time>2019-06-14T20:26:44Z</time>
      </trkpt>
      <trkpt lat="43.02788" lon="-0.02578">
        <ele>1135</ele>
        <time>2019-06-14T20:26:45Z</time>
      </trkpt>
      <trkpt lat="43.02769" lon="-0.02573">
        <ele>1140</ele>
        <time>2019-06-14T20:26:46Z</time>
      </trkpt>
      <trkpt lat="43.02751" lon="-0.0256">
        <ele>1147</ele>
        <time>2019-06-14T20:26:47Z</time>
      </trkpt>
      <trkpt lat="43.02736" lon="-0.02548">
        <ele>1150</ele>
        <time>2019-06-14T20:26:48Z</time>
      </trkpt>
      <trkpt lat="43.02719" lon="-0.02534">
        <ele>1153</ele>
        <time>2019-06-14T20:26:49Z</time>
      </trkpt>
      <trkpt lat="43.02703" lon="-0.02522">
        <ele>1155</ele>
        <time>2019-06-14T20:26:50Z</time>
      </trkpt>
      <trkpt lat="43.02683" lon="-0.02518">
        <ele>1154</ele>
        <time>2019-06-14T20:26:51Z</time>
      </trkpt>
      <trkpt lat="43.0267" lon="-0.02499">
        <ele>1160</ele>
        <time>2019-06-14T20:26:52Z</time>
      </trkpt>
      <trkpt lat="43.02664" lon="-0.02475">
        <ele>1166</ele>
        <time>2019-06-14T20:26:53Z</time>
      </trkpt>
      <trkpt lat="43.02654" lon="-0.02452">
        <ele>1170</ele>
        <time>2019-06-14T20:26:54Z</time>
      </trkpt>
      <trkpt lat="43.02644" lon="-0.0243">
        <ele>1174</ele>
        <time>2019-06-14T20:26:55Z</time>
      </trkpt>
      <trkpt lat="43.02639" lon="-0.02404">
        <ele>1180</ele>
        <time>2019-06-14T20:26:56Z</time>
      </trkpt>
      <trkpt lat="43.02635" lon="-0.02378">
        <ele>1186</ele>
        <time>2019-06-14T20:26:57Z</time>
      </trkpt>
      <trkpt lat="43.02624" lon="-0.02356">
        <ele>1189</ele>
        <time>2019-06-14T20:26:58Z</time>
      </trkpt>
      <trkpt lat="43.02615" lon="-0.02334">
        <ele>1194</ele>
        <time>2019-06-14T20:26:59Z</time>
      </trkpt>
      <trkpt lat="43.02608" lon="-0.0231">
        <ele>1194</ele>
        <time>2019-06-14T20:27:00Z</time>
      </trkpt>
      <trkpt lat="43.02593" lon="-0.02294">
        <ele>1193</ele>
        <time>2019-06-14T20:27:01Z</time>
      </trkpt>
      <trkpt lat="43.02579" lon="-0.02279">
        <ele>1195</ele>
        <time>2019-06-14T20:27:02Z</time>
      </trkpt>
      <trkpt lat="43.02564" lon="-0.02264">
        <ele>1200</ele>
        <time>2019-06-14T20:27:03Z</time>
      </trkpt>
      <trkpt lat="43.02551" lon="-0.02246">
        <ele>1205</ele>
        <time>2019-06-14T20:27:04Z</time>
      </trkpt>
      <trkpt lat="43.02534" lon="-0.02234">
        <ele>1209</ele>
        <time>2019-06-14T20:27:05Z</time>
      </trkpt>
      <trkpt lat="43.02516" lon="-0.02225">
        <ele>1215</ele>
        <time>2019-06-14T20:27:06Z</time>
      </trkpt>
      <trkpt lat="43.02499" lon="-0.02212">
        <ele>1223</ele>
        <time>2019-06-14T20:27:07Z</time>
      </trkpt>
      <trkpt lat="43.0248" lon="-0.02206">
        <ele>1225</ele>
        <time>2019-06-14T20:27:08Z</time>
      </trkpt>
      <trkpt lat="43.02464" lon="-0.02193">
        <ele>1229</ele>
        <time>2019-06-14T20:27:09Z</time>
      </trkpt>
      <trkpt lat="43.02455" lon="-0.02171">
        <ele>1236</ele>
        <time>2019-06-14T20:27:10Z</time>
      </trkpt>
      <trkpt lat="43.02441" lon="-0.02154">
        <ele>1241</ele>
        <time>2019-06-14T20:27:11Z</time>
      </trkpt>
      <trkpt lat="43.02428" lon="-0.02136">
        <ele>1248</ele>
        <time>2019-06-14T20:27:12Z</time>
      </trkpt>
      <trkpt lat="43.02415" lon="-0.02118">
        <ele>1256</ele>
        <time>2019-06-14T20:27:13Z</time>
      </trkpt>
      <trkpt lat="43.024" lon="-0.02103">
        <ele>1261</ele>
        <time>2019-06-14T20:27:14Z</time>
      </trkpt>
      <trkpt lat="43.02387" lon="-0.02085">
        <ele>1268</ele>
        <time>2019-06-14T20:27:15Z</time>
      </trkpt>
      <trkpt lat="43.02376" lon="-0.02064">
        <ele>1272</ele>
        <time>2019-06-14T20:27:16Z</time>
      </trkpt>
      <trkpt lat="43.02362" lon="-0.02048">
        <ele>1277</ele>
        <time>2019-06-14T20:27:17Z</time>
      </trkpt>
      <trkpt lat="43.02346" lon="-0.02035">
        <ele>1284</ele>
        <time>2019-06-14T20:27:18Z</time>
      </trkpt>
      <trkpt lat="43.02331" lon="-0.02022">
        <ele>1291</ele>
        <time>2019-06-14T20:27:19Z</time>
      </trkpt>
      <trkpt lat="43.02314" lon="-0.0201">
        <ele>1298</ele>
        <time>2019-06-14T20:27:20Z</time>
      </trkpt>
      <trkpt lat="43.02322" lon="-0.01988">
        <ele>1301</ele>
        <time>2019-06-14T20:27:21Z</time>
      </trkpt>
      <trkpt lat="43.02304" lon="-0.01978">
        <ele>1306</ele>
        <time>2019-06-14T20:27:22Z</time>
      </trkpt>
      <trkpt lat="43.02286" lon="-0.01971">
        <ele>1311</ele>
        <time>2019-06-14T20:27:23Z</time>
      </trkpt>
      <trkpt lat="43.02277" lon="-0.01948">
        <ele>1318</ele>
        <time>2019-06-14T20:27:24Z</time>
      </trkpt>
      <trkpt lat="43.02261" lon="-0.01933">
        <ele>1326</ele>
        <time>2019-06-14T20:27:25Z</time>
      </trkpt>
      <trkpt lat="43.02246" lon="-0.0192">
        <ele>1333</ele>
        <time>2019-06-14T20:27:26Z</time>
      </trkpt>
      <trkpt lat="43.02234" lon="-0.019">
        <ele>1339</ele>
        <time>2019-06-14T20:27:27Z</time>
      </trkpt>
      <trkpt lat="43.02217" lon="-0.01887">
        <ele>1345</ele>
        <time>2019-06-14T20:27:28Z</time>
      </trkpt>
      <trkpt lat="43.02203" lon="-0.01872">
        <ele>1351</ele>
        <time>2019-06-14T20:27:29Z</time>
      </trkpt>
      <trkpt lat="43.02191" lon="-0.01853">
        <ele>1358</ele>
        <time>2019-06-14T20:27:30Z</time>
      </trkpt>
      <trkpt lat="43.02173" lon="-0.01847">
        <ele>1365</ele>
        <time>2019-06-14T20:27:31Z</time>
      </trkpt>
      <trkpt lat="43.02155" lon="-0.01853">
        <ele>1368</ele>
        <time>2019-06-14T20:27:32Z</time>
      </trkpt>
      <trkpt lat="43.02137" lon="-0.01857">
        <ele>1372</ele>
        <time>2019-06-14T20:27:33Z</time>
      </trkpt>
      <trkpt lat="43.0212" lon="-0.01849">
        <ele>1378</ele>
        <time>2019-06-14T20:27:34Z</time>
      </trkpt>
      <trkpt lat="43.02117" lon="-0.01824">
        <ele>1384</ele>
        <time>2019-06-14T20:27:35Z</time>
      </trkpt>
      <trkpt lat="43.02112" lon="-0.018">
        <ele>1390</ele>
        <time>2019-06-14T20:27:36Z</time>
      </trkpt>
      <trkpt lat="43.02108" lon="-0.01776">
        <ele>1396</ele>
        <time>2019-06-14T20:27:37Z</time>
      </trkpt>
      <trkpt lat="43.02093" lon="-0.01759">
        <ele>1403</ele>
        <time>2019-06-14T20:27:38Z</time>
      </trkpt>
      <trkpt lat="43.02075" lon="-0.01752">
        <ele>1409</ele>
        <time>2019-06-14T20:27:39Z</time>
      </trkpt>
      <trkpt lat="43.02057" lon="-0.01744">
        <ele>1413</ele>
        <time>2019-06-14T20:27:40Z</time>
      </trkpt>
      <trkpt lat="43.02037" lon="-0.01742">
        <ele>1416</ele>
        <time>2019-06-14T20:27:41Z</time>
      </trkpt>
      <trkpt lat="43.02018" lon="-0.01738">
        <ele>1419</ele>
        <time>2019-06-14T20:27:42Z</time>
      </trkpt>
      <trkpt lat="43.02" lon="-0.01738">
        <ele>1422</ele>
        <time>2019-06-14T20:27:43Z</time>
      </trkpt>
      <trkpt lat="43.01982" lon="-0.01747">
        <ele>1427</ele>
        <time>2019-06-14T20:27:44Z</time>
      </trkpt>
      <trkpt lat="43.01963" lon="-0.01753">
        <ele>1431</ele>
        <time>2019-06-14T20:27:45Z</time>
      </trkpt>
      <trkpt lat="43.01946" lon="-0.01746">
        <ele>1435</ele>
        <time>2019-06-14T20:27:46Z</time>
      </trkpt>
      <trkpt lat="43.01928" lon="-0.01751">
        <ele>1440</ele>
        <time>2019-06-14T20:27:47Z</time>
      </trkpt>
      <trkpt lat="43.01909" lon="-0.01754">
        <ele>1444</ele>
        <time>2019-06-14T20:27:48Z</time>
      </trkpt>
      <trkpt lat="43.01898" lon="-0.01775">
        <ele>1448</ele>
        <time>2019-06-14T20:27:49Z</time>
      </trkpt>
      <trkpt lat="43.01886" lon="-0.01794">
        <ele>1453</ele>
        <time>2019-06-14T20:27:50Z</time>
      </trkpt>
      <trkpt lat="43.01873" lon="-0.01813">
        <ele>1461</ele>
        <time>2019-06-14T20:27:51Z</time>
      </trkpt>
      <trkpt lat="43.01861" lon="-0.01834">
        <ele>1470</ele>
        <time>2019-06-14T20:27:52Z</time>
      </trkpt>
      <trkpt lat="43.01851" lon="-0.01854">
        <ele>1473</ele>
        <time>2019-06-14T20:27:53Z</time>
      </trkpt>
      <trkpt lat="43.01842" lon="-0.01875">
        <ele>1476</ele>
        <time>2019-06-14T20:27:54Z</time>
      </trkpt>
      <trkpt lat="43.01829" lon="-0.01894">
        <ele>1481</ele>
        <time>2019-06-14T20:27:55Z</time>
      </trkpt>
      <trkpt lat="43.01814" lon="-0.01909">
        <ele>1490</ele>
        <time>2019-06-14T20:27:56Z</time>
      </trkpt>
      <trkpt lat="43.01797" lon="-0.0192">
        <ele>1502</ele>
        <time>2019-06-14T20:27:57Z</time>
      </trkpt>
      <trkpt lat="43.01793" lon="-0.01946">
        <ele>1503</ele>
        <time>2019-06-14T20:27:58Z</time>
      </trkpt>
      <trkpt lat="43.01784" lon="-0.01967">
        <ele>1508</ele>
        <time>2019-06-14T20:27:59Z</time>
      </trkpt>
      <trkpt lat="43.01786" lon="-0.01995">
        <ele>1505</ele>
        <time>2019-06-14T20:28:00Z</time>
      </trkpt>
      <trkpt lat="43.0178" lon="-0.02019">
        <ele>1506</ele>
        <time>2019-06-14T20:28:01Z</time>
      </trkpt>
      <trkpt lat="43.01766" lon="-0.02037">
        <ele>1513</ele>
        <time>2019-06-14T20:28:02Z</time>
      </trkpt>
      <trkpt lat="43.01749" lon="-0.02043">
        <ele>1522</ele>
        <time>2019-06-14T20:28:03Z</time>
      </trkpt>
      <trkpt lat="43.01732" lon="-0.02037">
        <ele>1524</ele>
        <time>2019-06-14T20:28:04Z</time>
      </trkpt>
      <trkpt lat="43.01714" lon="-0.02025">
        <ele>1526</ele>
        <time>2019-06-14T20:28:05Z</time>
      </trkpt>
      <trkpt lat="43.01698" lon="-0.02014">
        <ele>1530</ele>
        <time>2019-06-14T20:28:06Z</time>
      </trkpt>
      <trkpt lat="43.01683" lon="-0.01998">
        <ele>1535</ele>
        <time>2019-06-14T20:28:07Z</time>
      </trkpt>
      <trkpt lat="43.01663" lon="-0.01994">
        <ele>1536</ele>
        <time>2019-06-14T20:28:08Z</time>
      </trkpt>
      <trkpt lat="43.01647" lon="-0.01981">
        <ele>1535</ele>
        <time>2019-06-14T20:28:09Z</time>
      </trkpt>
      <trkpt lat="43.01636" lon="-0.01959">
        <ele>1538</ele>
        <time>2019-06-14T20:28:10Z</time>
      </trkpt>
      <trkpt lat="43.01625" lon="-0.01936">
        <ele>1542</ele>
        <time>2019-06-14T20:28:11Z</time>
      </trkpt>
      <trkpt lat="43.01614" lon="-0.01915">
        <ele>1545</ele>
        <time>2019-06-14T20:28:12Z</time>
      </trkpt>
      <trkpt lat="43.01602" lon="-0.01894">
        <ele>1546</ele>
        <time>2019-06-14T20:28:13Z</time>
      </trkpt>
      <trkpt lat="43.0159" lon="-0.01876">
        <ele>1548</ele>
        <time>2019-06-14T20:28:14Z</time>
      </trkpt>
      <trkpt lat="43.01574" lon="-0.01862">
        <ele>1550</ele>
        <time>2019-06-14T20:28:15Z</time>
      </trkpt>
      <trkpt lat="43.01556" lon="-0.01857">
        <ele>1552</ele>
        <time>2019-06-14T20:28:16Z</time>
      </trkpt>
      <trkpt lat="43.01538" lon="-0.01851">
        <ele>1554</ele>
        <time>2019-06-14T20:28:17Z</time>
      </trkpt>
      <trkpt lat="43.01521" lon="-0.01841">
        <ele>1558</ele>
        <time>2019-06-14T20:28:18Z</time>
      </trkpt>
      <trkpt lat="43.01505" lon="-0.01831">
        <ele>1562</ele>
        <time>2019-06-14T20:28:19Z</time>
      </trkpt>
      <trkpt lat="43.01488" lon="-0.01821">
        <ele>1563</ele>
        <time>2019-06-14T20:28:20Z</time>
      </trkpt>
      <trkpt lat="43.01473" lon="-0.01806">
        <ele>1565</ele>
        <time>2019-06-14T20:28:21Z</time>
      </trkpt>
      <trkpt lat="43.01455" lon="-0.01797">
        <ele>1568</ele>
        <time>2019-06-14T20:28:22Z</time>
      </trkpt>
      <trkpt lat="43.01436" lon="-0.01792">
        <ele>1571</ele>
        <time>2019-06-14T20:28:23Z</time>
      </trkpt>
      <trkpt lat="43.01416" lon="-0.01787">
        <ele>1575</ele>
        <time>2019-06-14T20:28:24Z</time>
      </trkpt>
      <trkpt lat="43.01398" lon="-0.01791">
        <ele>1575</ele>
        <time>2019-06-14T20:28:25Z</time>
      </trkpt>
      <trkpt lat="43.01379" lon="-0.01794">
        <ele>1576</ele>
        <time>2019-06-14T20:28:26Z</time>
      </trkpt>
      <trkpt lat="43.01361" lon="-0.01794">
        <ele>1577</ele>
        <time>2019-06-14T20:28:27Z</time>
      </trkpt>
      <trkpt lat="43.01343" lon="-0.01794">
        <ele>1578</ele>
        <time>2019-06-14T20:28:28Z</time>
      </trkpt>
      <trkpt lat="43.01326" lon="-0.01783">
        <ele>1582</ele>
        <time>2019-06-14T20:28:29Z</time>
      </trkpt>
      <trkpt lat="43.01307" lon="-0.01774">
        <ele>1584</ele>
        <time>2019-06-14T20:28:30Z</time>
      </trkpt>
      <trkpt lat="43.01288" lon="-0.01769">
        <ele>1586</ele>
        <time>2019-06-14T20:28:31Z</time>
      </trkpt>
      <trkpt lat="43.0127" lon="-0.01769">
        <ele>1587</ele>
        <time>2019-06-14T20:28:32Z</time>
      </trkpt>
      <trkpt lat="43.0125" lon="-0.01772">
        <ele>1586</ele>
        <time>2019-06-14T20:28:33Z</time>
      </trkpt>
      <trkpt lat="43.01231" lon="-0.01777">
        <ele>1585</ele>
        <time>2019-06-14T20:28:34Z</time>
      </trkpt>
      <trkpt lat="43.01213" lon="-0.01781">
        <ele>1584</ele>
        <time>2019-06-14T20:28:35Z</time>
      </trkpt>
      <trkpt lat="43.01195" lon="-0.01782">
        <ele>1585</ele>
        <time>2019-06-14T20:28:36Z</time>
      </trkpt>
      <trkpt lat="43.01177" lon="-0.01778">
        <ele>1587</ele>
        <time>2019-06-14T20:28:37Z</time>
      </trkpt>
      <trkpt lat="43.0116" lon="-0.01768">
        <ele>1589</ele>
        <time>2019-06-14T20:28:38Z</time>
      </trkpt>
      <trkpt lat="43.01145" lon="-0.01751">
        <ele>1590</ele>
        <time>2019-06-14T20:28:39Z</time>
      </trkpt>
      <trkpt lat="43.01133" lon="-0.01733">
        <ele>1590</ele>
        <time>2019-06-14T20:28:40Z</time>
      </trkpt>
      <trkpt lat="43.0112" lon="-0.01715">
        <ele>1590</ele>
        <time>2019-06-14T20:28:41Z</time>
      </trkpt>
      <trkpt lat="43.01104" lon="-0.017">
        <ele>1589</ele>
        <time>2019-06-14T20:28:42Z</time>
      </trkpt>
      <trkpt lat="43.01086" lon="-0.01691">
        <ele>1588</ele>
        <time>2019-06-14T20:28:43Z</time>
      </trkpt>
      <trkpt lat="43.01068" lon="-0.01678">
        <ele>1586</ele>
        <time>2019-06-14T20:28:44Z</time>
      </trkpt>
      <trkpt lat="43.01049" lon="-0.01666">
        <ele>1585</ele>
        <time>2019-06-14T20:28:45Z</time>
      </trkpt>
      <trkpt lat="43.0103" lon="-0.01648">
        <ele>1583</ele>
        <time>2019-06-14T20:28:46Z</time>
      </trkpt>
      <trkpt lat="43.01013" lon="-0.01633">
        <ele>1581</ele>
        <time>2019-06-14T20:28:47Z</time>
      </trkpt>
      <trkpt lat="43.00993" lon="-0.01621">
        <ele>1580</ele>
        <time>2019-06-14T20:28:48Z</time>
      </trkpt>
      <trkpt lat="43.00975" lon="-0.01614">
        <ele>1580</ele>
        <time>2019-06-14T20:28:49Z</time>
      </trkpt>
      <trkpt lat="43.00955" lon="-0.01613">
        <ele>1580</ele>
        <time>2019-06-14T20:28:50Z</time>
      </trkpt>
      <trkpt lat="43.00936" lon="-0.01616">
        <ele>1580</ele>
        <time>2019-06-14T20:28:51Z</time>
      </trkpt>
      <trkpt lat="43.00917" lon="-0.01621">
        <ele>1581</ele>
        <time>2019-06-14T20:28:52Z</time>
      </trkpt>
      <trkpt lat="43.00899" lon="-0.01623">
        <ele>1583</ele>
        <time>2019-06-14T20:28:53Z</time>
      </trkpt>
      <trkpt lat="43.00879" lon="-0.01624">
        <ele>1587</ele>
        <time>2019-06-14T20:28:54Z</time>
      </trkpt>
      <trkpt lat="43.0086" lon="-0.01627">
        <ele>1590</ele>
        <time>2019-06-14T20:28:55Z</time>
      </trkpt>
      <trkpt lat="43.00842" lon="-0.01628">
        <ele>1593</ele>
        <time>2019-06-14T20:28:56Z</time>
      </trkpt>
      <trkpt lat="43.00824" lon="-0.0163">
        <ele>1596</ele>
        <time>2019-06-14T20:28:57Z</time>
      </trkpt>
      <trkpt lat="43.00804" lon="-0.01632">
        <ele>1598</ele>
        <time>2019-06-14T20:28:58Z</time>
      </trkpt>
      <trkpt lat="43.00786" lon="-0.01639">
        <ele>1601</ele>
        <time>2019-06-14T20:28:59Z</time>
      </trkpt>
      <trkpt lat="43.00767" lon="-0.01638">
        <ele>1604</ele>
        <time>2019-06-14T20:29:00Z</time>
      </trkpt>
      <trkpt lat="43.00748" lon="-0.01638">
        <ele>1606</ele>
        <time>2019-06-14T20:29:01Z</time>
      </trkpt>
      <trkpt lat="43.00729" lon="-0.01641">
        <ele>1607</ele>
        <time>2019-06-14T20:29:02Z</time>
      </trkpt>
      <trkpt lat="43.00711" lon="-0.01645">
        <ele>1608</ele>
        <time>2019-06-14T20:29:03Z</time>
      </trkpt>
      <trkpt lat="43.00692" lon="-0.0165">
        <ele>1610</ele>
        <time>2019-06-14T20:29:04Z</time>
      </trkpt>
      <trkpt lat="43.00674" lon="-0.01655">
        <ele>1612</ele>
        <time>2019-06-14T20:29:05Z</time>
      </trkpt>
      <trkpt lat="43.00656" lon="-0.01661">
        <ele>1616</ele>
        <time>2019-06-14T20:29:06Z</time>
      </trkpt>
      <trkpt lat="43.00639" lon="-0.01668">
        <ele>1622</ele>
        <time>2019-06-14T20:29:07Z</time>
      </trkpt>
      <trkpt lat="43.00621" lon="-0.01673">
        <ele>1626</ele>
        <time>2019-06-14T20:29:08Z</time>
      </trkpt>
      <trkpt lat="43.00603" lon="-0.01675">
        <ele>1630</ele>
        <time>2019-06-14T20:29:09Z</time>
      </trkpt>
      <trkpt lat="43.00585" lon="-0.01671">
        <ele>1635</ele>
        <time>2019-06-14T20:29:10Z</time>
      </trkpt>
      <trkpt lat="43.00595" lon="-0.01649">
        <ele>1627</ele>
        <time>2019-06-14T20:29:11Z</time>
      </trkpt>
      <trkpt lat="43.00578" lon="-0.01663">
        <ele>1636</ele>
        <time>2019-06-14T20:29:12Z</time>
      </trkpt>
      <trkpt lat="43.00561" lon="-0.01671">
        <ele>1643</ele>
        <time>2019-06-14T20:29:13Z</time>
      </trkpt>
      <trkpt lat="43.00544" lon="-0.01684">
        <ele>1647</ele>
        <time>2019-06-14T20:29:14Z</time>
      </trkpt>
      <trkpt lat="43.00527" lon="-0.01694">
        <ele>1651</ele>
        <time>2019-06-14T20:29:15Z</time>
      </trkpt>
      <trkpt lat="43.0051" lon="-0.01703">
        <ele>1656</ele>
        <time>2019-06-14T20:29:16Z</time>
      </trkpt>
      <trkpt lat="43.00492" lon="-0.01708">
        <ele>1661</ele>
        <time>2019-06-14T20:29:17Z</time>
      </trkpt>
      <trkpt lat="43.00473" lon="-0.01714">
        <ele>1666</ele>
        <time>2019-06-14T20:29:18Z</time>
      </trkpt>
      <trkpt lat="43.00455" lon="-0.01721">
        <ele>1670</ele>
        <time>2019-06-14T20:29:19Z</time>
      </trkpt>
      <trkpt lat="43.00439" lon="-0.01733">
        <ele>1672</ele>
        <time>2019-06-14T20:29:20Z</time>
      </trkpt>
      <trkpt lat="43.00424" lon="-0.01749">
        <ele>1672</ele>
        <time>2019-06-14T20:29:21Z</time>
      </trkpt>
      <trkpt lat="43.00412" lon="-0.01769">
        <ele>1671</ele>
        <time>2019-06-14T20:29:22Z</time>
      </trkpt>
      <trkpt lat="43.004" lon="-0.0179">
        <ele>1667</ele>
        <time>2019-06-14T20:29:23Z</time>
      </trkpt>
      <trkpt lat="43.00381" lon="-0.01797">
        <ele>1666</ele>
        <time>2019-06-14T20:29:24Z</time>
      </trkpt>
      <trkpt lat="43.00362" lon="-0.01795">
        <ele>1667</ele>
        <time>2019-06-14T20:29:25Z</time>
      </trkpt>
      <trkpt lat="43.00343" lon="-0.01789">
        <ele>1668</ele>
        <time>2019-06-14T20:29:26Z</time>
      </trkpt>
      <trkpt lat="43.00326" lon="-0.01775">
        <ele>1669</ele>
        <time>2019-06-14T20:29:27Z</time>
      </trkpt>
      <trkpt lat="43.00313" lon="-0.01757">
        <ele>1669</ele>
        <time>2019-06-14T20:29:28Z</time>
      </trkpt>
      <trkpt lat="43.00299" lon="-0.01739">
        <ele>1669</ele>
        <time>2019-06-14T20:29:29Z</time>
      </trkpt>
      <trkpt lat="43.00286" lon="-0.01721">
        <ele>1670</ele>
        <time>2019-06-14T20:29:30Z</time>
      </trkpt>
      <trkpt lat="43.00273" lon="-0.01704">
        <ele>1671</ele>
        <time>2019-06-14T20:29:31Z</time>
      </trkpt>
      <trkpt lat="43.00258" lon="-0.01687">
        <ele>1672</ele>
        <time>2019-06-14T20:29:32Z</time>
      </trkpt>
      <trkpt lat="43.00244" lon="-0.01672">
        <ele>1672</ele>
        <time>2019-06-14T20:29:33Z</time>
      </trkpt>
      <trkpt lat="43.00229" lon="-0.01656">
        <ele>1672</ele>
        <time>2019-06-14T20:29:34Z</time>
      </trkpt>
      <trkpt lat="43.00213" lon="-0.01639">
        <ele>1672</ele>
        <time>2019-06-14T20:29:35Z</time>
      </trkpt>
      <trkpt lat="43.00196" lon="-0.01624">
        <ele>1671</ele>
        <time>2019-06-14T20:29:36Z</time>
      </trkpt>
      <trkpt lat="43.0018" lon="-0.01609">
        <ele>1671</ele>
        <time>2019-06-14T20:29:37Z</time>
      </trkpt>
      <trkpt lat="43.00165" lon="-0.01594">
        <ele>1672</ele>
        <time>2019-06-14T20:29:38Z</time>
      </trkpt>
      <trkpt lat="43.00147" lon="-0.0158">
        <ele>1672</ele>
        <time>2019-06-14T20:29:39Z</time>
      </trkpt>
      <trkpt lat="43.0013" lon="-0.01568">
        <ele>1671</ele>
        <time>2019-06-14T20:29:40Z</time>
      </trkpt>
      <trkpt lat="43.00112" lon="-0.01556">
        <ele>1671</ele>
        <time>2019-06-14T20:29:41Z</time>
      </trkpt>
      <trkpt lat="43.00097" lon="-0.01541">
        <ele>1672</ele>
        <time>2019-06-14T20:29:42Z</time>
      </trkpt>
      <trkpt lat="43.00083" lon="-0.01524">
        <ele>1674</ele>
        <time>2019-06-14T20:29:43Z</time>
      </trkpt>
      <trkpt lat="43.00068" lon="-0.01508">
        <ele>1677</ele>
        <time>2019-06-14T20:29:44Z</time>
      </trkpt>
      <trkpt lat="43.00051" lon="-0.01498">
        <ele>1677</ele>
        <time>2019-06-14T20:29:45Z</time>
      </trkpt>
      <trkpt lat="43.00032" lon="-0.0149">
        <ele>1676</ele>
        <time>2019-06-14T20:29:46Z</time>
      </trkpt>
      <trkpt lat="43.00013" lon="-0.01483">
        <ele>1675</ele>
        <time>2019-06-14T20:29:47Z</time>
      </trkpt>
      <trkpt lat="42.99995" lon="-0.01479">
        <ele>1695</ele>
        <time>2019-06-14T20:29:48Z</time>
      </trkpt>
      <trkpt lat="42.99976" lon="-0.01474">
        <ele>1695</ele>
        <time>2019-06-14T20:29:49Z</time>
      </trkpt>
      <trkpt lat="42.99958" lon="-0.01469">
        <ele>1695</ele>
        <time>2019-06-14T20:29:50Z</time>
      </trkpt>
      <trkpt lat="42.99937" lon="-0.01462">
        <ele>1694</ele>
        <time>2019-06-14T20:29:51Z</time>
      </trkpt>
      <trkpt lat="42.99915" lon="-0.01454">
        <ele>1694</ele>
        <time>2019-06-14T20:29:52Z</time>
      </trkpt>
      <trkpt lat="42.99895" lon="-0.01446">
        <ele>1683</ele>
        <time>2019-06-14T20:29:53Z</time>
      </trkpt>
      <trkpt lat="42.99874" lon="-0.01436">
        <ele>1675</ele>
        <time>2019-06-14T20:29:54Z</time>
      </trkpt>
      <trkpt lat="42.99852" lon="-0.01431">
        <ele>1668</ele>
        <time>2019-06-14T20:29:55Z</time>
      </trkpt>
      <trkpt lat="42.9983" lon="-0.01428">
        <ele>1663</ele>
        <time>2019-06-14T20:29:56Z</time>
      </trkpt>
      <trkpt lat="42.99808" lon="-0.01426">
        <ele>1665</ele>
        <time>2019-06-14T20:29:57Z</time>
      </trkpt>
      <trkpt lat="42.99787" lon="-0.01424">
        <ele>1667</ele>
        <time>2019-06-14T20:29:58Z</time>
      </trkpt>
      <trkpt lat="42.99765" lon="-0.01424">
        <ele>1669</ele>
        <time>2019-06-14T20:29:59Z</time>
      </trkpt>
      <trkpt lat="42.99743" lon="-0.01425">
        <ele>1669</ele>
        <time>2019-06-14T20:30:00Z</time>
      </trkpt>
      <trkpt lat="42.9972" lon="-0.01425">
        <ele>1670</ele>
        <time>2019-06-14T20:30:01Z</time>
      </trkpt>
      <trkpt lat="42.99699" lon="-0.01424">
        <ele>1671</ele>
        <time>2019-06-14T20:30:02Z</time>
      </trkpt>
      <trkpt lat="42.99679" lon="-0.01422">
        <ele>1672</ele>
        <time>2019-06-14T20:30:03Z</time>
      </trkpt>
      <trkpt lat="42.99658" lon="-0.01421">
        <ele>1672</ele>
        <time>2019-06-14T20:30:04Z</time>
      </trkpt>
      <trkpt lat="42.99635" lon="-0.01417">
        <ele>1672</ele>
        <time>2019-06-14T20:30:05Z</time>
      </trkpt>
      <trkpt lat="42.99615" lon="-0.01409">
        <ele>1673</ele>
        <time>2019-06-14T20:30:06Z</time>
      </trkpt>
      <trkpt lat="42.99595" lon="-0.01396">
        <ele>1675</ele>
        <time>2019-06-14T20:30:07Z</time>
      </trkpt>
      <trkpt lat="42.9958" lon="-0.01379">
        <ele>1678</ele>
        <time>2019-06-14T20:30:08Z</time>
      </trkpt>
      <trkpt lat="42.99569" lon="-0.01358">
        <ele>1681</ele>
        <time>2019-06-14T20:30:09Z</time>
      </trkpt>
      <trkpt lat="42.99561" lon="-0.01329">
        <ele>1684</ele>
        <time>2019-06-14T20:30:10Z</time>
      </trkpt>
      <trkpt lat="42.99554" lon="-0.01302">
        <ele>1679</ele>
        <time>2019-06-14T20:30:11Z</time>
      </trkpt>
      <trkpt lat="42.99546" lon="-0.01275">
        <ele>1674</ele>
        <time>2019-06-14T20:30:12Z</time>
      </trkpt>
      <trkpt lat="42.99537" lon="-0.0125">
        <ele>1670</ele>
        <time>2019-06-14T20:30:13Z</time>
      </trkpt>
      <trkpt lat="42.99525" lon="-0.01226">
        <ele>1663</ele>
        <time>2019-06-14T20:30:14Z</time>
      </trkpt>
      <trkpt lat="42.99506" lon="-0.01222">
        <ele>1662</ele>
        <time>2019-06-14T20:30:15Z</time>
      </trkpt>
      <trkpt lat="42.99489" lon="-0.01235">
        <ele>1665</ele>
        <time>2019-06-14T20:30:16Z</time>
      </trkpt>
      <trkpt lat="42.99479" lon="-0.01259">
        <ele>1667</ele>
        <time>2019-06-14T20:30:17Z</time>
      </trkpt>
      <trkpt lat="42.99477" lon="-0.01285">
        <ele>1667</ele>
        <time>2019-06-14T20:30:18Z</time>
      </trkpt>
      <trkpt lat="42.99468" lon="-0.0131">
        <ele>1667</ele>
        <time>2019-06-14T20:30:19Z</time>
      </trkpt>
      <trkpt lat="42.99455" lon="-0.01336">
        <ele>1666</ele>
        <time>2019-06-14T20:30:20Z</time>
      </trkpt>
      <trkpt lat="42.99445" lon="-0.01358">
        <ele>1663</ele>
        <time>2019-06-14T20:30:21Z</time>
      </trkpt>
      <trkpt lat="42.99434" lon="-0.01383">
        <ele>1660</ele>
        <time>2019-06-14T20:30:22Z</time>
      </trkpt>
      <trkpt lat="42.99421" lon="-0.01407">
        <ele>1658</ele>
        <time>2019-06-14T20:30:23Z</time>
      </trkpt>
      <trkpt lat="42.99407" lon="-0.01427">
        <ele>1657</ele>
        <time>2019-06-14T20:30:24Z</time>
      </trkpt>
      <trkpt lat="42.99389" lon="-0.01438">
        <ele>1659</ele>
        <time>2019-06-14T20:30:25Z</time>
      </trkpt>
      <trkpt lat="42.9937" lon="-0.01452">
        <ele>1661</ele>
        <time>2019-06-14T20:30:26Z</time>
      </trkpt>
      <trkpt lat="42.99356" lon="-0.01478">
        <ele>1661</ele>
        <time>2019-06-14T20:30:27Z</time>
      </trkpt>
      <trkpt lat="42.99341" lon="-0.01495">
        <ele>1662</ele>
        <time>2019-06-14T20:30:28Z</time>
      </trkpt>
      <trkpt lat="42.99326" lon="-0.01508">
        <ele>1664</ele>
        <time>2019-06-14T20:30:29Z</time>
      </trkpt>
      <trkpt lat="42.99347" lon="-0.0151">
        <ele>1658</ele>
        <time>2019-06-14T20:30:30Z</time>
      </trkpt>
      <trkpt lat="42.99367" lon="-0.01498">
        <ele>1655</ele>
        <time>2019-06-14T20:30:31Z</time>
      </trkpt>
      <trkpt lat="42.9939" lon="-0.01492">
        <ele>1651</ele>
        <time>2019-06-14T20:30:32Z</time>
      </trkpt>
      <trkpt lat="42.99414" lon="-0.0149">
        <ele>1645</ele>
        <time>2019-06-14T20:30:33Z</time>
      </trkpt>
      <trkpt lat="42.99436" lon="-0.01486">
        <ele>1643</ele>
        <time>2019-06-14T20:30:34Z</time>
      </trkpt>
      <trkpt lat="42.99453" lon="-0.01467">
        <ele>1645</ele>
        <time>2019-06-14T20:30:35Z</time>
      </trkpt>
      <trkpt lat="42.99462" lon="-0.01446">
        <ele>1648</ele>
        <time>2019-06-14T20:30:36Z</time>
      </trkpt>
      <trkpt lat="42.99464" lon="-0.01476">
        <ele>1642</ele>
        <time>2019-06-14T20:30:37Z</time>
      </trkpt>
      <trkpt lat="42.99451" lon="-0.01505">
        <ele>1638</ele>
        <time>2019-06-14T20:30:38Z</time>
      </trkpt>
      <trkpt lat="42.99436" lon="-0.01524">
        <ele>1637</ele>
        <time>2019-06-14T20:30:39Z</time>
      </trkpt>
      <trkpt lat="42.99416" lon="-0.01543">
        <ele>1636</ele>
        <time>2019-06-14T20:30:40Z</time>
      </trkpt>
      <trkpt lat="42.99396" lon="-0.01562">
        <ele>1637</ele>
        <time>2019-06-14T20:30:41Z</time>
      </trkpt>
      <trkpt lat="42.99377" lon="-0.01584">
        <ele>1639</ele>
        <time>2019-06-14T20:30:42Z</time>
      </trkpt>
      <trkpt lat="42.9936" lon="-0.01611">
        <ele>1638</ele>
        <time>2019-06-14T20:30:43Z</time>
      </trkpt>
      <trkpt lat="42.99346" lon="-0.01627">
        <ele>1638</ele>
        <time>2019-06-14T20:30:44Z</time>
      </trkpt>
      <trkpt lat="42.99324" lon="-0.01646">
        <ele>1641</ele>
        <time>2019-06-14T20:30:45Z</time>
      </trkpt>
      <trkpt lat="42.99304" lon="-0.01668">
        <ele>1641</ele>
        <time>2019-06-14T20:30:46Z</time>
      </trkpt>
      <trkpt lat="42.99287" lon="-0.01693">
        <ele>1640</ele>
        <time>2019-06-14T20:30:47Z</time>
      </trkpt>
      <trkpt lat="42.99271" lon="-0.0172">
        <ele>1638</ele>
        <time>2019-06-14T20:30:48Z</time>
      </trkpt>
      <trkpt lat="42.99255" lon="-0.01747">
        <ele>1636</ele>
        <time>2019-06-14T20:30:49Z</time>
      </trkpt>
      <trkpt lat="42.99239" lon="-0.01775">
        <ele>1632</ele>
        <time>2019-06-14T20:30:50Z</time>
      </trkpt>
      <trkpt lat="42.99226" lon="-0.01807">
        <ele>1627</ele>
        <time>2019-06-14T20:30:51Z</time>
      </trkpt>
      <trkpt lat="42.99211" lon="-0.01828">
        <ele>1623</ele>
        <time>2019-06-14T20:30:52Z</time>
      </trkpt>
      <trkpt lat="42.99189" lon="-0.01823">
        <ele>1626</ele>
        <time>2019-06-14T20:30:53Z</time>
      </trkpt>
      <trkpt lat="42.99168" lon="-0.01817">
        <ele>1629</ele>
        <time>2019-06-14T20:30:54Z</time>
      </trkpt>
      <trkpt lat="42.99147" lon="-0.01805">
        <ele>1628</ele>
        <time>2019-06-14T20:30:55Z</time>
      </trkpt>
      <trkpt lat="42.99132" lon="-0.01789">
        <ele>1628</ele>
        <time>2019-06-14T20:30:56Z</time>
      </trkpt>
      <trkpt lat="42.99119" lon="-0.01768">
        <ele>1631</ele>
        <time>2019-06-14T20:30:57Z</time>
      </trkpt>
      <trkpt lat="42.99109" lon="-0.01748">
        <ele>1634</ele>
        <time>2019-06-14T20:30:58Z</time>
      </trkpt>
      <trkpt lat="42.99095" lon="-0.01723">
        <ele>1636</ele>
        <time>2019-06-14T20:30:59Z</time>
      </trkpt>
      <trkpt lat="42.99083" lon="-0.01698">
        <ele>1638</ele>
        <time>2019-06-14T20:31:00Z</time>
      </trkpt>
      <trkpt lat="42.99071" lon="-0.01672">
        <ele>1638</ele>
        <time>2019-06-14T20:31:01Z</time>
      </trkpt>
      <trkpt lat="42.9906" lon="-0.01644">
        <ele>1639</ele>
        <time>2019-06-14T20:31:02Z</time>
      </trkpt>
      <trkpt lat="42.99053" lon="-0.01615">
        <ele>1641</ele>
        <time>2019-06-14T20:31:03Z</time>
      </trkpt>
      <trkpt lat="42.99046" lon="-0.01587">
        <ele>1644</ele>
        <time>2019-06-14T20:31:04Z</time>
      </trkpt>
      <trkpt lat="42.99041" lon="-0.01556">
        <ele>1645</ele>
        <time>2019-06-14T20:31:05Z</time>
      </trkpt>
      <trkpt lat="42.99033" lon="-0.01527">
        <ele>1645</ele>
        <time>2019-06-14T20:31:06Z</time>
      </trkpt>
      <trkpt lat="42.99025" lon="-0.015">
        <ele>1646</ele>
        <time>2019-06-14T20:31:07Z</time>
      </trkpt>
      <trkpt lat="42.99015" lon="-0.01472">
        <ele>1645</ele>
        <time>2019-06-14T20:31:08Z</time>
      </trkpt>
      <trkpt lat="42.99003" lon="-0.01446">
        <ele>1643</ele>
        <time>2019-06-14T20:31:09Z</time>
      </trkpt>
      <trkpt lat="42.98991" lon="-0.01418">
        <ele>1641</ele>
        <time>2019-06-14T20:31:10Z</time>
      </trkpt>
      <trkpt lat="42.9898" lon="-0.01395">
        <ele>1638</ele>
        <time>2019-06-14T20:31:11Z</time>
      </trkpt>
      <trkpt lat="42.9897" lon="-0.01369">
        <ele>1635</ele>
        <time>2019-06-14T20:31:12Z</time>
      </trkpt>
      <trkpt lat="42.98961" lon="-0.0134">
        <ele>1632</ele>
        <time>2019-06-14T20:31:13Z</time>
      </trkpt>
      <trkpt lat="42.9895" lon="-0.01312">
        <ele>1628</ele>
        <time>2019-06-14T20:31:14Z</time>
      </trkpt>
      <trkpt lat="42.98941" lon="-0.01282">
        <ele>1625</ele>
        <time>2019-06-14T20:31:15Z</time>
      </trkpt>
      <trkpt lat="42.98948" lon="-0.01252">
        <ele>1627</ele>
        <time>2019-06-14T20:31:16Z</time>
      </trkpt>
      <trkpt lat="42.98959" lon="-0.01226">
        <ele>1631</ele>
        <time>2019-06-14T20:31:17Z</time>
      </trkpt>
      <trkpt lat="42.98965" lon="-0.01203">
        <ele>1633</ele>
        <time>2019-06-14T20:31:18Z</time>
      </trkpt>
      <trkpt lat="42.98974" lon="-0.01175">
        <ele>1636</ele>
        <time>2019-06-14T20:31:19Z</time>
      </trkpt>
      <trkpt lat="42.98971" lon="-0.01145">
        <ele>1636</ele>
        <time>2019-06-14T20:31:20Z</time>
      </trkpt>
      <trkpt lat="42.98957" lon="-0.01123">
        <ele>1633</ele>
        <time>2019-06-14T20:31:21Z</time>
      </trkpt>
      <trkpt lat="42.98938" lon="-0.01107">
        <ele>1630</ele>
        <time>2019-06-14T20:31:22Z</time>
      </trkpt>
      <trkpt lat="42.98916" lon="-0.01092">
        <ele>1626</ele>
        <time>2019-06-14T20:31:23Z</time>
      </trkpt>
      <trkpt lat="42.989" lon="-0.0107">
        <ele>1623</ele>
        <time>2019-06-14T20:31:24Z</time>
      </trkpt>
      <trkpt lat="42.98886" lon="-0.01045">
        <ele>1619</ele>
        <time>2019-06-14T20:31:25Z</time>
      </trkpt>
      <trkpt lat="42.98881" lon="-0.01015">
        <ele>1618</ele>
        <time>2019-06-14T20:31:26Z</time>
      </trkpt>
      <trkpt lat="42.98882" lon="-0.00984">
        <ele>1617</ele>
        <time>2019-06-14T20:31:27Z</time>
      </trkpt>
      <trkpt lat="42.98887" lon="-0.00953">
        <ele>1617</ele>
        <time>2019-06-14T20:31:28Z</time>
      </trkpt>
      <trkpt lat="42.98887" lon="-0.00919">
        <ele>1616</ele>
        <time>2019-06-14T20:31:29Z</time>
      </trkpt>
      <trkpt lat="42.98886" lon="-0.00887">
        <ele>1613</ele>
        <time>2019-06-14T20:31:30Z</time>
      </trkpt>
      <trkpt lat="42.98881" lon="-0.00857">
        <ele>1609</ele>
        <time>2019-06-14T20:31:31Z</time>
      </trkpt>
      <trkpt lat="42.9887" lon="-0.00833">
        <ele>1606</ele>
        <time>2019-06-14T20:31:32Z</time>
      </trkpt>
      <trkpt lat="42.98855" lon="-0.00817">
        <ele>1602</ele>
        <time>2019-06-14T20:31:33Z</time>
      </trkpt>
      <trkpt lat="42.98835" lon="-0.00812">
        <ele>1600</ele>
        <time>2019-06-14T20:31:34Z</time>
      </trkpt>
      <trkpt lat="42.98814" lon="-0.00807">
        <ele>1598</ele>
        <time>2019-06-14T20:31:35Z</time>
      </trkpt>
      <trkpt lat="42.98792" lon="-0.00795">
        <ele>1596</ele>
        <time>2019-06-14T20:31:36Z</time>
      </trkpt>
      <trkpt lat="42.98778" lon="-0.00775">
        <ele>1595</ele>
        <time>2019-06-14T20:31:37Z</time>
      </trkpt>
      <trkpt lat="42.98783" lon="-0.00746">
        <ele>1593</ele>
        <time>2019-06-14T20:31:38Z</time>
      </trkpt>
      <trkpt lat="42.98777" lon="-0.00721">
        <ele>1589</ele>
        <time>2019-06-14T20:31:39Z</time>
      </trkpt>
      <trkpt lat="42.98753" lon="-0.00718">
        <ele>1589</ele>
        <time>2019-06-14T20:31:40Z</time>
      </trkpt>
      <trkpt lat="42.98736" lon="-0.00732">
        <ele>1593</ele>
        <time>2019-06-14T20:31:41Z</time>
      </trkpt>
      <trkpt lat="42.98718" lon="-0.00751">
        <ele>1596</ele>
        <time>2019-06-14T20:31:42Z</time>
      </trkpt>
      <trkpt lat="42.98699" lon="-0.00759">
        <ele>1597</ele>
        <time>2019-06-14T20:31:43Z</time>
      </trkpt>
      <trkpt lat="42.98678" lon="-0.00765">
        <ele>1598</ele>
        <time>2019-06-14T20:31:44Z</time>
      </trkpt>
      <trkpt lat="42.98659" lon="-0.00767">
        <ele>1598</ele>
        <time>2019-06-14T20:31:45Z</time>
      </trkpt>
      <trkpt lat="42.9864" lon="-0.00771">
        <ele>1598</ele>
        <time>2019-06-14T20:31:46Z</time>
      </trkpt>
      <trkpt lat="42.98659" lon="-0.00767">
        <ele>1598</ele>
        <time>2019-06-14T20:31:47Z</time>
      </trkpt>
      <trkpt lat="42.9868" lon="-0.00763">
        <ele>1598</ele>
        <time>2019-06-14T20:31:48Z</time>
      </trkpt>
      <trkpt lat="42.98699" lon="-0.00756">
        <ele>1597</ele>
        <time>2019-06-14T20:31:49Z</time>
      </trkpt>
      <trkpt lat="42.98719" lon="-0.00747">
        <ele>1596</ele>
        <time>2019-06-14T20:31:50Z</time>
      </trkpt>
      <trkpt lat="42.98735" lon="-0.00728">
        <ele>1592</ele>
        <time>2019-06-14T20:31:51Z</time>
      </trkpt>
      <trkpt lat="42.98744" lon="-0.00705">
        <ele>1588</ele>
        <time>2019-06-14T20:31:52Z</time>
      </trkpt>
      <trkpt lat="42.98729" lon="-0.00691">
        <ele>1588</ele>
        <time>2019-06-14T20:31:53Z</time>
      </trkpt>
      <trkpt lat="42.9871" lon="-0.00681">
        <ele>1589</ele>
        <time>2019-06-14T20:31:54Z</time>
      </trkpt>
      <trkpt lat="42.98694" lon="-0.00668">
        <ele>1590</ele>
        <time>2019-06-14T20:31:55Z</time>
      </trkpt>
      <trkpt lat="42.98679" lon="-0.00654">
        <ele>1590</ele>
        <time>2019-06-14T20:31:56Z</time>
      </trkpt>
      <trkpt lat="42.98663" lon="-0.00641">
        <ele>1590</ele>
        <time>2019-06-14T20:31:57Z</time>
      </trkpt>
      <trkpt lat="42.98649" lon="-0.00624">
        <ele>1589</ele>
        <time>2019-06-14T20:31:58Z</time>
      </trkpt>
      <trkpt lat="42.98637" lon="-0.00604">
        <ele>1588</ele>
        <time>2019-06-14T20:31:59Z</time>
      </trkpt>
      <trkpt lat="42.98629" lon="-0.00579">
        <ele>1586</ele>
        <time>2019-06-14T20:32:00Z</time>
      </trkpt>
      <trkpt lat="42.98607" lon="-0.00573">
        <ele>1589</ele>
        <time>2019-06-14T20:32:01Z</time>
      </trkpt>
      <trkpt lat="42.98587" lon="-0.00579">
        <ele>1594</ele>
        <time>2019-06-14T20:32:02Z</time>
      </trkpt>
      <trkpt lat="42.98564" lon="-0.00576">
        <ele>1595</ele>
        <time>2019-06-14T20:32:03Z</time>
      </trkpt>
      <trkpt lat="42.98542" lon="-0.00563">
        <ele>1592</ele>
        <time>2019-06-14T20:32:04Z</time>
      </trkpt>
      <trkpt lat="42.98524" lon="-0.00554">
        <ele>1590</ele>
        <time>2019-06-14T20:32:05Z</time>
      </trkpt>
      <trkpt lat="42.98508" lon="-0.00542">
        <ele>1588</ele>
        <time>2019-06-14T20:32:06Z</time>
      </trkpt>
      <trkpt lat="42.98485" lon="-0.00529">
        <ele>1587</ele>
        <time>2019-06-14T20:32:07Z</time>
      </trkpt>
      <trkpt lat="42.98467" lon="-0.00525">
        <ele>1588</ele>
        <time>2019-06-14T20:32:08Z</time>
      </trkpt>
      <trkpt lat="42.9845" lon="-0.00518">
        <ele>1589</ele>
        <time>2019-06-14T20:32:09Z</time>
      </trkpt>
      <trkpt lat="42.9843" lon="-0.00517">
        <ele>1591</ele>
        <time>2019-06-14T20:32:10Z</time>
      </trkpt>
      <trkpt lat="42.98418" lon="-0.00496">
        <ele>1592</ele>
        <time>2019-06-14T20:32:11Z</time>
      </trkpt>
      <trkpt lat="42.98411" lon="-0.00469">
        <ele>1591</ele>
        <time>2019-06-14T20:32:12Z</time>
      </trkpt>
      <trkpt lat="42.98402" lon="-0.00445">
        <ele>1591</ele>
        <time>2019-06-14T20:32:13Z</time>
      </trkpt>
      <trkpt lat="42.98388" lon="-0.00423">
        <ele>1591</ele>
        <time>2019-06-14T20:32:14Z</time>
      </trkpt>
      <trkpt lat="42.98376" lon="-0.00403">
        <ele>1592</ele>
        <time>2019-06-14T20:32:15Z</time>
      </trkpt>
      <trkpt lat="42.98364" lon="-0.00383">
        <ele>1593</ele>
        <time>2019-06-14T20:32:16Z</time>
      </trkpt>
      <trkpt lat="42.98352" lon="-0.00364">
        <ele>1595</ele>
        <time>2019-06-14T20:32:17Z</time>
      </trkpt>
      <trkpt lat="42.98339" lon="-0.00345">
        <ele>1598</ele>
        <time>2019-06-14T20:32:18Z</time>
      </trkpt>
      <trkpt lat="42.98324" lon="-0.0033">
        <ele>1601</ele>
        <time>2019-06-14T20:32:19Z</time>
      </trkpt>
      <trkpt lat="42.98306" lon="-0.00314">
        <ele>1605</ele>
        <time>2019-06-14T20:32:20Z</time>
      </trkpt>
      <trkpt lat="42.98293" lon="-0.00296">
        <ele>1609</ele>
        <time>2019-06-14T20:32:21Z</time>
      </trkpt>
      <trkpt lat="42.98277" lon="-0.00279">
        <ele>1613</ele>
        <time>2019-06-14T20:32:22Z</time>
      </trkpt>
      <trkpt lat="42.98261" lon="-0.00261">
        <ele>1618</ele>
        <time>2019-06-14T20:32:23Z</time>
      </trkpt>
      <trkpt lat="42.98243" lon="-0.00245">
        <ele>1622</ele>
        <time>2019-06-14T20:32:24Z</time>
      </trkpt>
      <trkpt lat="42.98227" lon="-0.0023">
        <ele>1623</ele>
        <time>2019-06-14T20:32:25Z</time>
      </trkpt>
      <trkpt lat="42.98215" lon="-0.0021">
        <ele>1623</ele>
        <time>2019-06-14T20:32:26Z</time>
      </trkpt>
      <trkpt lat="42.98201" lon="-0.0019">
        <ele>1624</ele>
        <time>2019-06-14T20:32:27Z</time>
      </trkpt>
      <trkpt lat="42.98188" lon="-0.00174">
        <ele>1624</ele>
        <time>2019-06-14T20:32:28Z</time>
      </trkpt>
      <trkpt lat="42.98172" lon="-0.00157">
        <ele>1624</ele>
        <time>2019-06-14T20:32:29Z</time>
      </trkpt>
      <trkpt lat="42.98156" lon="-0.00141">
        <ele>1623</ele>
        <time>2019-06-14T20:32:30Z</time>
      </trkpt>
      <trkpt lat="42.98141" lon="-0.00126">
        <ele>1623</ele>
        <time>2019-06-14T20:32:31Z</time>
      </trkpt>
      <trkpt lat="42.98127" lon="-0.00109">
        <ele>1623</ele>
        <time>2019-06-14T20:32:32Z</time>
      </trkpt>
      <trkpt lat="42.98111" lon="-0.00092">
        <ele>1622</ele>
        <time>2019-06-14T20:32:33Z</time>
      </trkpt>
      <trkpt lat="42.98096" lon="-0.00073">
        <ele>1622</ele>
        <time>2019-06-14T20:32:34Z</time>
      </trkpt>
      <trkpt lat="42.98081" lon="-0.00058">
        <ele>1621</ele>
        <time>2019-06-14T20:32:35Z</time>
      </trkpt>
      <trkpt lat="42.98065" lon="-0.00039">
        <ele>1622</ele>
        <time>2019-06-14T20:32:36Z</time>
      </trkpt>
      <trkpt lat="42.98048" lon="-0.00023">
        <ele>1623</ele>
        <time>2019-06-14T20:32:37Z</time>
      </trkpt>
      <trkpt lat="42.98032" lon="-0.0001">
        <ele>1623</ele>
        <time>2019-06-14T20:32:38Z</time>
      </trkpt>
      <trkpt lat="42.98014" lon="-0.00012">
        <ele>1624</ele>
        <time>2019-06-14T20:32:39Z</time>
      </trkpt>
      <trkpt lat="42.97996" lon="-0.00013">
        <ele>1625</ele>
        <time>2019-06-14T20:32:40Z</time>
      </trkpt>
      <trkpt lat="42.97977" lon="-9.0E-5">
        <ele>1627</ele>
        <time>2019-06-14T20:32:41Z</time>
      </trkpt>
      <trkpt lat="42.97957" lon="-6.0E-5">
        <ele>1629</ele>
        <time>2019-06-14T20:32:42Z</time>
      </trkpt>
      <trkpt lat="42.97937" lon="-9.0E-5">
        <ele>1631</ele>
        <time>2019-06-14T20:32:43Z</time>
      </trkpt>
      <trkpt lat="42.97918" lon="-0.00014">
        <ele>1632</ele>
        <time>2019-06-14T20:32:44Z</time>
      </trkpt>
      <trkpt lat="42.97899" lon="-0.00017">
        <ele>1633</ele>
        <time>2019-06-14T20:32:45Z</time>
      </trkpt>
      <trkpt lat="42.9788" lon="-0.00022">
        <ele>1634</ele>
        <time>2019-06-14T20:32:46Z</time>
      </trkpt>
      <trkpt lat="42.97861" lon="-0.00029">
        <ele>1634</ele>
        <time>2019-06-14T20:32:47Z</time>
      </trkpt>
      <trkpt lat="42.9784" lon="-0.00036">
        <ele>1635</ele>
        <time>2019-06-14T20:32:48Z</time>
      </trkpt>
      <trkpt lat="42.97825" lon="-0.00055">
        <ele>1637</ele>
        <time>2019-06-14T20:32:49Z</time>
      </trkpt>
      <trkpt lat="42.97809" lon="-0.00076">
        <ele>1639</ele>
        <time>2019-06-14T20:32:50Z</time>
      </trkpt>
      <trkpt lat="42.97793" lon="-0.00095">
        <ele>1640</ele>
        <time>2019-06-14T20:32:51Z</time>
      </trkpt>
      <trkpt lat="42.97778" lon="-0.00115">
        <ele>1640</ele>
        <time>2019-06-14T20:32:52Z</time>
      </trkpt>
      <trkpt lat="42.97763" lon="-0.00132">
        <ele>1640</ele>
        <time>2019-06-14T20:32:53Z</time>
      </trkpt>
      <trkpt lat="42.97745" lon="-0.0015">
        <ele>1640</ele>
        <time>2019-06-14T20:32:54Z</time>
      </trkpt>
      <trkpt lat="42.97728" lon="-0.00168">
        <ele>1640</ele>
        <time>2019-06-14T20:32:55Z</time>
      </trkpt>
      <trkpt lat="42.97709" lon="-0.00183">
        <ele>1640</ele>
        <time>2019-06-14T20:32:56Z</time>
      </trkpt>
      <trkpt lat="42.97691" lon="-0.00199">
        <ele>1640</ele>
        <time>2019-06-14T20:32:57Z</time>
      </trkpt>
      <trkpt lat="42.97673" lon="-0.00217">
        <ele>1640</ele>
        <time>2019-06-14T20:32:58Z</time>
      </trkpt>
      <trkpt lat="42.97656" lon="-0.00232">
        <ele>1640</ele>
        <time>2019-06-14T20:32:59Z</time>
      </trkpt>
      <trkpt lat="42.97638" lon="-0.00242">
        <ele>1640</ele>
        <time>2019-06-14T20:33:00Z</time>
      </trkpt>
      <trkpt lat="42.97622" lon="-0.00253">
        <ele>1640</ele>
        <time>2019-06-14T20:33:01Z</time>
      </trkpt>
      <trkpt lat="42.97601" lon="-0.00261">
        <ele>1640</ele>
        <time>2019-06-14T20:33:02Z</time>
      </trkpt>
      <trkpt lat="42.97581" lon="-0.00264">
        <ele>1640</ele>
        <time>2019-06-14T20:33:03Z</time>
      </trkpt>
      <trkpt lat="42.9756" lon="-0.00271">
        <ele>1639</ele>
        <time>2019-06-14T20:33:04Z</time>
      </trkpt>
      <trkpt lat="42.97541" lon="-0.00275">
        <ele>1638</ele>
        <time>2019-06-14T20:33:05Z</time>
      </trkpt>
      <trkpt lat="42.97521" lon="-0.00276">
        <ele>1636</ele>
        <time>2019-06-14T20:33:06Z</time>
      </trkpt>
      <trkpt lat="42.975" lon="-0.00276">
        <ele>1635</ele>
        <time>2019-06-14T20:33:07Z</time>
      </trkpt>
      <trkpt lat="42.9748" lon="-0.00274">
        <ele>1630</ele>
        <time>2019-06-14T20:33:08Z</time>
      </trkpt>
      <trkpt lat="42.97463" lon="-0.00282">
        <ele>1627</ele>
        <time>2019-06-14T20:33:09Z</time>
      </trkpt>
      <trkpt lat="42.97448" lon="-0.00298">
        <ele>1627</ele>
        <time>2019-06-14T20:33:10Z</time>
      </trkpt>
      <trkpt lat="42.9743" lon="-0.00321">
        <ele>1629</ele>
        <time>2019-06-14T20:33:11Z</time>
      </trkpt>
      <trkpt lat="42.97412" lon="-0.00332">
        <ele>1630</ele>
        <time>2019-06-14T20:33:12Z</time>
      </trkpt>
      <trkpt lat="42.97389" lon="-0.00331">
        <ele>1627</ele>
        <time>2019-06-14T20:33:13Z</time>
      </trkpt>
      <trkpt lat="42.97367" lon="-0.0033">
        <ele>1624</ele>
        <time>2019-06-14T20:33:14Z</time>
      </trkpt>
      <trkpt lat="42.97347" lon="-0.00328">
        <ele>1621</ele>
        <time>2019-06-14T20:33:15Z</time>
      </trkpt>
      <trkpt lat="42.97328" lon="-0.00334">
        <ele>1622</ele>
        <time>2019-06-14T20:33:16Z</time>
      </trkpt>
      <trkpt lat="42.97309" lon="-0.00335">
        <ele>1623</ele>
        <time>2019-06-14T20:33:17Z</time>
      </trkpt>
      <trkpt lat="42.97291" lon="-0.00335">
        <ele>1624</ele>
        <time>2019-06-14T20:33:18Z</time>
      </trkpt>
      <trkpt lat="42.97269" lon="-0.00336">
        <ele>1625</ele>
        <time>2019-06-14T20:33:19Z</time>
      </trkpt>
      <trkpt lat="42.97247" lon="-0.00334">
        <ele>1626</ele>
        <time>2019-06-14T20:33:20Z</time>
      </trkpt>
      <trkpt lat="42.97228" lon="-0.00332">
        <ele>1627</ele>
        <time>2019-06-14T20:33:21Z</time>
      </trkpt>
      <trkpt lat="42.97214" lon="-0.00315">
        <ele>1622</ele>
        <time>2019-06-14T20:33:22Z</time>
      </trkpt>
      <trkpt lat="42.97202" lon="-0.00294">
        <ele>1616</ele>
        <time>2019-06-14T20:33:23Z</time>
      </trkpt>
      <trkpt lat="42.97181" lon="-0.00294">
        <ele>1618</ele>
        <time>2019-06-14T20:33:24Z</time>
      </trkpt>
      <trkpt lat="42.97161" lon="-0.00305">
        <ele>1622</ele>
        <time>2019-06-14T20:33:25Z</time>
      </trkpt>
      <trkpt lat="42.97142" lon="-0.00304">
        <ele>1622</ele>
        <time>2019-06-14T20:33:26Z</time>
      </trkpt>
      <trkpt lat="42.9712" lon="-0.00303">
        <ele>1622</ele>
        <time>2019-06-14T20:33:27Z</time>
      </trkpt>
      <trkpt lat="42.97097" lon="-0.00301">
        <ele>1622</ele>
        <time>2019-06-14T20:33:28Z</time>
      </trkpt>
      <trkpt lat="42.97075" lon="-0.00302">
        <ele>1624</ele>
        <time>2019-06-14T20:33:29Z</time>
      </trkpt>
      <trkpt lat="42.97057" lon="-0.00315">
        <ele>1631</ele>
        <time>2019-06-14T20:33:30Z</time>
      </trkpt>
      <trkpt lat="42.97042" lon="-0.00332">
        <ele>1636</ele>
        <time>2019-06-14T20:33:31Z</time>
      </trkpt>
      <trkpt lat="42.97029" lon="-0.00352">
        <ele>1638</ele>
        <time>2019-06-14T20:33:32Z</time>
      </trkpt>
      <trkpt lat="42.97018" lon="-0.00372">
        <ele>1640</ele>
        <time>2019-06-14T20:33:33Z</time>
      </trkpt>
      <trkpt lat="42.97004" lon="-0.00391">
        <ele>1640</ele>
        <time>2019-06-14T20:33:34Z</time>
      </trkpt>
      <trkpt lat="42.96988" lon="-0.00404">
        <ele>1641</ele>
        <time>2019-06-14T20:33:35Z</time>
      </trkpt>
      <trkpt lat="42.96971" lon="-0.00414">
        <ele>1643</ele>
        <time>2019-06-14T20:33:36Z</time>
      </trkpt>
      <trkpt lat="42.96954" lon="-0.00423">
        <ele>1644</ele>
        <time>2019-06-14T20:33:37Z</time>
      </trkpt>
      <trkpt lat="42.96936" lon="-0.00431">
        <ele>1645</ele>
        <time>2019-06-14T20:33:38Z</time>
      </trkpt>
      <trkpt lat="42.96917" lon="-0.00441">
        <ele>1647</ele>
        <time>2019-06-14T20:33:39Z</time>
      </trkpt>
      <trkpt lat="42.96897" lon="-0.00447">
        <ele>1648</ele>
        <time>2019-06-14T20:33:40Z</time>
      </trkpt>
      <trkpt lat="42.96878" lon="-0.00454">
        <ele>1649</ele>
        <time>2019-06-14T20:33:41Z</time>
      </trkpt>
      <trkpt lat="42.96861" lon="-0.00462">
        <ele>1651</ele>
        <time>2019-06-14T20:33:42Z</time>
      </trkpt>
      <trkpt lat="42.96844" lon="-0.00471">
        <ele>1651</ele>
        <time>2019-06-14T20:33:43Z</time>
      </trkpt>
      <trkpt lat="42.96827" lon="-0.00486">
        <ele>1652</ele>
        <time>2019-06-14T20:33:44Z</time>
      </trkpt>
      <trkpt lat="42.96814" lon="-0.00503">
        <ele>1651</ele>
        <time>2019-06-14T20:33:45Z</time>
      </trkpt>
      <trkpt lat="42.96801" lon="-0.00523">
        <ele>1650</ele>
        <time>2019-06-14T20:33:46Z</time>
      </trkpt>
      <trkpt lat="42.96788" lon="-0.00544">
        <ele>1649</ele>
        <time>2019-06-14T20:33:47Z</time>
      </trkpt>
      <trkpt lat="42.96779" lon="-0.00568">
        <ele>1647</ele>
        <time>2019-06-14T20:33:48Z</time>
      </trkpt>
      <trkpt lat="42.9676" lon="-0.00577">
        <ele>1648</ele>
        <time>2019-06-14T20:33:49Z</time>
      </trkpt>
      <trkpt lat="42.96763" lon="-0.00548">
        <ele>1650</ele>
        <time>2019-06-14T20:33:50Z</time>
      </trkpt>
      <trkpt lat="42.96772" lon="-0.00525">
        <ele>1652</ele>
        <time>2019-06-14T20:33:51Z</time>
      </trkpt>
      <trkpt lat="42.96782" lon="-0.00504">
        <ele>1653</ele>
        <time>2019-06-14T20:33:52Z</time>
      </trkpt>
      <trkpt lat="42.96789" lon="-0.0048">
        <ele>1654</ele>
        <time>2019-06-14T20:33:53Z</time>
      </trkpt>
      <trkpt lat="42.96789" lon="-0.00452">
        <ele>1656</ele>
        <time>2019-06-14T20:33:54Z</time>
      </trkpt>
      <trkpt lat="42.9679" lon="-0.00426">
        <ele>1658</ele>
        <time>2019-06-14T20:33:55Z</time>
      </trkpt>
      <trkpt lat="42.96799" lon="-0.00403">
        <ele>1658</ele>
        <time>2019-06-14T20:33:56Z</time>
      </trkpt>
      <trkpt lat="42.96808" lon="-0.00379">
        <ele>1658</ele>
        <time>2019-06-14T20:33:57Z</time>
      </trkpt>
      <trkpt lat="42.96819" lon="-0.0036">
        <ele>1658</ele>
        <time>2019-06-14T20:33:58Z</time>
      </trkpt>
      <trkpt lat="42.96833" lon="-0.00337">
        <ele>1660</ele>
        <time>2019-06-14T20:33:59Z</time>
      </trkpt>
      <trkpt lat="42.96841" lon="-0.0031">
        <ele>1660</ele>
        <time>2019-06-14T20:34:00Z</time>
      </trkpt>
      <trkpt lat="42.96843" lon="-0.00286">
        <ele>1660</ele>
        <time>2019-06-14T20:34:01Z</time>
      </trkpt>
      <trkpt lat="42.96846" lon="-0.00256">
        <ele>1660</ele>
        <time>2019-06-14T20:34:02Z</time>
      </trkpt>
      <trkpt lat="42.96848" lon="-0.00227">
        <ele>1660</ele>
        <time>2019-06-14T20:34:03Z</time>
      </trkpt>
      <trkpt lat="42.96848" lon="-0.00198">
        <ele>1660</ele>
        <time>2019-06-14T20:34:04Z</time>
      </trkpt>
      <trkpt lat="42.96848" lon="-0.00168">
        <ele>1661</ele>
        <time>2019-06-14T20:34:05Z</time>
      </trkpt>
      <trkpt lat="42.96852" lon="-0.00141">
        <ele>1662</ele>
        <time>2019-06-14T20:34:06Z</time>
      </trkpt>
      <trkpt lat="42.96853" lon="-0.00115">
        <ele>1663</ele>
        <time>2019-06-14T20:34:07Z</time>
      </trkpt>
      <trkpt lat="42.96857" lon="-0.00087">
        <ele>1665</ele>
        <time>2019-06-14T20:34:08Z</time>
      </trkpt>
      <trkpt lat="42.96863" lon="-0.00059">
        <ele>1667</ele>
        <time>2019-06-14T20:34:09Z</time>
      </trkpt>
      <trkpt lat="42.96871" lon="-0.00034">
        <ele>1668</ele>
        <time>2019-06-14T20:34:10Z</time>
      </trkpt>
      <trkpt lat="42.96871" lon="-8.0E-5">
        <ele>1669</ele>
        <time>2019-06-14T20:34:11Z</time>
      </trkpt>
      <trkpt lat="42.96868" lon="0.00017">
        <ele>1670</ele>
        <time>2019-06-14T20:34:12Z</time>
      </trkpt>
      <trkpt lat="42.96871" lon="0.00047">
        <ele>1672</ele>
        <time>2019-06-14T20:34:13Z</time>
      </trkpt>
      <trkpt lat="42.96875" lon="0.00077">
        <ele>1673</ele>
        <time>2019-06-14T20:34:14Z</time>
      </trkpt>
      <trkpt lat="42.96866" lon="0.00101">
        <ele>1673</ele>
        <time>2019-06-14T20:34:15Z</time>
      </trkpt>
      <trkpt lat="42.96854" lon="0.00126">
        <ele>1672</ele>
        <time>2019-06-14T20:34:16Z</time>
      </trkpt>
      <trkpt lat="42.96844" lon="0.00148">
        <ele>1670</ele>
        <time>2019-06-14T20:34:17Z</time>
      </trkpt>
      <trkpt lat="42.96847" lon="0.00174">
        <ele>1670</ele>
        <time>2019-06-14T20:34:18Z</time>
      </trkpt>
      <trkpt lat="42.96854" lon="0.002">
        <ele>1670</ele>
        <time>2019-06-14T20:34:19Z</time>
      </trkpt>
      <trkpt lat="42.96862" lon="0.00226">
        <ele>1669</ele>
        <time>2019-06-14T20:34:20Z</time>
      </trkpt>
      <trkpt lat="42.96869" lon="0.00254">
        <ele>1670</ele>
        <time>2019-06-14T20:34:21Z</time>
      </trkpt>
      <trkpt lat="42.9688" lon="0.00277">
        <ele>1672</ele>
        <time>2019-06-14T20:34:22Z</time>
      </trkpt>
      <trkpt lat="42.96898" lon="0.00292">
        <ele>1676</ele>
        <time>2019-06-14T20:34:23Z</time>
      </trkpt>
      <trkpt lat="42.96906" lon="0.00316">
        <ele>1678</ele>
        <time>2019-06-14T20:34:24Z</time>
      </trkpt>
      <trkpt lat="42.969" lon="0.00341">
        <ele>1676</ele>
        <time>2019-06-14T20:34:25Z</time>
      </trkpt>
      <trkpt lat="42.96894" lon="0.00368">
        <ele>1675</ele>
        <time>2019-06-14T20:34:26Z</time>
      </trkpt>
      <trkpt lat="42.96893" lon="0.00394">
        <ele>1674</ele>
        <time>2019-06-14T20:34:27Z</time>
      </trkpt>
      <trkpt lat="42.96892" lon="0.0042">
        <ele>1674</ele>
        <time>2019-06-14T20:34:28Z</time>
      </trkpt>
      <trkpt lat="42.96894" lon="0.00449">
        <ele>1673</ele>
        <time>2019-06-14T20:34:29Z</time>
      </trkpt>
      <trkpt lat="42.96889" lon="0.00478">
        <ele>1672</ele>
        <time>2019-06-14T20:34:30Z</time>
      </trkpt>
      <trkpt lat="42.96879" lon="0.00507">
        <ele>1670</ele>
        <time>2019-06-14T20:34:31Z</time>
      </trkpt>
      <trkpt lat="42.96871" lon="0.00531">
        <ele>1668</ele>
        <time>2019-06-14T20:34:32Z</time>
      </trkpt>
      <trkpt lat="42.96865" lon="0.00558">
        <ele>1666</ele>
        <time>2019-06-14T20:34:33Z</time>
      </trkpt>
      <trkpt lat="42.96859" lon="0.00587">
        <ele>1664</ele>
        <time>2019-06-14T20:34:34Z</time>
      </trkpt>
      <trkpt lat="42.96859" lon="0.00617">
        <ele>1662</ele>
        <time>2019-06-14T20:34:35Z</time>
      </trkpt>
      <trkpt lat="42.96857" lon="0.00644">
        <ele>1661</ele>
        <time>2019-06-14T20:34:36Z</time>
      </trkpt>
      <trkpt lat="42.96854" lon="0.00676">
        <ele>1660</ele>
        <time>2019-06-14T20:34:37Z</time>
      </trkpt>
      <trkpt lat="42.96854" lon="0.00706">
        <ele>1661</ele>
        <time>2019-06-14T20:34:38Z</time>
      </trkpt>
      <trkpt lat="42.96839" lon="0.00723">
        <ele>1665</ele>
        <time>2019-06-14T20:34:39Z</time>
      </trkpt>
      <trkpt lat="42.96824" lon="0.00738">
        <ele>1666</ele>
        <time>2019-06-14T20:34:40Z</time>
      </trkpt>
      <trkpt lat="42.96813" lon="0.0076">
        <ele>1667</ele>
        <time>2019-06-14T20:34:41Z</time>
      </trkpt>
      <trkpt lat="42.96801" lon="0.00778">
        <ele>1667</ele>
        <time>2019-06-14T20:34:42Z</time>
      </trkpt>
      <trkpt lat="42.96791" lon="0.00802">
        <ele>1669</ele>
        <time>2019-06-14T20:34:43Z</time>
      </trkpt>
      <trkpt lat="42.96783" lon="0.00824">
        <ele>1671</ele>
        <time>2019-06-14T20:34:44Z</time>
      </trkpt>
      <trkpt lat="42.96777" lon="0.00849">
        <ele>1674</ele>
        <time>2019-06-14T20:34:45Z</time>
      </trkpt>
      <trkpt lat="42.96767" lon="0.00871">
        <ele>1677</ele>
        <time>2019-06-14T20:34:46Z</time>
      </trkpt>
      <trkpt lat="42.96756" lon="0.00896">
        <ele>1680</ele>
        <time>2019-06-14T20:34:47Z</time>
      </trkpt>
      <trkpt lat="42.96743" lon="0.00915">
        <ele>1680</ele>
        <time>2019-06-14T20:34:48Z</time>
      </trkpt>
      <trkpt lat="42.96731" lon="0.00934">
        <ele>1680</ele>
        <time>2019-06-14T20:34:49Z</time>
      </trkpt>
      <trkpt lat="42.9672" lon="0.00955">
        <ele>1679</ele>
        <time>2019-06-14T20:34:50Z</time>
      </trkpt>
      <trkpt lat="42.96707" lon="0.0098">
        <ele>1678</ele>
        <time>2019-06-14T20:34:51Z</time>
      </trkpt>
      <trkpt lat="42.96692" lon="0.01003">
        <ele>1677</ele>
        <time>2019-06-14T20:34:52Z</time>
      </trkpt>
      <trkpt lat="42.96684" lon="0.0103">
        <ele>1676</ele>
        <time>2019-06-14T20:34:53Z</time>
      </trkpt>
      <trkpt lat="42.96678" lon="0.0106">
        <ele>1677</ele>
        <time>2019-06-14T20:34:54Z</time>
      </trkpt>
      <trkpt lat="42.96669" lon="0.01085">
        <ele>1676</ele>
        <time>2019-06-14T20:34:55Z</time>
      </trkpt>
      <trkpt lat="42.96664" lon="0.01109">
        <ele>1677</ele>
        <time>2019-06-14T20:34:56Z</time>
      </trkpt>
      <trkpt lat="42.96653" lon="0.01135">
        <ele>1676</ele>
        <time>2019-06-14T20:34:57Z</time>
      </trkpt>
      <trkpt lat="42.96635" lon="0.01152">
        <ele>1672</ele>
        <time>2019-06-14T20:34:58Z</time>
      </trkpt>
      <trkpt lat="42.96629" lon="0.01177">
        <ele>1673</ele>
        <time>2019-06-14T20:34:59Z</time>
      </trkpt>
      <trkpt lat="42.96626" lon="0.01212">
        <ele>1675</ele>
        <time>2019-06-14T20:35:00Z</time>
      </trkpt>
      <trkpt lat="42.9662" lon="0.01238">
        <ele>1676</ele>
        <time>2019-06-14T20:35:01Z</time>
      </trkpt>
      <trkpt lat="42.9661" lon="0.01259">
        <ele>1675</ele>
        <time>2019-06-14T20:35:02Z</time>
      </trkpt>
      <trkpt lat="42.96596" lon="0.01275">
        <ele>1672</ele>
        <time>2019-06-14T20:35:03Z</time>
      </trkpt>
      <trkpt lat="42.96578" lon="0.01299">
        <ele>1668</ele>
        <time>2019-06-14T20:35:04Z</time>
      </trkpt>
      <trkpt lat="42.96563" lon="0.01327">
        <ele>1667</ele>
        <time>2019-06-14T20:35:05Z</time>
      </trkpt>
      <trkpt lat="42.96548" lon="0.01356">
        <ele>1666</ele>
        <time>2019-06-14T20:35:06Z</time>
      </trkpt>
      <trkpt lat="42.96528" lon="0.01366">
        <ele>1662</ele>
        <time>2019-06-14T20:35:07Z</time>
      </trkpt>
      <trkpt lat="42.9651" lon="0.01373">
        <ele>1657</ele>
        <time>2019-06-14T20:35:08Z</time>
      </trkpt>
      <trkpt lat="42.96492" lon="0.01377">
        <ele>1653</ele>
        <time>2019-06-14T20:35:09Z</time>
      </trkpt>
      <trkpt lat="42.96471" lon="0.01391">
        <ele>1649</ele>
        <time>2019-06-14T20:35:10Z</time>
      </trkpt>
      <trkpt lat="42.96455" lon="0.01408">
        <ele>1646</ele>
        <time>2019-06-14T20:35:11Z</time>
      </trkpt>
      <trkpt lat="42.96443" lon="0.01432">
        <ele>1645</ele>
        <time>2019-06-14T20:35:12Z</time>
      </trkpt>
      <trkpt lat="42.96432" lon="0.01455">
        <ele>1645</ele>
        <time>2019-06-14T20:35:13Z</time>
      </trkpt>
      <trkpt lat="42.96425" lon="0.01481">
        <ele>1646</ele>
        <time>2019-06-14T20:35:14Z</time>
      </trkpt>
      <trkpt lat="42.96416" lon="0.01503">
        <ele>1646</ele>
        <time>2019-06-14T20:35:15Z</time>
      </trkpt>
      <trkpt lat="42.96405" lon="0.01525">
        <ele>1646</ele>
        <time>2019-06-14T20:35:16Z</time>
      </trkpt>
      <trkpt lat="42.96393" lon="0.01549">
        <ele>1645</ele>
        <time>2019-06-14T20:35:17Z</time>
      </trkpt>
      <trkpt lat="42.96385" lon="0.0158">
        <ele>1646</ele>
        <time>2019-06-14T20:35:18Z</time>
      </trkpt>
      <trkpt lat="42.96375" lon="0.01605">
        <ele>1647</ele>
        <time>2019-06-14T20:35:19Z</time>
      </trkpt>
      <trkpt lat="42.96366" lon="0.01629">
        <ele>1647</ele>
        <time>2019-06-14T20:35:20Z</time>
      </trkpt>
      <trkpt lat="42.96356" lon="0.0165">
        <ele>1648</ele>
        <time>2019-06-14T20:35:21Z</time>
      </trkpt>
      <trkpt lat="42.96343" lon="0.0167">
        <ele>1647</ele>
        <time>2019-06-14T20:35:22Z</time>
      </trkpt>
      <trkpt lat="42.96329" lon="0.01688">
        <ele>1646</ele>
        <time>2019-06-14T20:35:23Z</time>
      </trkpt>
      <trkpt lat="42.96311" lon="0.01708">
        <ele>1644</ele>
        <time>2019-06-14T20:35:24Z</time>
      </trkpt>
      <trkpt lat="42.96295" lon="0.01727">
        <ele>1643</ele>
        <time>2019-06-14T20:35:25Z</time>
      </trkpt>
      <trkpt lat="42.96279" lon="0.01744">
        <ele>1641</ele>
        <time>2019-06-14T20:35:26Z</time>
      </trkpt>
      <trkpt lat="42.96264" lon="0.0176">
        <ele>1640</ele>
        <time>2019-06-14T20:35:27Z</time>
      </trkpt>
      <trkpt lat="42.96252" lon="0.01779">
        <ele>1640</ele>
        <time>2019-06-14T20:35:28Z</time>
      </trkpt>
      <trkpt lat="42.96246" lon="0.01807">
        <ele>1643</ele>
        <time>2019-06-14T20:35:29Z</time>
      </trkpt>
      <trkpt lat="42.96235" lon="0.0183">
        <ele>1643</ele>
        <time>2019-06-14T20:35:30Z</time>
      </trkpt>
      <trkpt lat="42.96223" lon="0.01853">
        <ele>1642</ele>
        <time>2019-06-14T20:35:31Z</time>
      </trkpt>
      <trkpt lat="42.96209" lon="0.01875">
        <ele>1641</ele>
        <time>2019-06-14T20:35:32Z</time>
      </trkpt>
      <trkpt lat="42.96198" lon="0.01898">
        <ele>1640</ele>
        <time>2019-06-14T20:35:33Z</time>
      </trkpt>
      <trkpt lat="42.96187" lon="0.01917">
        <ele>1639</ele>
        <time>2019-06-14T20:35:34Z</time>
      </trkpt>
      <trkpt lat="42.96177" lon="0.01938">
        <ele>1640</ele>
        <time>2019-06-14T20:35:35Z</time>
      </trkpt>
      <trkpt lat="42.9617" lon="0.01964">
        <ele>1643</ele>
        <time>2019-06-14T20:35:36Z</time>
      </trkpt>
      <trkpt lat="42.9616" lon="0.0199">
        <ele>1645</ele>
        <time>2019-06-14T20:35:37Z</time>
      </trkpt>
      <trkpt lat="42.96151" lon="0.02014">
        <ele>1646</ele>
        <time>2019-06-14T20:35:38Z</time>
      </trkpt>
      <trkpt lat="42.96139" lon="0.02039">
        <ele>1648</ele>
        <time>2019-06-14T20:35:39Z</time>
      </trkpt>
      <trkpt lat="42.96123" lon="0.02058">
        <ele>1646</ele>
        <time>2019-06-14T20:35:40Z</time>
      </trkpt>
      <trkpt lat="42.96106" lon="0.02077">
        <ele>1644</ele>
        <time>2019-06-14T20:35:41Z</time>
      </trkpt>
      <trkpt lat="42.96087" lon="0.02098">
        <ele>1642</ele>
        <time>2019-06-14T20:35:42Z</time>
      </trkpt>
      <trkpt lat="42.96068" lon="0.02119">
        <ele>1640</ele>
        <time>2019-06-14T20:35:43Z</time>
      </trkpt>
      <trkpt lat="42.96047" lon="0.02139">
        <ele>1637</ele>
        <time>2019-06-14T20:35:44Z</time>
      </trkpt>
      <trkpt lat="42.96027" lon="0.02158">
        <ele>1634</ele>
        <time>2019-06-14T20:35:45Z</time>
      </trkpt>
      <trkpt lat="42.96011" lon="0.02181">
        <ele>1634</ele>
        <time>2019-06-14T20:35:46Z</time>
      </trkpt>
      <trkpt lat="42.95993" lon="0.022">
        <ele>1633</ele>
        <time>2019-06-14T20:35:47Z</time>
      </trkpt>
      <trkpt lat="42.95973" lon="0.02215">
        <ele>1632</ele>
        <time>2019-06-14T20:35:48Z</time>
      </trkpt>
      <trkpt lat="42.95951" lon="0.02229">
        <ele>1629</ele>
        <time>2019-06-14T20:35:49Z</time>
      </trkpt>
      <trkpt lat="42.95926" lon="0.02244">
        <ele>1626</ele>
        <time>2019-06-14T20:35:50Z</time>
      </trkpt>
      <trkpt lat="42.95904" lon="0.02256">
        <ele>1623</ele>
        <time>2019-06-14T20:35:51Z</time>
      </trkpt>
      <trkpt lat="42.95884" lon="0.02265">
        <ele>1620</ele>
        <time>2019-06-14T20:35:52Z</time>
      </trkpt>
      <trkpt lat="42.95861" lon="0.02277">
        <ele>1618</ele>
        <time>2019-06-14T20:35:53Z</time>
      </trkpt>
      <trkpt lat="42.95843" lon="0.02287">
        <ele>1616</ele>
        <time>2019-06-14T20:35:54Z</time>
      </trkpt>
      <trkpt lat="42.95825" lon="0.02298">
        <ele>1615</ele>
        <time>2019-06-14T20:35:55Z</time>
      </trkpt>
      <trkpt lat="42.95806" lon="0.02314">
        <ele>1615</ele>
        <time>2019-06-14T20:35:56Z</time>
      </trkpt>
      <trkpt lat="42.95789" lon="0.0233">
        <ele>1615</ele>
        <time>2019-06-14T20:35:57Z</time>
      </trkpt>
      <trkpt lat="42.95774" lon="0.02352">
        <ele>1618</ele>
        <time>2019-06-14T20:35:58Z</time>
      </trkpt>
      <trkpt lat="42.95756" lon="0.02361">
        <ele>1616</ele>
        <time>2019-06-14T20:35:59Z</time>
      </trkpt>
      <trkpt lat="42.95737" lon="0.02361">
        <ele>1612</ele>
        <time>2019-06-14T20:36:00Z</time>
      </trkpt>
      <trkpt lat="42.95717" lon="0.02361">
        <ele>1611</ele>
        <time>2019-06-14T20:36:01Z</time>
      </trkpt>
      <trkpt lat="42.95696" lon="0.02366">
        <ele>1611</ele>
        <time>2019-06-14T20:36:02Z</time>
      </trkpt>
      <trkpt lat="42.95676" lon="0.0237">
        <ele>1610</ele>
        <time>2019-06-14T20:36:03Z</time>
      </trkpt>
      <trkpt lat="42.95655" lon="0.02364">
        <ele>1608</ele>
        <time>2019-06-14T20:36:04Z</time>
      </trkpt>
      <trkpt lat="42.95634" lon="0.02369">
        <ele>1610</ele>
        <time>2019-06-14T20:36:05Z</time>
      </trkpt>
      <trkpt lat="42.95616" lon="0.02374">
        <ele>1611</ele>
        <time>2019-06-14T20:36:06Z</time>
      </trkpt>
      <trkpt lat="42.95598" lon="0.02376">
        <ele>1612</ele>
        <time>2019-06-14T20:36:07Z</time>
      </trkpt>
      <trkpt lat="42.95578" lon="0.02373">
        <ele>1611</ele>
        <time>2019-06-14T20:36:08Z</time>
      </trkpt>
      <trkpt lat="42.95558" lon="0.02371">
        <ele>1609</ele>
        <time>2019-06-14T20:36:09Z</time>
      </trkpt>
      <trkpt lat="42.95539" lon="0.02378">
        <ele>1608</ele>
        <time>2019-06-14T20:36:10Z</time>
      </trkpt>
      <trkpt lat="42.95521" lon="0.02383">
        <ele>1607</ele>
        <time>2019-06-14T20:36:11Z</time>
      </trkpt>
      <trkpt lat="42.95502" lon="0.02389">
        <ele>1606</ele>
        <time>2019-06-14T20:36:12Z</time>
      </trkpt>
      <trkpt lat="42.95484" lon="0.02398">
        <ele>1604</ele>
        <time>2019-06-14T20:36:13Z</time>
      </trkpt>
      <trkpt lat="42.95467" lon="0.02409">
        <ele>1602</ele>
        <time>2019-06-14T20:36:14Z</time>
      </trkpt>
      <trkpt lat="42.95448" lon="0.02422">
        <ele>1600</ele>
        <time>2019-06-14T20:36:15Z</time>
      </trkpt>
      <trkpt lat="42.95435" lon="0.02444">
        <ele>1602</ele>
        <time>2019-06-14T20:36:16Z</time>
      </trkpt>
      <trkpt lat="42.9542" lon="0.02463">
        <ele>1602</ele>
        <time>2019-06-14T20:36:17Z</time>
      </trkpt>
      <trkpt lat="42.95402" lon="0.02462">
        <ele>1600</ele>
        <time>2019-06-14T20:36:18Z</time>
      </trkpt>
      <trkpt lat="42.95382" lon="0.02461">
        <ele>1598</ele>
        <time>2019-06-14T20:36:19Z</time>
      </trkpt>
      <trkpt lat="42.95362" lon="0.02462">
        <ele>1596</ele>
        <time>2019-06-14T20:36:20Z</time>
      </trkpt>
      <trkpt lat="42.95343" lon="0.02468">
        <ele>1595</ele>
        <time>2019-06-14T20:36:21Z</time>
      </trkpt>
      <trkpt lat="42.95322" lon="0.02472">
        <ele>1593</ele>
        <time>2019-06-14T20:36:22Z</time>
      </trkpt>
      <trkpt lat="42.95304" lon="0.02476">
        <ele>1592</ele>
        <time>2019-06-14T20:36:23Z</time>
      </trkpt>
      <trkpt lat="42.95284" lon="0.02484">
        <ele>1591</ele>
        <time>2019-06-14T20:36:24Z</time>
      </trkpt>
      <trkpt lat="42.95264" lon="0.02478">
        <ele>1588</ele>
        <time>2019-06-14T20:36:25Z</time>
      </trkpt>
      <trkpt lat="42.95252" lon="0.02458">
        <ele>1584</ele>
        <time>2019-06-14T20:36:26Z</time>
      </trkpt>
      <trkpt lat="42.95243" lon="0.02433">
        <ele>1580</ele>
        <time>2019-06-14T20:36:27Z</time>
      </trkpt>
      <trkpt lat="42.9523" lon="0.02407">
        <ele>1574</ele>
        <time>2019-06-14T20:36:28Z</time>
      </trkpt>
      <trkpt lat="42.95217" lon="0.02388">
        <ele>1570</ele>
        <time>2019-06-14T20:36:29Z</time>
      </trkpt>
      <trkpt lat="42.95209" lon="0.02362">
        <ele>1567</ele>
        <time>2019-06-14T20:36:30Z</time>
      </trkpt>
      <trkpt lat="42.95201" lon="0.02337">
        <ele>1565</ele>
        <time>2019-06-14T20:36:31Z</time>
      </trkpt>
      <trkpt lat="42.95192" lon="0.02315">
        <ele>1563</ele>
        <time>2019-06-14T20:36:32Z</time>
      </trkpt>
      <trkpt lat="42.95187" lon="0.02289">
        <ele>1562</ele>
        <time>2019-06-14T20:36:33Z</time>
      </trkpt>
      <trkpt lat="42.95202" lon="0.02275">
        <ele>1563</ele>
        <time>2019-06-14T20:36:34Z</time>
      </trkpt>
      <trkpt lat="42.95218" lon="0.02262">
        <ele>1563</ele>
        <time>2019-06-14T20:36:35Z</time>
      </trkpt>
      <trkpt lat="42.95234" lon="0.0225">
        <ele>1563</ele>
        <time>2019-06-14T20:36:36Z</time>
      </trkpt>
      <trkpt lat="42.95252" lon="0.02244">
        <ele>1564</ele>
        <time>2019-06-14T20:36:37Z</time>
      </trkpt>
      <trkpt lat="42.95267" lon="0.02225">
        <ele>1564</ele>
        <time>2019-06-14T20:36:38Z</time>
      </trkpt>
      <trkpt lat="42.95277" lon="0.02203">
        <ele>1564</ele>
        <time>2019-06-14T20:36:39Z</time>
      </trkpt>
      <trkpt lat="42.95292" lon="0.02187">
        <ele>1564</ele>
        <time>2019-06-14T20:36:40Z</time>
      </trkpt>
      <trkpt lat="42.95308" lon="0.02171">
        <ele>1563</ele>
        <time>2019-06-14T20:36:41Z</time>
      </trkpt>
      <trkpt lat="42.95319" lon="0.02151">
        <ele>1562</ele>
        <time>2019-06-14T20:36:42Z</time>
      </trkpt>
      <trkpt lat="42.95329" lon="0.02127">
        <ele>1561</ele>
        <time>2019-06-14T20:36:43Z</time>
      </trkpt>
      <trkpt lat="42.95342" lon="0.02109">
        <ele>1559</ele>
        <time>2019-06-14T20:36:44Z</time>
      </trkpt>
      <trkpt lat="42.95358" lon="0.02091">
        <ele>1556</ele>
        <time>2019-06-14T20:36:45Z</time>
      </trkpt>
      <trkpt lat="42.9537" lon="0.02072">
        <ele>1554</ele>
        <time>2019-06-14T20:36:46Z</time>
      </trkpt>
      <trkpt lat="42.95377" lon="0.02048">
        <ele>1551</ele>
        <time>2019-06-14T20:36:47Z</time>
      </trkpt>
      <trkpt lat="42.9539" lon="0.02028">
        <ele>1548</ele>
        <time>2019-06-14T20:36:48Z</time>
      </trkpt>
      <trkpt lat="42.95407" lon="0.02037">
        <ele>1547</ele>
        <time>2019-06-14T20:36:49Z</time>
      </trkpt>
      <trkpt lat="42.95421" lon="0.02052">
        <ele>1548</ele>
        <time>2019-06-14T20:36:50Z</time>
      </trkpt>
      <trkpt lat="42.95431" lon="0.02075">
        <ele>1551</ele>
        <time>2019-06-14T20:36:51Z</time>
      </trkpt>
      <trkpt lat="42.95453" lon="0.02083">
        <ele>1553</ele>
        <time>2019-06-14T20:36:52Z</time>
      </trkpt>
      <trkpt lat="42.95469" lon="0.0207">
        <ele>1553</ele>
        <time>2019-06-14T20:36:53Z</time>
      </trkpt>
      <trkpt lat="42.95484" lon="0.02084">
        <ele>1557</ele>
        <time>2019-06-14T20:36:54Z</time>
      </trkpt>
      <trkpt lat="42.95502" lon="0.0208">
        <ele>1558</ele>
        <time>2019-06-14T20:36:55Z</time>
      </trkpt>
      <trkpt lat="42.9552" lon="0.02082">
        <ele>1559</ele>
        <time>2019-06-14T20:36:56Z</time>
      </trkpt>
      <trkpt lat="42.95541" lon="0.02085">
        <ele>1560</ele>
        <time>2019-06-14T20:36:57Z</time>
      </trkpt>
      <trkpt lat="42.95559" lon="0.02075">
        <ele>1558</ele>
        <time>2019-06-14T20:36:58Z</time>
      </trkpt>
      <trkpt lat="42.95572" lon="0.02056">
        <ele>1555</ele>
        <time>2019-06-14T20:36:59Z</time>
      </trkpt>
      <trkpt lat="42.95586" lon="0.02036">
        <ele>1551</ele>
        <time>2019-06-14T20:37:00Z</time>
      </trkpt>
      <trkpt lat="42.95598" lon="0.02011">
        <ele>1544</ele>
        <time>2019-06-14T20:37:01Z</time>
      </trkpt>
      <trkpt lat="42.9561" lon="0.01977">
        <ele>1536</ele>
        <time>2019-06-14T20:37:02Z</time>
      </trkpt>
      <trkpt lat="42.95621" lon="0.01955">
        <ele>1531</ele>
        <time>2019-06-14T20:37:03Z</time>
      </trkpt>
      <trkpt lat="42.9564" lon="0.01944">
        <ele>1526</ele>
        <time>2019-06-14T20:37:04Z</time>
      </trkpt>
      <trkpt lat="42.95622" lon="0.01939">
        <ele>1528</ele>
        <time>2019-06-14T20:37:05Z</time>
      </trkpt>
      <trkpt lat="42.95624" lon="0.01912">
        <ele>1522</ele>
        <time>2019-06-14T20:37:06Z</time>
      </trkpt>
      <trkpt lat="42.95628" lon="0.01886">
        <ele>1518</ele>
        <time>2019-06-14T20:37:07Z</time>
      </trkpt>
      <trkpt lat="42.95629" lon="0.01856">
        <ele>1513</ele>
        <time>2019-06-14T20:37:08Z</time>
      </trkpt>
      <trkpt lat="42.95622" lon="0.01831">
        <ele>1510</ele>
        <time>2019-06-14T20:37:09Z</time>
      </trkpt>
      <trkpt lat="42.9562" lon="0.01807">
        <ele>1508</ele>
        <time>2019-06-14T20:37:10Z</time>
      </trkpt>
      <trkpt lat="42.95633" lon="0.01785">
        <ele>1503</ele>
        <time>2019-06-14T20:37:11Z</time>
      </trkpt>
      <trkpt lat="42.95639" lon="0.01762">
        <ele>1498</ele>
        <time>2019-06-14T20:37:12Z</time>
      </trkpt>
      <trkpt lat="42.95646" lon="0.01738">
        <ele>1495</ele>
        <time>2019-06-14T20:37:13Z</time>
      </trkpt>
      <trkpt lat="42.95646" lon="0.01713">
        <ele>1494</ele>
        <time>2019-06-14T20:37:14Z</time>
      </trkpt>
      <trkpt lat="42.95648" lon="0.01686">
        <ele>1493</ele>
        <time>2019-06-14T20:37:15Z</time>
      </trkpt>
      <trkpt lat="42.9564" lon="0.01663">
        <ele>1497</ele>
        <time>2019-06-14T20:37:16Z</time>
      </trkpt>
      <trkpt lat="42.95644" lon="0.01637">
        <ele>1499</ele>
        <time>2019-06-14T20:37:17Z</time>
      </trkpt>
      <trkpt lat="42.95642" lon="0.01609">
        <ele>1504</ele>
        <time>2019-06-14T20:37:18Z</time>
      </trkpt>
      <trkpt lat="42.95649" lon="0.01584">
        <ele>1504</ele>
        <time>2019-06-14T20:37:19Z</time>
      </trkpt>
      <trkpt lat="42.95657" lon="0.01559">
        <ele>1506</ele>
        <time>2019-06-14T20:37:20Z</time>
      </trkpt>
      <trkpt lat="42.95668" lon="0.01537">
        <ele>1505</ele>
        <time>2019-06-14T20:37:21Z</time>
      </trkpt>
      <trkpt lat="42.95683" lon="0.01519">
        <ele>1502</ele>
        <time>2019-06-14T20:37:22Z</time>
      </trkpt>
      <trkpt lat="42.95696" lon="0.01494">
        <ele>1500</ele>
        <time>2019-06-14T20:37:23Z</time>
      </trkpt>
      <trkpt lat="42.95706" lon="0.01466">
        <ele>1501</ele>
        <time>2019-06-14T20:37:24Z</time>
      </trkpt>
      <trkpt lat="42.95708" lon="0.01439">
        <ele>1504</ele>
        <time>2019-06-14T20:37:25Z</time>
      </trkpt>
      <trkpt lat="42.95715" lon="0.01413">
        <ele>1505</ele>
        <time>2019-06-14T20:37:26Z</time>
      </trkpt>
      <trkpt lat="42.95719" lon="0.01386">
        <ele>1507</ele>
        <time>2019-06-14T20:37:27Z</time>
      </trkpt>
      <trkpt lat="42.95721" lon="0.01359">
        <ele>1510</ele>
        <time>2019-06-14T20:37:28Z</time>
      </trkpt>
      <trkpt lat="42.95729" lon="0.01334">
        <ele>1510</ele>
        <time>2019-06-14T20:37:29Z</time>
      </trkpt>
      <trkpt lat="42.95743" lon="0.01317">
        <ele>1505</ele>
        <time>2019-06-14T20:37:30Z</time>
      </trkpt>
      <trkpt lat="42.95752" lon="0.01289">
        <ele>1503</ele>
        <time>2019-06-14T20:37:31Z</time>
      </trkpt>
      <trkpt lat="42.95762" lon="0.01268">
        <ele>1500</ele>
        <time>2019-06-14T20:37:32Z</time>
      </trkpt>
      <trkpt lat="42.95765" lon="0.01236">
        <ele>1501</ele>
        <time>2019-06-14T20:37:33Z</time>
      </trkpt>
      <trkpt lat="42.95774" lon="0.01209">
        <ele>1499</ele>
        <time>2019-06-14T20:37:34Z</time>
      </trkpt>
      <trkpt lat="42.95786" lon="0.01187">
        <ele>1495</ele>
        <time>2019-06-14T20:37:35Z</time>
      </trkpt>
      <trkpt lat="42.95798" lon="0.01163">
        <ele>1492</ele>
        <time>2019-06-14T20:37:36Z</time>
      </trkpt>
      <trkpt lat="42.9581" lon="0.01143">
        <ele>1488</ele>
        <time>2019-06-14T20:37:37Z</time>
      </trkpt>
      <trkpt lat="42.95819" lon="0.01118">
        <ele>1486</ele>
        <time>2019-06-14T20:37:38Z</time>
      </trkpt>
      <trkpt lat="42.95824" lon="0.01094">
        <ele>1485</ele>
        <time>2019-06-14T20:37:39Z</time>
      </trkpt>
      <trkpt lat="42.95831" lon="0.01068">
        <ele>1484</ele>
        <time>2019-06-14T20:37:40Z</time>
      </trkpt>
      <trkpt lat="42.95838" lon="0.0104">
        <ele>1481</ele>
        <time>2019-06-14T20:37:41Z</time>
      </trkpt>
      <trkpt lat="42.95846" lon="0.01015">
        <ele>1477</ele>
        <time>2019-06-14T20:37:42Z</time>
      </trkpt>
      <trkpt lat="42.95855" lon="0.00991">
        <ele>1474</ele>
        <time>2019-06-14T20:37:43Z</time>
      </trkpt>
      <trkpt lat="42.9586" lon="0.00966">
        <ele>1473</ele>
        <time>2019-06-14T20:37:44Z</time>
      </trkpt>
      <trkpt lat="42.95864" lon="0.00941">
        <ele>1472</ele>
        <time>2019-06-14T20:37:45Z</time>
      </trkpt>
      <trkpt lat="42.95864" lon="0.00915">
        <ele>1473</ele>
        <time>2019-06-14T20:37:46Z</time>
      </trkpt>
      <trkpt lat="42.95869" lon="0.00889">
        <ele>1472</ele>
        <time>2019-06-14T20:37:47Z</time>
      </trkpt>
      <trkpt lat="42.9587" lon="0.00862">
        <ele>1472</ele>
        <time>2019-06-14T20:37:48Z</time>
      </trkpt>
      <trkpt lat="42.95869" lon="0.00833">
        <ele>1474</ele>
        <time>2019-06-14T20:37:49Z</time>
      </trkpt>
      <trkpt lat="42.95867" lon="0.00805">
        <ele>1475</ele>
        <time>2019-06-14T20:37:50Z</time>
      </trkpt>
      <trkpt lat="42.95886" lon="0.00791">
        <ele>1466</ele>
        <time>2019-06-14T20:37:51Z</time>
      </trkpt>
      <trkpt lat="42.95892" lon="0.00758">
        <ele>1464</ele>
        <time>2019-06-14T20:37:52Z</time>
      </trkpt>
      <trkpt lat="42.95896" lon="0.00733">
        <ele>1462</ele>
        <time>2019-06-14T20:37:53Z</time>
      </trkpt>
      <trkpt lat="42.95898" lon="0.00707">
        <ele>1461</ele>
        <time>2019-06-14T20:37:54Z</time>
      </trkpt>
      <trkpt lat="42.95896" lon="0.00675">
        <ele>1463</ele>
        <time>2019-06-14T20:37:55Z</time>
      </trkpt>
      <trkpt lat="42.95896" lon="0.0065">
        <ele>1463</ele>
        <time>2019-06-14T20:37:56Z</time>
      </trkpt>
      <trkpt lat="42.95901" lon="0.00621">
        <ele>1460</ele>
        <time>2019-06-14T20:37:57Z</time>
      </trkpt>
      <trkpt lat="42.95903" lon="0.00593">
        <ele>1459</ele>
        <time>2019-06-14T20:37:58Z</time>
      </trkpt>
      <trkpt lat="42.95905" lon="0.00564">
        <ele>1457</ele>
        <time>2019-06-14T20:37:59Z</time>
      </trkpt>
      <trkpt lat="42.95902" lon="0.00538">
        <ele>1458</ele>
        <time>2019-06-14T20:38:00Z</time>
      </trkpt>
      <trkpt lat="42.959" lon="0.00513">
        <ele>1457</ele>
        <time>2019-06-14T20:38:01Z</time>
      </trkpt>
      <trkpt lat="42.95901" lon="0.00485">
        <ele>1455</ele>
        <time>2019-06-14T20:38:02Z</time>
      </trkpt>
      <trkpt lat="42.95903" lon="0.00459">
        <ele>1453</ele>
        <time>2019-06-14T20:38:03Z</time>
      </trkpt>
      <trkpt lat="42.95907" lon="0.00431">
        <ele>1449</ele>
        <time>2019-06-14T20:38:04Z</time>
      </trkpt>
      <trkpt lat="42.95918" lon="0.00408">
        <ele>1442</ele>
        <time>2019-06-14T20:38:05Z</time>
      </trkpt>
      <trkpt lat="42.95922" lon="0.00382">
        <ele>1438</ele>
        <time>2019-06-14T20:38:06Z</time>
      </trkpt>
      <trkpt lat="42.95926" lon="0.00357">
        <ele>1435</ele>
        <time>2019-06-14T20:38:07Z</time>
      </trkpt>
      <trkpt lat="42.95926" lon="0.0033">
        <ele>1433</ele>
        <time>2019-06-14T20:38:08Z</time>
      </trkpt>
      <trkpt lat="42.95934" lon="0.00302">
        <ele>1426</ele>
        <time>2019-06-14T20:38:09Z</time>
      </trkpt>
      <trkpt lat="42.9594" lon="0.00276">
        <ele>1421</ele>
        <time>2019-06-14T20:38:10Z</time>
      </trkpt>
      <trkpt lat="42.95937" lon="0.00251">
        <ele>1421</ele>
        <time>2019-06-14T20:38:11Z</time>
      </trkpt>
      <trkpt lat="42.95941" lon="0.00223">
        <ele>1417</ele>
        <time>2019-06-14T20:38:12Z</time>
      </trkpt>
      <trkpt lat="42.95948" lon="0.00199">
        <ele>1411</ele>
        <time>2019-06-14T20:38:13Z</time>
      </trkpt>
      <trkpt lat="42.95951" lon="0.00173">
        <ele>1407</ele>
        <time>2019-06-14T20:38:14Z</time>
      </trkpt>
      <trkpt lat="42.95953" lon="0.00144">
        <ele>1404</ele>
        <time>2019-06-14T20:38:15Z</time>
      </trkpt>
      <trkpt lat="42.95961" lon="0.00116">
        <ele>1397</ele>
        <time>2019-06-14T20:38:16Z</time>
      </trkpt>
      <trkpt lat="42.95966" lon="0.0009">
        <ele>1393</ele>
        <time>2019-06-14T20:38:17Z</time>
      </trkpt>
      <trkpt lat="42.9598" lon="0.00075">
        <ele>1384</ele>
        <time>2019-06-14T20:38:18Z</time>
      </trkpt>
      <trkpt lat="42.95969" lon="0.00055">
        <ele>1388</ele>
        <time>2019-06-14T20:38:19Z</time>
      </trkpt>
      <trkpt lat="42.9597" lon="0.00026">
        <ele>1386</ele>
        <time>2019-06-14T20:38:20Z</time>
      </trkpt>
      <trkpt lat="42.95973" lon="1.0E-5">
        <ele>1382</ele>
        <time>2019-06-14T20:38:21Z</time>
      </trkpt>
      <trkpt lat="42.95974" lon="-0.00028">
        <ele>1380</ele>
        <time>2019-06-14T20:38:22Z</time>
      </trkpt>
      <trkpt lat="42.95972" lon="-0.00056">
        <ele>1379</ele>
        <time>2019-06-14T20:38:23Z</time>
      </trkpt>
      <trkpt lat="42.95967" lon="-0.00082">
        <ele>1380</ele>
        <time>2019-06-14T20:38:24Z</time>
      </trkpt>
      <trkpt lat="42.95963" lon="-0.00108">
        <ele>1383</ele>
        <time>2019-06-14T20:38:25Z</time>
      </trkpt>
      <trkpt lat="42.95958" lon="-0.00135">
        <ele>1386</ele>
        <time>2019-06-14T20:38:26Z</time>
      </trkpt>
      <trkpt lat="42.95954" lon="-0.00164">
        <ele>1389</ele>
        <time>2019-06-14T20:38:27Z</time>
      </trkpt>
      <trkpt lat="42.95946" lon="-0.00189">
        <ele>1390</ele>
        <time>2019-06-14T20:38:28Z</time>
      </trkpt>
      <trkpt lat="42.95941" lon="-0.00214">
        <ele>1389</ele>
        <time>2019-06-14T20:38:29Z</time>
      </trkpt>
      <trkpt lat="42.95942" lon="-0.00239">
        <ele>1385</ele>
        <time>2019-06-14T20:38:30Z</time>
      </trkpt>
      <trkpt lat="42.9594" lon="-0.00266">
        <ele>1379</ele>
        <time>2019-06-14T20:38:31Z</time>
      </trkpt>
      <trkpt lat="42.95938" lon="-0.00292">
        <ele>1371</ele>
        <time>2019-06-14T20:38:32Z</time>
      </trkpt>
      <trkpt lat="42.95938" lon="-0.00318">
        <ele>1363</ele>
        <time>2019-06-14T20:38:33Z</time>
      </trkpt>
      <trkpt lat="42.95935" lon="-0.00345">
        <ele>1356</ele>
        <time>2019-06-14T20:38:34Z</time>
      </trkpt>
      <trkpt lat="42.95936" lon="-0.00374">
        <ele>1347</ele>
        <time>2019-06-14T20:38:35Z</time>
      </trkpt>
      <trkpt lat="42.95932" lon="-0.00405">
        <ele>1339</ele>
        <time>2019-06-14T20:38:36Z</time>
      </trkpt>
      <trkpt lat="42.95927" lon="-0.00431">
        <ele>1333</ele>
        <time>2019-06-14T20:38:37Z</time>
      </trkpt>
      <trkpt lat="42.95923" lon="-0.00456">
        <ele>1327</ele>
        <time>2019-06-14T20:38:38Z</time>
      </trkpt>
      <trkpt lat="42.95916" lon="-0.00487">
        <ele>1320</ele>
        <time>2019-06-14T20:38:39Z</time>
      </trkpt>
      <trkpt lat="42.95907" lon="-0.00518">
        <ele>1311</ele>
        <time>2019-06-14T20:38:40Z</time>
      </trkpt>
      <trkpt lat="42.95898" lon="-0.00541">
        <ele>1305</ele>
        <time>2019-06-14T20:38:41Z</time>
      </trkpt>
      <trkpt lat="42.95891" lon="-0.00565">
        <ele>1297</ele>
        <time>2019-06-14T20:38:42Z</time>
      </trkpt>
      <trkpt lat="42.95877" lon="-0.00595">
        <ele>1290</ele>
        <time>2019-06-14T20:38:43Z</time>
      </trkpt>
      <trkpt lat="42.95857" lon="-0.00605">
        <ele>1289</ele>
        <time>2019-06-14T20:38:44Z</time>
      </trkpt>
      <trkpt lat="42.95854" lon="-0.00633">
        <ele>1280</ele>
        <time>2019-06-14T20:38:45Z</time>
      </trkpt>
      <trkpt lat="42.95848" lon="-0.0066">
        <ele>1271</ele>
        <time>2019-06-14T20:38:46Z</time>
      </trkpt>
      <trkpt lat="42.95839" lon="-0.00687">
        <ele>1266</ele>
        <time>2019-06-14T20:38:47Z</time>
      </trkpt>
      <trkpt lat="42.95823" lon="-0.00706">
        <ele>1264</ele>
        <time>2019-06-14T20:38:48Z</time>
      </trkpt>
      <trkpt lat="42.95812" lon="-0.00734">
        <ele>1259</ele>
        <time>2019-06-14T20:38:49Z</time>
      </trkpt>
      <trkpt lat="42.95796" lon="-0.00751">
        <ele>1255</ele>
        <time>2019-06-14T20:38:50Z</time>
      </trkpt>
      <trkpt lat="42.95774" lon="-0.00768">
        <ele>1253</ele>
        <time>2019-06-14T20:38:51Z</time>
      </trkpt>
      <trkpt lat="42.95757" lon="-0.00779">
        <ele>1249</ele>
        <time>2019-06-14T20:38:52Z</time>
      </trkpt>
      <trkpt lat="42.95743" lon="-0.00796">
        <ele>1245</ele>
        <time>2019-06-14T20:38:53Z</time>
      </trkpt>
      <trkpt lat="42.95724" lon="-0.00814">
        <ele>1242</ele>
        <time>2019-06-14T20:38:54Z</time>
      </trkpt>
      <trkpt lat="42.95699" lon="-0.0084">
        <ele>1235</ele>
        <time>2019-06-14T20:38:55Z</time>
      </trkpt>
      <trkpt lat="42.95677" lon="-0.00863">
        <ele>1230</ele>
        <time>2019-06-14T20:38:56Z</time>
      </trkpt>
      <trkpt lat="42.95655" lon="-0.00887">
        <ele>1223</ele>
        <time>2019-06-14T20:38:57Z</time>
      </trkpt>
      <trkpt lat="42.95637" lon="-0.00914">
        <ele>1213</ele>
        <time>2019-06-14T20:38:58Z</time>
      </trkpt>
      <trkpt lat="42.95623" lon="-0.0094">
        <ele>1211</ele>
        <time>2019-06-14T20:38:59Z</time>
      </trkpt>
      <trkpt lat="42.95609" lon="-0.00961">
        <ele>1208</ele>
        <time>2019-06-14T20:39:00Z</time>
      </trkpt>
      <trkpt lat="42.95595" lon="-0.00981">
        <ele>1203</ele>
        <time>2019-06-14T20:39:01Z</time>
      </trkpt>
      <trkpt lat="42.95579" lon="-0.00995">
        <ele>1198</ele>
        <time>2019-06-14T20:39:02Z</time>
      </trkpt>
      <trkpt lat="42.95557" lon="-0.01008">
        <ele>1195</ele>
        <time>2019-06-14T20:39:03Z</time>
      </trkpt>
      <trkpt lat="42.95537" lon="-0.01006">
        <ele>1192</ele>
        <time>2019-06-14T20:39:04Z</time>
      </trkpt>
      <trkpt lat="42.95517" lon="-0.01009">
        <ele>1189</ele>
        <time>2019-06-14T20:39:05Z</time>
      </trkpt>
      <trkpt lat="42.95492" lon="-0.01019">
        <ele>1186</ele>
        <time>2019-06-14T20:39:06Z</time>
      </trkpt>
      <trkpt lat="42.95468" lon="-0.01037">
        <ele>1187</ele>
        <time>2019-06-14T20:39:07Z</time>
      </trkpt>
      <trkpt lat="42.95468" lon="-0.01067">
        <ele>1183</ele>
        <time>2019-06-14T20:39:08Z</time>
      </trkpt>
      <trkpt lat="42.95454" lon="-0.01088">
        <ele>1180</ele>
        <time>2019-06-14T20:39:09Z</time>
      </trkpt>
      <trkpt lat="42.95439" lon="-0.01103">
        <ele>1179</ele>
        <time>2019-06-14T20:39:10Z</time>
      </trkpt>
      <trkpt lat="42.95418" lon="-0.01114">
        <ele>1177</ele>
        <time>2019-06-14T20:39:11Z</time>
      </trkpt>
      <trkpt lat="42.95403" lon="-0.01133">
        <ele>1175</ele>
        <time>2019-06-14T20:39:12Z</time>
      </trkpt>
      <trkpt lat="42.95387" lon="-0.01149">
        <ele>1172</ele>
        <time>2019-06-14T20:39:13Z</time>
      </trkpt>
      <trkpt lat="42.95367" lon="-0.01173">
        <ele>1168</ele>
        <time>2019-06-14T20:39:14Z</time>
      </trkpt>
      <trkpt lat="42.95352" lon="-0.01193">
        <ele>1166</ele>
        <time>2019-06-14T20:39:15Z</time>
      </trkpt>
      <trkpt lat="42.95337" lon="-0.01215">
        <ele>1163</ele>
        <time>2019-06-14T20:39:16Z</time>
      </trkpt>
      <trkpt lat="42.9532" lon="-0.01236">
        <ele>1163</ele>
        <time>2019-06-14T20:39:17Z</time>
      </trkpt>
      <trkpt lat="42.95302" lon="-0.01254">
        <ele>1163</ele>
        <time>2019-06-14T20:39:18Z</time>
      </trkpt>
      <trkpt lat="42.95289" lon="-0.01276">
        <ele>1164</ele>
        <time>2019-06-14T20:39:19Z</time>
      </trkpt>
      <trkpt lat="42.95279" lon="-0.0131">
        <ele>1163</ele>
        <time>2019-06-14T20:39:20Z</time>
      </trkpt>
      <trkpt lat="42.95263" lon="-0.01328">
        <ele>1162</ele>
        <time>2019-06-14T20:39:21Z</time>
      </trkpt>
      <trkpt lat="42.95246" lon="-0.01345">
        <ele>1162</ele>
        <time>2019-06-14T20:39:22Z</time>
      </trkpt>
      <trkpt lat="42.95235" lon="-0.01371">
        <ele>1164</ele>
        <time>2019-06-14T20:39:23Z</time>
      </trkpt>
      <trkpt lat="42.95221" lon="-0.01393">
        <ele>1166</ele>
        <time>2019-06-14T20:39:24Z</time>
      </trkpt>
      <trkpt lat="42.95209" lon="-0.01415">
        <ele>1166</ele>
        <time>2019-06-14T20:39:25Z</time>
      </trkpt>
      <trkpt lat="42.95207" lon="-0.01443">
        <ele>1163</ele>
        <time>2019-06-14T20:39:26Z</time>
      </trkpt>
      <trkpt lat="42.95205" lon="-0.01472">
        <ele>1158</ele>
        <time>2019-06-14T20:39:27Z</time>
      </trkpt>
      <trkpt lat="42.95202" lon="-0.01502">
        <ele>1154</ele>
        <time>2019-06-14T20:39:28Z</time>
      </trkpt>
      <trkpt lat="42.95198" lon="-0.01534">
        <ele>1154</ele>
        <time>2019-06-14T20:39:29Z</time>
      </trkpt>
      <trkpt lat="42.9518" lon="-0.01555">
        <ele>1149</ele>
        <time>2019-06-14T20:39:30Z</time>
      </trkpt>
      <trkpt lat="42.95177" lon="-0.0159">
        <ele>1146</ele>
        <time>2019-06-14T20:39:31Z</time>
      </trkpt>
      <trkpt lat="42.95176" lon="-0.01618">
        <ele>1150</ele>
        <time>2019-06-14T20:39:32Z</time>
      </trkpt>
      <trkpt lat="42.95164" lon="-0.01646">
        <ele>1150</ele>
        <time>2019-06-14T20:39:33Z</time>
      </trkpt>
      <trkpt lat="42.95144" lon="-0.01647">
        <ele>1152</ele>
        <time>2019-06-14T20:39:34Z</time>
      </trkpt>
      <trkpt lat="42.95131" lon="-0.01665">
        <ele>1152</ele>
        <time>2019-06-14T20:39:35Z</time>
      </trkpt>
      <trkpt lat="42.9511" lon="-0.0168">
        <ele>1148</ele>
        <time>2019-06-14T20:39:36Z</time>
      </trkpt>
      <trkpt lat="42.9509" lon="-0.01699">
        <ele>1137</ele>
        <time>2019-06-14T20:39:37Z</time>
      </trkpt>
      <trkpt lat="42.9508" lon="-0.01721">
        <ele>1126</ele>
        <time>2019-06-14T20:39:38Z</time>
      </trkpt>
      <trkpt lat="42.95085" lon="-0.01749">
        <ele>1113</ele>
        <time>2019-06-14T20:39:39Z</time>
      </trkpt>
      <trkpt lat="42.95078" lon="-0.01773">
        <ele>1111</ele>
        <time>2019-06-14T20:39:40Z</time>
      </trkpt>
      <trkpt lat="42.95075" lon="-0.018">
        <ele>1109</ele>
        <time>2019-06-14T20:39:41Z</time>
      </trkpt>
      <trkpt lat="42.95069" lon="-0.01824">
        <ele>1107</ele>
        <time>2019-06-14T20:39:42Z</time>
      </trkpt>
      <trkpt lat="42.9506" lon="-0.01846">
        <ele>1105</ele>
        <time>2019-06-14T20:39:43Z</time>
      </trkpt>
      <trkpt lat="42.95051" lon="-0.01871">
        <ele>1105</ele>
        <time>2019-06-14T20:39:44Z</time>
      </trkpt>
      <trkpt lat="42.95034" lon="-0.01888">
        <ele>1102</ele>
        <time>2019-06-14T20:39:45Z</time>
      </trkpt>
      <trkpt lat="42.9502" lon="-0.01909">
        <ele>1099</ele>
        <time>2019-06-14T20:39:46Z</time>
      </trkpt>
      <trkpt lat="42.95008" lon="-0.01931">
        <ele>1096</ele>
        <time>2019-06-14T20:39:47Z</time>
      </trkpt>
      <trkpt lat="42.95003" lon="-0.01966">
        <ele>1094</ele>
        <time>2019-06-14T20:39:48Z</time>
      </trkpt>
      <trkpt lat="42.94995" lon="-0.01999">
        <ele>1091</ele>
        <time>2019-06-14T20:39:49Z</time>
      </trkpt>
      <trkpt lat="42.94997" lon="-0.02031">
        <ele>1090</ele>
        <time>2019-06-14T20:39:50Z</time>
      </trkpt>
      <trkpt lat="42.9499" lon="-0.02054">
        <ele>1088</ele>
        <time>2019-06-14T20:39:51Z</time>
      </trkpt>
      <trkpt lat="42.94987" lon="-0.02083">
        <ele>1087</ele>
        <time>2019-06-14T20:39:52Z</time>
      </trkpt>
      <trkpt lat="42.94987" lon="-0.0211">
        <ele>1087</ele>
        <time>2019-06-14T20:39:53Z</time>
      </trkpt>
      <trkpt lat="42.9499" lon="-0.02145">
        <ele>1086</ele>
        <time>2019-06-14T20:39:54Z</time>
      </trkpt>
      <trkpt lat="42.94988" lon="-0.02171">
        <ele>1086</ele>
        <time>2019-06-14T20:39:55Z</time>
      </trkpt>
      <trkpt lat="42.94987" lon="-0.022">
        <ele>1086</ele>
        <time>2019-06-14T20:39:56Z</time>
      </trkpt>
      <trkpt lat="42.9499" lon="-0.02225">
        <ele>1086</ele>
        <time>2019-06-14T20:39:57Z</time>
      </trkpt>
      <trkpt lat="42.94997" lon="-0.0225">
        <ele>1087</ele>
        <time>2019-06-14T20:39:58Z</time>
      </trkpt>
      <trkpt lat="42.95005" lon="-0.02272">
        <ele>1090</ele>
        <time>2019-06-14T20:39:59Z</time>
      </trkpt>
      <trkpt lat="42.95009" lon="-0.02298">
        <ele>1092</ele>
        <time>2019-06-14T20:40:00Z</time>
      </trkpt>
      <trkpt lat="42.95005" lon="-0.02328">
        <ele>1090</ele>
        <time>2019-06-14T20:40:01Z</time>
      </trkpt>
      <trkpt lat="42.95007" lon="-0.02357">
        <ele>1090</ele>
        <time>2019-06-14T20:40:02Z</time>
      </trkpt>
      <trkpt lat="42.95013" lon="-0.02382">
        <ele>1092</ele>
        <time>2019-06-14T20:40:03Z</time>
      </trkpt>
      <trkpt lat="42.95015" lon="-0.02415">
        <ele>1091</ele>
        <time>2019-06-14T20:40:04Z</time>
      </trkpt>
      <trkpt lat="42.95017" lon="-0.02442">
        <ele>1090</ele>
        <time>2019-06-14T20:40:05Z</time>
      </trkpt>
      <trkpt lat="42.95023" lon="-0.02469">
        <ele>1091</ele>
        <time>2019-06-14T20:40:06Z</time>
      </trkpt>
      <trkpt lat="42.95029" lon="-0.02494">
        <ele>1091</ele>
        <time>2019-06-14T20:40:07Z</time>
      </trkpt>
      <trkpt lat="42.95031" lon="-0.02523">
        <ele>1090</ele>
        <time>2019-06-14T20:40:08Z</time>
      </trkpt>
      <trkpt lat="42.95028" lon="-0.02552">
        <ele>1087</ele>
        <time>2019-06-14T20:40:09Z</time>
      </trkpt>
      <trkpt lat="42.95021" lon="-0.02579">
        <ele>1084</ele>
        <time>2019-06-14T20:40:10Z</time>
      </trkpt>
      <trkpt lat="42.95013" lon="-0.02602">
        <ele>1083</ele>
        <time>2019-06-14T20:40:11Z</time>
      </trkpt>
      <trkpt lat="42.95003" lon="-0.02623">
        <ele>1081</ele>
        <time>2019-06-14T20:40:12Z</time>
      </trkpt>
      <trkpt lat="42.94995" lon="-0.02646">
        <ele>1080</ele>
        <time>2019-06-14T20:40:13Z</time>
      </trkpt>
      <trkpt lat="42.9501" lon="-0.02662">
        <ele>1082</ele>
        <time>2019-06-14T20:40:14Z</time>
      </trkpt>
      <trkpt lat="42.95029" lon="-0.02674">
        <ele>1084</ele>
        <time>2019-06-14T20:40:15Z</time>
      </trkpt>
      <trkpt lat="42.95041" lon="-0.02694">
        <ele>1083</ele>
        <time>2019-06-14T20:40:16Z</time>
      </trkpt>
      <trkpt lat="42.95047" lon="-0.02726">
        <ele>1082</ele>
        <time>2019-06-14T20:40:17Z</time>
      </trkpt>
      <trkpt lat="42.95046" lon="-0.02754">
        <ele>1080</ele>
        <time>2019-06-14T20:40:18Z</time>
      </trkpt>
      <trkpt lat="42.95039" lon="-0.02778">
        <ele>1078</ele>
        <time>2019-06-14T20:40:19Z</time>
      </trkpt>
      <trkpt lat="42.95038" lon="-0.02806">
        <ele>1075</ele>
        <time>2019-06-14T20:40:20Z</time>
      </trkpt>
      <trkpt lat="42.95055" lon="-0.02834">
        <ele>1073</ele>
        <time>2019-06-14T20:40:21Z</time>
      </trkpt>
      <trkpt lat="42.95068" lon="-0.02858">
        <ele>1070</ele>
        <time>2019-06-14T20:40:22Z</time>
      </trkpt>
      <trkpt lat="42.95079" lon="-0.02885">
        <ele>1067</ele>
        <time>2019-06-14T20:40:23Z</time>
      </trkpt>
      <trkpt lat="42.95094" lon="-0.02906">
        <ele>1069</ele>
        <time>2019-06-14T20:40:24Z</time>
      </trkpt>
      <trkpt lat="42.95103" lon="-0.02939">
        <ele>1069</ele>
        <time>2019-06-14T20:40:25Z</time>
      </trkpt>
      <trkpt lat="42.95109" lon="-0.02966">
        <ele>1067</ele>
        <time>2019-06-14T20:40:26Z</time>
      </trkpt>
      <trkpt lat="42.95107" lon="-0.02991">
        <ele>1062</ele>
        <time>2019-06-14T20:40:27Z</time>
      </trkpt>
      <trkpt lat="42.95108" lon="-0.03018">
        <ele>1058</ele>
        <time>2019-06-14T20:40:28Z</time>
      </trkpt>
      <trkpt lat="42.95109" lon="-0.02992">
        <ele>1063</ele>
        <time>2019-06-14T20:40:29Z</time>
      </trkpt>
      <trkpt lat="42.95107" lon="-0.02966">
        <ele>1066</ele>
        <time>2019-06-14T20:40:30Z</time>
      </trkpt>
      <trkpt lat="42.95102" lon="-0.0294">
        <ele>1068</ele>
        <time>2019-06-14T20:40:31Z</time>
      </trkpt>
      <trkpt lat="42.95098" lon="-0.02915">
        <ele>1070</ele>
        <time>2019-06-14T20:40:32Z</time>
      </trkpt>
      <trkpt lat="42.95089" lon="-0.02892">
        <ele>1069</ele>
        <time>2019-06-14T20:40:33Z</time>
      </trkpt>
      <trkpt lat="42.95077" lon="-0.02871">
        <ele>1068</ele>
        <time>2019-06-14T20:40:34Z</time>
      </trkpt>
      <trkpt lat="42.95068" lon="-0.02847">
        <ele>1071</ele>
        <time>2019-06-14T20:40:35Z</time>
      </trkpt>
      <trkpt lat="42.95055" lon="-0.02827">
        <ele>1073</ele>
        <time>2019-06-14T20:40:36Z</time>
      </trkpt>
      <trkpt lat="42.95044" lon="-0.02804">
        <ele>1076</ele>
        <time>2019-06-14T20:40:37Z</time>
      </trkpt>
      <trkpt lat="42.9504" lon="-0.02778">
        <ele>1078</ele>
        <time>2019-06-14T20:40:38Z</time>
      </trkpt>
      <trkpt lat="42.95047" lon="-0.02752">
        <ele>1080</ele>
        <time>2019-06-14T20:40:39Z</time>
      </trkpt>
      <trkpt lat="42.95049" lon="-0.02727">
        <ele>1082</ele>
        <time>2019-06-14T20:40:40Z</time>
      </trkpt>
      <trkpt lat="42.95045" lon="-0.02702">
        <ele>1083</ele>
        <time>2019-06-14T20:40:41Z</time>
      </trkpt>
      <trkpt lat="42.95039" lon="-0.02678">
        <ele>1084</ele>
        <time>2019-06-14T20:40:42Z</time>
      </trkpt>
      <trkpt lat="42.95051" lon="-0.02656">
        <ele>1086</ele>
        <time>2019-06-14T20:40:43Z</time>
      </trkpt>
      <trkpt lat="42.95065" lon="-0.02639">
        <ele>1089</ele>
        <time>2019-06-14T20:40:44Z</time>
      </trkpt>
      <trkpt lat="42.95078" lon="-0.02622">
        <ele>1092</ele>
        <time>2019-06-14T20:40:45Z</time>
      </trkpt>
      <trkpt lat="42.95096" lon="-0.02625">
        <ele>1099</ele>
        <time>2019-06-14T20:40:46Z</time>
      </trkpt>
      <trkpt lat="42.95113" lon="-0.02615">
        <ele>1108</ele>
        <time>2019-06-14T20:40:47Z</time>
      </trkpt>
      <trkpt lat="42.95122" lon="-0.02636">
        <ele>1110</ele>
        <time>2019-06-14T20:40:48Z</time>
      </trkpt>
      <trkpt lat="42.95119" lon="-0.02663">
        <ele>1105</ele>
        <time>2019-06-14T20:40:49Z</time>
      </trkpt>
      <trkpt lat="42.9512" lon="-0.02691">
        <ele>1103</ele>
        <time>2019-06-14T20:40:50Z</time>
      </trkpt>
      <trkpt lat="42.95125" lon="-0.02718">
        <ele>1102</ele>
        <time>2019-06-14T20:40:51Z</time>
      </trkpt>
      <trkpt lat="42.95135" lon="-0.02741">
        <ele>1104</ele>
        <time>2019-06-14T20:40:52Z</time>
      </trkpt>
      <trkpt lat="42.95147" lon="-0.02764">
        <ele>1107</ele>
        <time>2019-06-14T20:40:53Z</time>
      </trkpt>
      <trkpt lat="42.95154" lon="-0.02788">
        <ele>1107</ele>
        <time>2019-06-14T20:40:54Z</time>
      </trkpt>
      <trkpt lat="42.95165" lon="-0.02814">
        <ele>1110</ele>
        <time>2019-06-14T20:40:55Z</time>
      </trkpt>
      <trkpt lat="42.95179" lon="-0.02832">
        <ele>1117</ele>
        <time>2019-06-14T20:40:56Z</time>
      </trkpt>
      <trkpt lat="42.95192" lon="-0.02857">
        <ele>1122</ele>
        <time>2019-06-14T20:40:57Z</time>
      </trkpt>
      <trkpt lat="42.95204" lon="-0.02877">
        <ele>1128</ele>
        <time>2019-06-14T20:40:58Z</time>
      </trkpt>
      <trkpt lat="42.95212" lon="-0.02902">
        <ele>1131</ele>
        <time>2019-06-14T20:40:59Z</time>
      </trkpt>
      <trkpt lat="42.95229" lon="-0.02921">
        <ele>1140</ele>
        <time>2019-06-14T20:41:00Z</time>
      </trkpt>
      <trkpt lat="42.95243" lon="-0.02941">
        <ele>1146</ele>
        <time>2019-06-14T20:41:01Z</time>
      </trkpt>
      <trkpt lat="42.95252" lon="-0.02968">
        <ele>1147</ele>
        <time>2019-06-14T20:41:02Z</time>
      </trkpt>
      <trkpt lat="42.95258" lon="-0.02997">
        <ele>1145</ele>
        <time>2019-06-14T20:41:03Z</time>
      </trkpt>
      <trkpt lat="42.95266" lon="-0.03025">
        <ele>1144</ele>
        <time>2019-06-14T20:41:04Z</time>
      </trkpt>
      <trkpt lat="42.95276" lon="-0.03052">
        <ele>1144</ele>
        <time>2019-06-14T20:41:05Z</time>
      </trkpt>
      <trkpt lat="42.95293" lon="-0.0307">
        <ele>1150</ele>
        <time>2019-06-14T20:41:06Z</time>
      </trkpt>
      <trkpt lat="42.95307" lon="-0.03093">
        <ele>1150</ele>
        <time>2019-06-14T20:41:07Z</time>
      </trkpt>
      <trkpt lat="42.95323" lon="-0.03114">
        <ele>1149</ele>
        <time>2019-06-14T20:41:08Z</time>
      </trkpt>
      <trkpt lat="42.95338" lon="-0.03137">
        <ele>1147</ele>
        <time>2019-06-14T20:41:09Z</time>
      </trkpt>
      <trkpt lat="42.9535" lon="-0.03157">
        <ele>1143</ele>
        <time>2019-06-14T20:41:10Z</time>
      </trkpt>
      <trkpt lat="42.95366" lon="-0.03174">
        <ele>1142</ele>
        <time>2019-06-14T20:41:11Z</time>
      </trkpt>
      <trkpt lat="42.95384" lon="-0.03187">
        <ele>1143</ele>
        <time>2019-06-14T20:41:12Z</time>
      </trkpt>
      <trkpt lat="42.95403" lon="-0.03204">
        <ele>1141</ele>
        <time>2019-06-14T20:41:13Z</time>
      </trkpt>
      <trkpt lat="42.95417" lon="-0.0323">
        <ele>1131</ele>
        <time>2019-06-14T20:41:14Z</time>
      </trkpt>
      <trkpt lat="42.95434" lon="-0.03251">
        <ele>1131</ele>
        <time>2019-06-14T20:41:15Z</time>
      </trkpt>
      <trkpt lat="42.9545" lon="-0.03265">
        <ele>1137</ele>
        <time>2019-06-14T20:41:16Z</time>
      </trkpt>
      <trkpt lat="42.95467" lon="-0.03284">
        <ele>1142</ele>
        <time>2019-06-14T20:41:17Z</time>
      </trkpt>
      <trkpt lat="42.95472" lon="-0.03309">
        <ele>1137</ele>
        <time>2019-06-14T20:41:18Z</time>
      </trkpt>
      <trkpt lat="42.95488" lon="-0.03325">
        <ele>1143</ele>
        <time>2019-06-14T20:41:19Z</time>
      </trkpt>
      <trkpt lat="42.95501" lon="-0.03346">
        <ele>1146</ele>
        <time>2019-06-14T20:41:20Z</time>
      </trkpt>
      <trkpt lat="42.95502" lon="-0.03372">
        <ele>1141</ele>
        <time>2019-06-14T20:41:21Z</time>
      </trkpt>
      <trkpt lat="42.95497" lon="-0.03396">
        <ele>1133</ele>
        <time>2019-06-14T20:41:22Z</time>
      </trkpt>
      <trkpt lat="42.95494" lon="-0.03421">
        <ele>1126</ele>
        <time>2019-06-14T20:41:23Z</time>
      </trkpt>
      <trkpt lat="42.95489" lon="-0.03446">
        <ele>1120</ele>
        <time>2019-06-14T20:41:24Z</time>
      </trkpt>
      <trkpt lat="42.9548" lon="-0.0347">
        <ele>1111</ele>
        <time>2019-06-14T20:41:25Z</time>
      </trkpt>
      <trkpt lat="42.95481" lon="-0.03498">
        <ele>1110</ele>
        <time>2019-06-14T20:41:26Z</time>
      </trkpt>
      <trkpt lat="42.9549" lon="-0.03522">
        <ele>1117</ele>
        <time>2019-06-14T20:41:27Z</time>
      </trkpt>
      <trkpt lat="42.95488" lon="-0.03551">
        <ele>1115</ele>
        <time>2019-06-14T20:41:28Z</time>
      </trkpt>
      <trkpt lat="42.95472" lon="-0.03569">
        <ele>1100</ele>
        <time>2019-06-14T20:41:29Z</time>
      </trkpt>
      <trkpt lat="42.95471" lon="-0.03595">
        <ele>1098</ele>
        <time>2019-06-14T20:41:30Z</time>
      </trkpt>
      <trkpt lat="42.95481" lon="-0.03619">
        <ele>1102</ele>
        <time>2019-06-14T20:41:31Z</time>
      </trkpt>
      <trkpt lat="42.9549" lon="-0.03641">
        <ele>1107</ele>
        <time>2019-06-14T20:41:32Z</time>
      </trkpt>
      <trkpt lat="42.95505" lon="-0.03662">
        <ele>1115</ele>
        <time>2019-06-14T20:41:33Z</time>
      </trkpt>
      <trkpt lat="42.95517" lon="-0.03681">
        <ele>1119</ele>
        <time>2019-06-14T20:41:34Z</time>
      </trkpt>
      <trkpt lat="42.9553" lon="-0.03698">
        <ele>1123</ele>
        <time>2019-06-14T20:41:35Z</time>
      </trkpt>
      <trkpt lat="42.95545" lon="-0.03716">
        <ele>1127</ele>
        <time>2019-06-14T20:41:36Z</time>
      </trkpt>
      <trkpt lat="42.95563" lon="-0.0373">
        <ele>1135</ele>
        <time>2019-06-14T20:41:37Z</time>
      </trkpt>
      <trkpt lat="42.95579" lon="-0.03746">
        <ele>1140</ele>
        <time>2019-06-14T20:41:38Z</time>
      </trkpt>
      <trkpt lat="42.95591" lon="-0.03765">
        <ele>1141</ele>
        <time>2019-06-14T20:41:39Z</time>
      </trkpt>
      <trkpt lat="42.95587" lon="-0.03792">
        <ele>1129</ele>
        <time>2019-06-14T20:41:40Z</time>
      </trkpt>
      <trkpt lat="42.9559" lon="-0.0382">
        <ele>1122</ele>
        <time>2019-06-14T20:41:41Z</time>
      </trkpt>
      <trkpt lat="42.95588" lon="-0.03845">
        <ele>1113</ele>
        <time>2019-06-14T20:41:42Z</time>
      </trkpt>
      <trkpt lat="42.95601" lon="-0.03867">
        <ele>1120</ele>
        <time>2019-06-14T20:41:43Z</time>
      </trkpt>
      <trkpt lat="42.95608" lon="-0.03897">
        <ele>1119</ele>
        <time>2019-06-14T20:41:44Z</time>
      </trkpt>
      <trkpt lat="42.95614" lon="-0.03924">
        <ele>1118</ele>
        <time>2019-06-14T20:41:45Z</time>
      </trkpt>
      <trkpt lat="42.95623" lon="-0.03951">
        <ele>1119</ele>
        <time>2019-06-14T20:41:46Z</time>
      </trkpt>
      <trkpt lat="42.95631" lon="-0.0398">
        <ele>1118</ele>
        <time>2019-06-14T20:41:47Z</time>
      </trkpt>
      <trkpt lat="42.95638" lon="-0.04003">
        <ele>1118</ele>
        <time>2019-06-14T20:41:48Z</time>
      </trkpt>
      <trkpt lat="42.95654" lon="-0.04026">
        <ele>1122</ele>
        <time>2019-06-14T20:41:49Z</time>
      </trkpt>
      <trkpt lat="42.95671" lon="-0.04045">
        <ele>1128</ele>
        <time>2019-06-14T20:41:50Z</time>
      </trkpt>
      <trkpt lat="42.95685" lon="-0.0407">
        <ele>1129</ele>
        <time>2019-06-14T20:41:51Z</time>
      </trkpt>
      <trkpt lat="42.95699" lon="-0.04092">
        <ele>1129</ele>
        <time>2019-06-14T20:41:52Z</time>
      </trkpt>
      <trkpt lat="42.95708" lon="-0.04115">
        <ele>1125</ele>
        <time>2019-06-14T20:41:53Z</time>
      </trkpt>
      <trkpt lat="42.95721" lon="-0.04138">
        <ele>1122</ele>
        <time>2019-06-14T20:41:54Z</time>
      </trkpt>
      <trkpt lat="42.95737" lon="-0.04151">
        <ele>1125</ele>
        <time>2019-06-14T20:41:55Z</time>
      </trkpt>
      <trkpt lat="42.95754" lon="-0.04163">
        <ele>1129</ele>
        <time>2019-06-14T20:41:56Z</time>
      </trkpt>
      <trkpt lat="42.9577" lon="-0.04179">
        <ele>1132</ele>
        <time>2019-06-14T20:41:57Z</time>
      </trkpt>
      <trkpt lat="42.95785" lon="-0.04198">
        <ele>1135</ele>
        <time>2019-06-14T20:41:58Z</time>
      </trkpt>
      <trkpt lat="42.95799" lon="-0.04214">
        <ele>1137</ele>
        <time>2019-06-14T20:41:59Z</time>
      </trkpt>
      <trkpt lat="42.95814" lon="-0.04232">
        <ele>1140</ele>
        <time>2019-06-14T20:42:00Z</time>
      </trkpt>
      <trkpt lat="42.95829" lon="-0.04245">
        <ele>1144</ele>
        <time>2019-06-14T20:42:01Z</time>
      </trkpt>
      <trkpt lat="42.95846" lon="-0.0426">
        <ele>1146</ele>
        <time>2019-06-14T20:42:02Z</time>
      </trkpt>
      <trkpt lat="42.95856" lon="-0.04282">
        <ele>1143</ele>
        <time>2019-06-14T20:42:03Z</time>
      </trkpt>
      <trkpt lat="42.95866" lon="-0.04306">
        <ele>1138</ele>
        <time>2019-06-14T20:42:04Z</time>
      </trkpt>
      <trkpt lat="42.9588" lon="-0.04325">
        <ele>1137</ele>
        <time>2019-06-14T20:42:05Z</time>
      </trkpt>
      <trkpt lat="42.95889" lon="-0.04348">
        <ele>1133</ele>
        <time>2019-06-14T20:42:06Z</time>
      </trkpt>
      <trkpt lat="42.95906" lon="-0.04361">
        <ele>1134</ele>
        <time>2019-06-14T20:42:07Z</time>
      </trkpt>
      <trkpt lat="42.95926" lon="-0.0437">
        <ele>1135</ele>
        <time>2019-06-14T20:42:08Z</time>
      </trkpt>
      <trkpt lat="42.9594" lon="-0.04385">
        <ele>1130</ele>
        <time>2019-06-14T20:42:09Z</time>
      </trkpt>
      <trkpt lat="42.95955" lon="-0.04399">
        <ele>1124</ele>
        <time>2019-06-14T20:42:10Z</time>
      </trkpt>
      <trkpt lat="42.95936" lon="-0.04411">
        <ele>1120</ele>
        <time>2019-06-14T20:42:11Z</time>
      </trkpt>
      <trkpt lat="42.95912" lon="-0.04419">
        <ele>1116</ele>
        <time>2019-06-14T20:42:12Z</time>
      </trkpt>
      <trkpt lat="42.95893" lon="-0.04427">
        <ele>1106</ele>
        <time>2019-06-14T20:42:13Z</time>
      </trkpt>
      <trkpt lat="42.95909" lon="-0.0445">
        <ele>1104</ele>
        <time>2019-06-14T20:42:14Z</time>
      </trkpt>
      <trkpt lat="42.95927" lon="-0.04467">
        <ele>1101</ele>
        <time>2019-06-14T20:42:15Z</time>
      </trkpt>
      <trkpt lat="42.95943" lon="-0.04482">
        <ele>1095</ele>
        <time>2019-06-14T20:42:16Z</time>
      </trkpt>
      <trkpt lat="42.9596" lon="-0.04501">
        <ele>1087</ele>
        <time>2019-06-14T20:42:17Z</time>
      </trkpt>
      <trkpt lat="42.95974" lon="-0.04515">
        <ele>1080</ele>
        <time>2019-06-14T20:42:18Z</time>
      </trkpt>
      <trkpt lat="42.95989" lon="-0.0453">
        <ele>1072</ele>
        <time>2019-06-14T20:42:19Z</time>
      </trkpt>
      <trkpt lat="42.96008" lon="-0.04536">
        <ele>1065</ele>
        <time>2019-06-14T20:42:20Z</time>
      </trkpt>
      <trkpt lat="42.96027" lon="-0.04538">
        <ele>1057</ele>
        <time>2019-06-14T20:42:21Z</time>
      </trkpt>
      <trkpt lat="42.96047" lon="-0.04539">
        <ele>1048</ele>
        <time>2019-06-14T20:42:22Z</time>
      </trkpt>
      <trkpt lat="42.96066" lon="-0.04533">
        <ele>1043</ele>
        <time>2019-06-14T20:42:23Z</time>
      </trkpt>
      <trkpt lat="42.96091" lon="-0.04521">
        <ele>1037</ele>
        <time>2019-06-14T20:42:24Z</time>
      </trkpt>
      <trkpt lat="42.96114" lon="-0.04514">
        <ele>1028</ele>
        <time>2019-06-14T20:42:25Z</time>
      </trkpt>
      <trkpt lat="42.96138" lon="-0.04507">
        <ele>1019</ele>
        <time>2019-06-14T20:42:26Z</time>
      </trkpt>
      <trkpt lat="42.96153" lon="-0.04495">
        <ele>1015</ele>
        <time>2019-06-14T20:42:27Z</time>
      </trkpt>
      <trkpt lat="42.96177" lon="-0.04495">
        <ele>1008</ele>
        <time>2019-06-14T20:42:28Z</time>
      </trkpt>
      <trkpt lat="42.962" lon="-0.04493">
        <ele>1006</ele>
        <time>2019-06-14T20:42:29Z</time>
      </trkpt>
      <trkpt lat="42.9622" lon="-0.04476">
        <ele>1010</ele>
        <time>2019-06-14T20:42:30Z</time>
      </trkpt>
      <trkpt lat="42.96233" lon="-0.0445">
        <ele>1017</ele>
        <time>2019-06-14T20:42:31Z</time>
      </trkpt>
      <trkpt lat="42.96247" lon="-0.04421">
        <ele>1026</ele>
        <time>2019-06-14T20:42:32Z</time>
      </trkpt>
      <trkpt lat="42.96261" lon="-0.0444">
        <ele>1022</ele>
        <time>2019-06-14T20:42:33Z</time>
      </trkpt>
      <trkpt lat="42.96273" lon="-0.04459">
        <ele>1019</ele>
        <time>2019-06-14T20:42:34Z</time>
      </trkpt>
      <trkpt lat="42.9629" lon="-0.04476">
        <ele>1017</ele>
        <time>2019-06-14T20:42:35Z</time>
      </trkpt>
      <trkpt lat="42.96306" lon="-0.04495">
        <ele>1014</ele>
        <time>2019-06-14T20:42:36Z</time>
      </trkpt>
      <trkpt lat="42.96324" lon="-0.04508">
        <ele>1014</ele>
        <time>2019-06-14T20:42:37Z</time>
      </trkpt>
      <trkpt lat="42.9634" lon="-0.04522">
        <ele>1013</ele>
        <time>2019-06-14T20:42:38Z</time>
      </trkpt>
      <trkpt lat="42.96354" lon="-0.04538">
        <ele>1012</ele>
        <time>2019-06-14T20:42:39Z</time>
      </trkpt>
      <trkpt lat="42.96368" lon="-0.04562">
        <ele>1008</ele>
        <time>2019-06-14T20:42:40Z</time>
      </trkpt>
      <trkpt lat="42.96382" lon="-0.04579">
        <ele>1007</ele>
        <time>2019-06-14T20:42:41Z</time>
      </trkpt>
      <trkpt lat="42.96393" lon="-0.04602">
        <ele>1002</ele>
        <time>2019-06-14T20:42:42Z</time>
      </trkpt>
      <trkpt lat="42.96405" lon="-0.04624">
        <ele>998</ele>
        <time>2019-06-14T20:42:43Z</time>
      </trkpt>
      <trkpt lat="42.96422" lon="-0.04636">
        <ele>999</ele>
        <time>2019-06-14T20:42:44Z</time>
      </trkpt>
      <trkpt lat="42.96442" lon="-0.04642">
        <ele>1001</ele>
        <time>2019-06-14T20:42:45Z</time>
      </trkpt>
      <trkpt lat="42.96462" lon="-0.04657">
        <ele>1000</ele>
        <time>2019-06-14T20:42:46Z</time>
      </trkpt>
      <trkpt lat="42.96476" lon="-0.04673">
        <ele>997</ele>
        <time>2019-06-14T20:42:47Z</time>
      </trkpt>
      <trkpt lat="42.96494" lon="-0.04698">
        <ele>993</ele>
        <time>2019-06-14T20:42:48Z</time>
      </trkpt>
      <trkpt lat="42.96513" lon="-0.04708">
        <ele>990</ele>
        <time>2019-06-14T20:42:49Z</time>
      </trkpt>
      <trkpt lat="42.96531" lon="-0.04715">
        <ele>986</ele>
        <time>2019-06-14T20:42:50Z</time>
      </trkpt>
      <trkpt lat="42.96548" lon="-0.04731">
        <ele>980</ele>
        <time>2019-06-14T20:42:51Z</time>
      </trkpt>
      <trkpt lat="42.96565" lon="-0.04748">
        <ele>974</ele>
        <time>2019-06-14T20:42:52Z</time>
      </trkpt>
      <trkpt lat="42.96582" lon="-0.04767">
        <ele>967</ele>
        <time>2019-06-14T20:42:53Z</time>
      </trkpt>
      <trkpt lat="42.966" lon="-0.04772">
        <ele>961</ele>
        <time>2019-06-14T20:42:54Z</time>
      </trkpt>
      <trkpt lat="42.96615" lon="-0.04756">
        <ele>962</ele>
        <time>2019-06-14T20:42:55Z</time>
      </trkpt>
      <trkpt lat="42.96627" lon="-0.04736">
        <ele>964</ele>
        <time>2019-06-14T20:42:56Z</time>
      </trkpt>
      <trkpt lat="42.9664" lon="-0.04716">
        <ele>964</ele>
        <time>2019-06-14T20:42:57Z</time>
      </trkpt>
      <trkpt lat="42.96655" lon="-0.04689">
        <ele>965</ele>
        <time>2019-06-14T20:42:58Z</time>
      </trkpt>
      <trkpt lat="42.96658" lon="-0.04719">
        <ele>958</ele>
        <time>2019-06-14T20:42:59Z</time>
      </trkpt>
      <trkpt lat="42.96683" lon="-0.04712">
        <ele>952</ele>
        <time>2019-06-14T20:43:00Z</time>
      </trkpt>
      <trkpt lat="42.96699" lon="-0.04702">
        <ele>949</ele>
        <time>2019-06-14T20:43:01Z</time>
      </trkpt>
      <trkpt lat="42.96715" lon="-0.0469">
        <ele>946</ele>
        <time>2019-06-14T20:43:02Z</time>
      </trkpt>
      <trkpt lat="42.96736" lon="-0.04667">
        <ele>943</ele>
        <time>2019-06-14T20:43:03Z</time>
      </trkpt>
      <trkpt lat="42.96756" lon="-0.04649">
        <ele>937</ele>
        <time>2019-06-14T20:43:04Z</time>
      </trkpt>
      <trkpt lat="42.96774" lon="-0.04633">
        <ele>931</ele>
        <time>2019-06-14T20:43:05Z</time>
      </trkpt>
      <trkpt lat="42.96787" lon="-0.04615">
        <ele>927</ele>
        <time>2019-06-14T20:43:06Z</time>
      </trkpt>
      <trkpt lat="42.96804" lon="-0.04592">
        <ele>922</ele>
        <time>2019-06-14T20:43:07Z</time>
      </trkpt>
      <trkpt lat="42.96815" lon="-0.04571">
        <ele>919</ele>
        <time>2019-06-14T20:43:08Z</time>
      </trkpt>
      <trkpt lat="42.96829" lon="-0.04552">
        <ele>915</ele>
        <time>2019-06-14T20:43:09Z</time>
      </trkpt>
      <trkpt lat="42.96842" lon="-0.04529">
        <ele>912</ele>
        <time>2019-06-14T20:43:10Z</time>
      </trkpt>
      <trkpt lat="42.96856" lon="-0.04513">
        <ele>908</ele>
        <time>2019-06-14T20:43:11Z</time>
      </trkpt>
      <trkpt lat="42.96867" lon="-0.04492">
        <ele>906</ele>
        <time>2019-06-14T20:43:12Z</time>
      </trkpt>
      <trkpt lat="42.96875" lon="-0.04469">
        <ele>904</ele>
        <time>2019-06-14T20:43:13Z</time>
      </trkpt>
      <trkpt lat="42.96887" lon="-0.04445">
        <ele>902</ele>
        <time>2019-06-14T20:43:14Z</time>
      </trkpt>
      <trkpt lat="42.96899" lon="-0.04426">
        <ele>899</ele>
        <time>2019-06-14T20:43:15Z</time>
      </trkpt>
      <trkpt lat="42.96907" lon="-0.04399">
        <ele>900</ele>
        <time>2019-06-14T20:43:16Z</time>
      </trkpt>
      <trkpt lat="42.96923" lon="-0.04377">
        <ele>896</ele>
        <time>2019-06-14T20:43:17Z</time>
      </trkpt>
      <trkpt lat="42.96938" lon="-0.04364">
        <ele>893</ele>
        <time>2019-06-14T20:43:18Z</time>
      </trkpt>
      <trkpt lat="42.96955" lon="-0.04347">
        <ele>889</ele>
        <time>2019-06-14T20:43:19Z</time>
      </trkpt>
      <trkpt lat="42.96978" lon="-0.04337">
        <ele>883</ele>
        <time>2019-06-14T20:43:20Z</time>
      </trkpt>
      <trkpt lat="42.96994" lon="-0.04326">
        <ele>879</ele>
        <time>2019-06-14T20:43:21Z</time>
      </trkpt>
      <trkpt lat="42.97013" lon="-0.04317">
        <ele>873</ele>
        <time>2019-06-14T20:43:22Z</time>
      </trkpt>
      <trkpt lat="42.97034" lon="-0.04306">
        <ele>867</ele>
        <time>2019-06-14T20:43:23Z</time>
      </trkpt>
      <trkpt lat="42.97057" lon="-0.04292">
        <ele>861</ele>
        <time>2019-06-14T20:43:24Z</time>
      </trkpt>
      <trkpt lat="42.97076" lon="-0.04274">
        <ele>857</ele>
        <time>2019-06-14T20:43:25Z</time>
      </trkpt>
      <trkpt lat="42.97085" lon="-0.04253">
        <ele>859</ele>
        <time>2019-06-14T20:43:26Z</time>
      </trkpt>
      <trkpt lat="42.97098" lon="-0.04233">
        <ele>864</ele>
        <time>2019-06-14T20:43:27Z</time>
      </trkpt>
      <trkpt lat="42.97111" lon="-0.04212">
        <ele>869</ele>
        <time>2019-06-14T20:43:28Z</time>
      </trkpt>
      <trkpt lat="42.97125" lon="-0.04194">
        <ele>874</ele>
        <time>2019-06-14T20:43:29Z</time>
      </trkpt>
      <trkpt lat="42.97141" lon="-0.04211">
        <ele>870</ele>
        <time>2019-06-14T20:43:30Z</time>
      </trkpt>
      <trkpt lat="42.97151" lon="-0.04238">
        <ele>864</ele>
        <time>2019-06-14T20:43:31Z</time>
      </trkpt>
      <trkpt lat="42.97168" lon="-0.0426">
        <ele>860</ele>
        <time>2019-06-14T20:43:32Z</time>
      </trkpt>
      <trkpt lat="42.97182" lon="-0.04276">
        <ele>858</ele>
        <time>2019-06-14T20:43:33Z</time>
      </trkpt>
      <trkpt lat="42.972" lon="-0.04293">
        <ele>857</ele>
        <time>2019-06-14T20:43:34Z</time>
      </trkpt>
      <trkpt lat="42.9721" lon="-0.04319">
        <ele>852</ele>
        <time>2019-06-14T20:43:35Z</time>
      </trkpt>
      <trkpt lat="42.97218" lon="-0.04345">
        <ele>847</ele>
        <time>2019-06-14T20:43:36Z</time>
      </trkpt>
      <trkpt lat="42.97221" lon="-0.04378">
        <ele>837</ele>
        <time>2019-06-14T20:43:37Z</time>
      </trkpt>
      <trkpt lat="42.97229" lon="-0.04405">
        <ele>831</ele>
        <time>2019-06-14T20:43:38Z</time>
      </trkpt>
      <trkpt lat="42.9724" lon="-0.04426">
        <ele>828</ele>
        <time>2019-06-14T20:43:39Z</time>
      </trkpt>
      <trkpt lat="42.97254" lon="-0.0445">
        <ele>826</ele>
        <time>2019-06-14T20:43:40Z</time>
      </trkpt>
      <trkpt lat="42.97264" lon="-0.04473">
        <ele>822</ele>
        <time>2019-06-14T20:43:41Z</time>
      </trkpt>
      <trkpt lat="42.97273" lon="-0.04494">
        <ele>819</ele>
        <time>2019-06-14T20:43:42Z</time>
      </trkpt>
      <trkpt lat="42.97285" lon="-0.04514">
        <ele>817</ele>
        <time>2019-06-14T20:43:43Z</time>
      </trkpt>
      <trkpt lat="42.97301" lon="-0.04536">
        <ele>815</ele>
        <time>2019-06-14T20:43:44Z</time>
      </trkpt>
      <trkpt lat="42.97312" lon="-0.04561">
        <ele>812</ele>
        <time>2019-06-14T20:43:45Z</time>
      </trkpt>
      <trkpt lat="42.97328" lon="-0.04585">
        <ele>810</ele>
        <time>2019-06-14T20:43:46Z</time>
      </trkpt>
      <trkpt lat="42.97344" lon="-0.04604">
        <ele>809</ele>
        <time>2019-06-14T20:43:47Z</time>
      </trkpt>
      <trkpt lat="42.97362" lon="-0.04623">
        <ele>806</ele>
        <time>2019-06-14T20:43:48Z</time>
      </trkpt>
      <trkpt lat="42.97377" lon="-0.04639">
        <ele>804</ele>
        <time>2019-06-14T20:43:49Z</time>
      </trkpt>
      <trkpt lat="42.97396" lon="-0.04638">
        <ele>805</ele>
        <time>2019-06-14T20:43:50Z</time>
      </trkpt>
      <trkpt lat="42.97416" lon="-0.04632">
        <ele>808</ele>
        <time>2019-06-14T20:43:51Z</time>
      </trkpt>
      <trkpt lat="42.97433" lon="-0.04621">
        <ele>810</ele>
        <time>2019-06-14T20:43:52Z</time>
      </trkpt>
      <trkpt lat="42.97455" lon="-0.04612">
        <ele>810</ele>
        <time>2019-06-14T20:43:53Z</time>
      </trkpt>
      <trkpt lat="42.97477" lon="-0.04607">
        <ele>810</ele>
        <time>2019-06-14T20:43:54Z</time>
      </trkpt>
      <trkpt lat="42.97502" lon="-0.04606">
        <ele>809</ele>
        <time>2019-06-14T20:43:55Z</time>
      </trkpt>
      <trkpt lat="42.97528" lon="-0.04616">
        <ele>803</ele>
        <time>2019-06-14T20:43:56Z</time>
      </trkpt>
      <trkpt lat="42.9755" lon="-0.04623">
        <ele>798</ele>
        <time>2019-06-14T20:43:57Z</time>
      </trkpt>
      <trkpt lat="42.97574" lon="-0.04621">
        <ele>795</ele>
        <time>2019-06-14T20:43:58Z</time>
      </trkpt>
      <trkpt lat="42.97601" lon="-0.04615">
        <ele>794</ele>
        <time>2019-06-14T20:43:59Z</time>
      </trkpt>
      <trkpt lat="42.97622" lon="-0.04607">
        <ele>794</ele>
        <time>2019-06-14T20:44:00Z</time>
      </trkpt>
      <trkpt lat="42.97641" lon="-0.04589">
        <ele>797</ele>
        <time>2019-06-14T20:44:01Z</time>
      </trkpt>
      <trkpt lat="42.97656" lon="-0.04565">
        <ele>801</ele>
        <time>2019-06-14T20:44:02Z</time>
      </trkpt>
      <trkpt lat="42.97671" lon="-0.04545">
        <ele>805</ele>
        <time>2019-06-14T20:44:03Z</time>
      </trkpt>
      <trkpt lat="42.97693" lon="-0.04532">
        <ele>809</ele>
        <time>2019-06-14T20:44:04Z</time>
      </trkpt>
      <trkpt lat="42.97706" lon="-0.0455">
        <ele>806</ele>
        <time>2019-06-14T20:44:05Z</time>
      </trkpt>
      <trkpt lat="42.97712" lon="-0.04577">
        <ele>802</ele>
        <time>2019-06-14T20:44:06Z</time>
      </trkpt>
      <trkpt lat="42.97726" lon="-0.04602">
        <ele>799</ele>
        <time>2019-06-14T20:44:07Z</time>
      </trkpt>
      <trkpt lat="42.97735" lon="-0.04624">
        <ele>796</ele>
        <time>2019-06-14T20:44:08Z</time>
      </trkpt>
      <trkpt lat="42.97738" lon="-0.04653">
        <ele>791</ele>
        <time>2019-06-14T20:44:09Z</time>
      </trkpt>
      <trkpt lat="42.97744" lon="-0.04683">
        <ele>786</ele>
        <time>2019-06-14T20:44:10Z</time>
      </trkpt>
      <trkpt lat="42.97749" lon="-0.04719">
        <ele>778</ele>
        <time>2019-06-14T20:44:11Z</time>
      </trkpt>
      <trkpt lat="42.97759" lon="-0.0474">
        <ele>774</ele>
        <time>2019-06-14T20:44:12Z</time>
      </trkpt>
      <trkpt lat="42.97782" lon="-0.04759">
        <ele>773</ele>
        <time>2019-06-14T20:44:13Z</time>
      </trkpt>
      <trkpt lat="42.97805" lon="-0.04779">
        <ele>773</ele>
        <time>2019-06-14T20:44:14Z</time>
      </trkpt>
      <trkpt lat="42.97822" lon="-0.04791">
        <ele>773</ele>
        <time>2019-06-14T20:44:15Z</time>
      </trkpt>
      <trkpt lat="42.97839" lon="-0.04803">
        <ele>773</ele>
        <time>2019-06-14T20:44:16Z</time>
      </trkpt>
      <trkpt lat="42.97856" lon="-0.04813">
        <ele>773</ele>
        <time>2019-06-14T20:44:17Z</time>
      </trkpt>
      <trkpt lat="42.97877" lon="-0.04827">
        <ele>772</ele>
        <time>2019-06-14T20:44:18Z</time>
      </trkpt>
      <trkpt lat="42.97894" lon="-0.04844">
        <ele>771</ele>
        <time>2019-06-14T20:44:19Z</time>
      </trkpt>
      <trkpt lat="42.97909" lon="-0.04861">
        <ele>769</ele>
        <time>2019-06-14T20:44:20Z</time>
      </trkpt>
      <trkpt lat="42.97916" lon="-0.04887">
        <ele>765</ele>
        <time>2019-06-14T20:44:21Z</time>
      </trkpt>
      <trkpt lat="42.97922" lon="-0.04916">
        <ele>760</ele>
        <time>2019-06-14T20:44:22Z</time>
      </trkpt>
      <trkpt lat="42.97931" lon="-0.04939">
        <ele>757</ele>
        <time>2019-06-14T20:44:23Z</time>
      </trkpt>
      <trkpt lat="42.97944" lon="-0.04957">
        <ele>755</ele>
        <time>2019-06-14T20:44:24Z</time>
      </trkpt>
      <trkpt lat="42.97964" lon="-0.04969">
        <ele>755</ele>
        <time>2019-06-14T20:44:25Z</time>
      </trkpt>
      <trkpt lat="42.97986" lon="-0.04968">
        <ele>758</ele>
        <time>2019-06-14T20:44:26Z</time>
      </trkpt>
      <trkpt lat="42.98009" lon="-0.04962">
        <ele>762</ele>
        <time>2019-06-14T20:44:27Z</time>
      </trkpt>
      <trkpt lat="42.98032" lon="-0.04962">
        <ele>766</ele>
        <time>2019-06-14T20:44:28Z</time>
      </trkpt>
      <trkpt lat="42.98058" lon="-0.04969">
        <ele>768</ele>
        <time>2019-06-14T20:44:29Z</time>
      </trkpt>
      <trkpt lat="42.98078" lon="-0.04973">
        <ele>770</ele>
        <time>2019-06-14T20:44:30Z</time>
      </trkpt>
      <trkpt lat="42.98097" lon="-0.04977">
        <ele>770</ele>
        <time>2019-06-14T20:44:31Z</time>
      </trkpt>
      <trkpt lat="42.98117" lon="-0.04982">
        <ele>770</ele>
        <time>2019-06-14T20:44:32Z</time>
      </trkpt>
      <trkpt lat="42.98136" lon="-0.04988">
        <ele>768</ele>
        <time>2019-06-14T20:44:33Z</time>
      </trkpt>
      <trkpt lat="42.98154" lon="-0.04996">
        <ele>766</ele>
        <time>2019-06-14T20:44:34Z</time>
      </trkpt>
      <trkpt lat="42.98172" lon="-0.05004">
        <ele>763</ele>
        <time>2019-06-14T20:44:35Z</time>
      </trkpt>
      <trkpt lat="42.98189" lon="-0.05014">
        <ele>757</ele>
        <time>2019-06-14T20:44:36Z</time>
      </trkpt>
      <trkpt lat="42.98209" lon="-0.05023">
        <ele>752</ele>
        <time>2019-06-14T20:44:37Z</time>
      </trkpt>
      <trkpt lat="42.98228" lon="-0.0503">
        <ele>748</ele>
        <time>2019-06-14T20:44:38Z</time>
      </trkpt>
      <trkpt lat="42.98248" lon="-0.05036">
        <ele>743</ele>
        <time>2019-06-14T20:44:39Z</time>
      </trkpt>
      <trkpt lat="42.98269" lon="-0.05044">
        <ele>737</ele>
        <time>2019-06-14T20:44:40Z</time>
      </trkpt>
      <trkpt lat="42.98289" lon="-0.05056">
        <ele>730</ele>
        <time>2019-06-14T20:44:41Z</time>
      </trkpt>
      <trkpt lat="42.98308" lon="-0.05062">
        <ele>727</ele>
        <time>2019-06-14T20:44:42Z</time>
      </trkpt>
      <trkpt lat="42.98328" lon="-0.05056">
        <ele>729</ele>
        <time>2019-06-14T20:44:43Z</time>
      </trkpt>
      <trkpt lat="42.98345" lon="-0.05046">
        <ele>735</ele>
        <time>2019-06-14T20:44:44Z</time>
      </trkpt>
      <trkpt lat="42.98364" lon="-0.05037">
        <ele>743</ele>
        <time>2019-06-14T20:44:45Z</time>
      </trkpt>
      <trkpt lat="42.98383" lon="-0.05035">
        <ele>747</ele>
        <time>2019-06-14T20:44:46Z</time>
      </trkpt>
      <trkpt lat="42.98409" lon="-0.0504">
        <ele>749</ele>
        <time>2019-06-14T20:44:47Z</time>
      </trkpt>
      <trkpt lat="42.98418" lon="-0.05066">
        <ele>744</ele>
        <time>2019-06-14T20:44:48Z</time>
      </trkpt>
      <trkpt lat="42.98425" lon="-0.05092">
        <ele>738</ele>
        <time>2019-06-14T20:44:49Z</time>
      </trkpt>
      <trkpt lat="42.9844" lon="-0.05116">
        <ele>738</ele>
        <time>2019-06-14T20:44:50Z</time>
      </trkpt>
      <trkpt lat="42.98454" lon="-0.05132">
        <ele>738</ele>
        <time>2019-06-14T20:44:51Z</time>
      </trkpt>
      <trkpt lat="42.98469" lon="-0.05149">
        <ele>740</ele>
        <time>2019-06-14T20:44:52Z</time>
      </trkpt>
      <trkpt lat="42.98487" lon="-0.0516">
        <ele>743</ele>
        <time>2019-06-14T20:44:53Z</time>
      </trkpt>
      <trkpt lat="42.98506" lon="-0.05173">
        <ele>746</ele>
        <time>2019-06-14T20:44:54Z</time>
      </trkpt>
      <trkpt lat="42.98523" lon="-0.05193">
        <ele>743</ele>
        <time>2019-06-14T20:44:55Z</time>
      </trkpt>
      <trkpt lat="42.98536" lon="-0.05219">
        <ele>739</ele>
        <time>2019-06-14T20:44:56Z</time>
      </trkpt>
      <trkpt lat="42.98549" lon="-0.05242">
        <ele>736</ele>
        <time>2019-06-14T20:44:57Z</time>
      </trkpt>
      <trkpt lat="42.98564" lon="-0.05271">
        <ele>732</ele>
        <time>2019-06-14T20:44:58Z</time>
      </trkpt>
      <trkpt lat="42.98579" lon="-0.05296">
        <ele>729</ele>
        <time>2019-06-14T20:44:59Z</time>
      </trkpt>
      <trkpt lat="42.98597" lon="-0.05324">
        <ele>726</ele>
        <time>2019-06-14T20:45:00Z</time>
      </trkpt>
      <trkpt lat="42.9861" lon="-0.05344">
        <ele>723</ele>
        <time>2019-06-14T20:45:01Z</time>
      </trkpt>
      <trkpt lat="42.98621" lon="-0.05366">
        <ele>721</ele>
        <time>2019-06-14T20:45:02Z</time>
      </trkpt>
      <trkpt lat="42.98637" lon="-0.05393">
        <ele>718</ele>
        <time>2019-06-14T20:45:03Z</time>
      </trkpt>
      <trkpt lat="42.98653" lon="-0.0542">
        <ele>715</ele>
        <time>2019-06-14T20:45:04Z</time>
      </trkpt>
      <trkpt lat="42.9866" lon="-0.05444">
        <ele>711</ele>
        <time>2019-06-14T20:45:05Z</time>
      </trkpt>
      <trkpt lat="42.98668" lon="-0.0547">
        <ele>708</ele>
        <time>2019-06-14T20:45:06Z</time>
      </trkpt>
      <trkpt lat="42.98676" lon="-0.05498">
        <ele>704</ele>
        <time>2019-06-14T20:45:07Z</time>
      </trkpt>
      <trkpt lat="42.98682" lon="-0.05527">
        <ele>698</ele>
        <time>2019-06-14T20:45:08Z</time>
      </trkpt>
      <trkpt lat="42.98686" lon="-0.05558">
        <ele>692</ele>
        <time>2019-06-14T20:45:09Z</time>
      </trkpt>
      <trkpt lat="42.98692" lon="-0.05582">
        <ele>688</ele>
        <time>2019-06-14T20:45:10Z</time>
      </trkpt>
      <trkpt lat="42.98706" lon="-0.05598">
        <ele>688</ele>
        <time>2019-06-14T20:45:11Z</time>
      </trkpt>
      <trkpt lat="42.98724" lon="-0.05611">
        <ele>690</ele>
        <time>2019-06-14T20:45:12Z</time>
      </trkpt>
      <trkpt lat="42.98743" lon="-0.05622">
        <ele>693</ele>
        <time>2019-06-14T20:45:13Z</time>
      </trkpt>
      <trkpt lat="42.9876" lon="-0.05636">
        <ele>694</ele>
        <time>2019-06-14T20:45:14Z</time>
      </trkpt>
      <trkpt lat="42.9877" lon="-0.05659">
        <ele>691</ele>
        <time>2019-06-14T20:45:15Z</time>
      </trkpt>
      <trkpt lat="42.98778" lon="-0.05685">
        <ele>687</ele>
        <time>2019-06-14T20:45:16Z</time>
      </trkpt>
      <trkpt lat="42.98785" lon="-0.05716">
        <ele>680</ele>
        <time>2019-06-14T20:45:17Z</time>
      </trkpt>
      <trkpt lat="42.98793" lon="-0.05744">
        <ele>675</ele>
        <time>2019-06-14T20:45:18Z</time>
      </trkpt>
      <trkpt lat="42.98807" lon="-0.05763">
        <ele>673</ele>
        <time>2019-06-14T20:45:19Z</time>
      </trkpt>
      <trkpt lat="42.98827" lon="-0.05774">
        <ele>675</ele>
        <time>2019-06-14T20:45:20Z</time>
      </trkpt>
      <trkpt lat="42.98848" lon="-0.05783">
        <ele>677</ele>
        <time>2019-06-14T20:45:21Z</time>
      </trkpt>
      <trkpt lat="42.98871" lon="-0.05794">
        <ele>677</ele>
        <time>2019-06-14T20:45:22Z</time>
      </trkpt>
      <trkpt lat="42.98893" lon="-0.05808">
        <ele>677</ele>
        <time>2019-06-14T20:45:23Z</time>
      </trkpt>
      <trkpt lat="42.98915" lon="-0.05828">
        <ele>674</ele>
        <time>2019-06-14T20:45:24Z</time>
      </trkpt>
      <trkpt lat="42.98926" lon="-0.05856">
        <ele>665</ele>
        <time>2019-06-14T20:45:25Z</time>
      </trkpt>
      <trkpt lat="42.98943" lon="-0.05885">
        <ele>655</ele>
        <time>2019-06-14T20:45:26Z</time>
      </trkpt>
      <trkpt lat="42.98958" lon="-0.05919">
        <ele>643</ele>
        <time>2019-06-14T20:45:27Z</time>
      </trkpt>
      <trkpt lat="42.98971" lon="-0.05953">
        <ele>633</ele>
        <time>2019-06-14T20:45:28Z</time>
      </trkpt>
      <trkpt lat="42.98983" lon="-0.05983">
        <ele>625</ele>
        <time>2019-06-14T20:45:29Z</time>
      </trkpt>
      <trkpt lat="42.99002" lon="-0.05996">
        <ele>621</ele>
        <time>2019-06-14T20:45:30Z</time>
      </trkpt>
      <trkpt lat="42.99026" lon="-0.05994">
        <ele>618</ele>
        <time>2019-06-14T20:45:31Z</time>
      </trkpt>
      <trkpt lat="42.99045" lon="-0.05978">
        <ele>620</ele>
        <time>2019-06-14T20:45:32Z</time>
      </trkpt>
      <trkpt lat="42.99066" lon="-0.05959">
        <ele>623</ele>
        <time>2019-06-14T20:45:33Z</time>
      </trkpt>
      <trkpt lat="42.99087" lon="-0.05942">
        <ele>625</ele>
        <time>2019-06-14T20:45:34Z</time>
      </trkpt>
      <trkpt lat="42.99106" lon="-0.05925">
        <ele>629</ele>
        <time>2019-06-14T20:45:35Z</time>
      </trkpt>
      <trkpt lat="42.99125" lon="-0.0591">
        <ele>633</ele>
        <time>2019-06-14T20:45:36Z</time>
      </trkpt>
      <trkpt lat="42.99142" lon="-0.059">
        <ele>634</ele>
        <time>2019-06-14T20:45:37Z</time>
      </trkpt>
      <trkpt lat="42.99162" lon="-0.05898">
        <ele>633</ele>
        <time>2019-06-14T20:45:38Z</time>
      </trkpt>
      <trkpt lat="42.99142" lon="-0.05901">
        <ele>634</ele>
        <time>2019-06-14T20:45:39Z</time>
      </trkpt>
      <trkpt lat="42.99122" lon="-0.05914">
        <ele>631</ele>
        <time>2019-06-14T20:45:40Z</time>
      </trkpt>
      <trkpt lat="42.99107" lon="-0.05936">
        <ele>626</ele>
        <time>2019-06-14T20:45:41Z</time>
      </trkpt>
      <trkpt lat="42.99092" lon="-0.05952">
        <ele>622</ele>
        <time>2019-06-14T20:45:42Z</time>
      </trkpt>
      <trkpt lat="42.99078" lon="-0.05979">
        <ele>616</ele>
        <time>2019-06-14T20:45:43Z</time>
      </trkpt>
      <trkpt lat="42.99063" lon="-0.06009">
        <ele>609</ele>
        <time>2019-06-14T20:45:44Z</time>
      </trkpt>
      <trkpt lat="42.9905" lon="-0.06029">
        <ele>606</ele>
        <time>2019-06-14T20:45:45Z</time>
      </trkpt>
      <trkpt lat="42.99039" lon="-0.06049">
        <ele>602</ele>
        <time>2019-06-14T20:45:46Z</time>
      </trkpt>
      <trkpt lat="42.99015" lon="-0.0606">
        <ele>604</ele>
        <time>2019-06-14T20:45:47Z</time>
      </trkpt>
      <trkpt lat="42.98999" lon="-0.06073">
        <ele>603</ele>
        <time>2019-06-14T20:45:48Z</time>
      </trkpt>
      <trkpt lat="42.9898" lon="-0.06088">
        <ele>599</ele>
        <time>2019-06-14T20:45:49Z</time>
      </trkpt>
      <trkpt lat="42.9897" lon="-0.06114">
        <ele>590</ele>
        <time>2019-06-14T20:45:50Z</time>
      </trkpt>
      <trkpt lat="42.98999" lon="-0.06105">
        <ele>594</ele>
        <time>2019-06-14T20:45:51Z</time>
      </trkpt>
      <trkpt lat="42.9902" lon="-0.06101">
        <ele>592</ele>
        <time>2019-06-14T20:45:52Z</time>
      </trkpt>
      <trkpt lat="42.99041" lon="-0.061">
        <ele>589</ele>
        <time>2019-06-14T20:45:53Z</time>
      </trkpt>
      <trkpt lat="42.99059" lon="-0.06099">
        <ele>586</ele>
        <time>2019-06-14T20:45:54Z</time>
      </trkpt>
      <trkpt lat="42.99072" lon="-0.06073">
        <ele>591</ele>
        <time>2019-06-14T20:45:55Z</time>
      </trkpt>
      <trkpt lat="42.9909" lon="-0.06046">
        <ele>596</ele>
        <time>2019-06-14T20:45:56Z</time>
      </trkpt>
      <trkpt lat="42.99111" lon="-0.06033">
        <ele>599</ele>
        <time>2019-06-14T20:45:57Z</time>
      </trkpt>
      <trkpt lat="42.99132" lon="-0.06039">
        <ele>597</ele>
        <time>2019-06-14T20:45:58Z</time>
      </trkpt>
      <trkpt lat="42.99151" lon="-0.06037">
        <ele>597</ele>
        <time>2019-06-14T20:45:59Z</time>
      </trkpt>
      <trkpt lat="42.9917" lon="-0.06049">
        <ele>593</ele>
        <time>2019-06-14T20:46:00Z</time>
      </trkpt>
      <trkpt lat="42.99187" lon="-0.06068">
        <ele>591</ele>
        <time>2019-06-14T20:46:01Z</time>
      </trkpt>
      <trkpt lat="42.99204" lon="-0.06084">
        <ele>590</ele>
        <time>2019-06-14T20:46:02Z</time>
      </trkpt>
      <trkpt lat="42.99222" lon="-0.06106">
        <ele>587</ele>
        <time>2019-06-14T20:46:03Z</time>
      </trkpt>
      <trkpt lat="42.99234" lon="-0.06129">
        <ele>582</ele>
        <time>2019-06-14T20:46:04Z</time>
      </trkpt>
      <trkpt lat="42.99247" lon="-0.06152">
        <ele>577</ele>
        <time>2019-06-14T20:46:05Z</time>
      </trkpt>
      <trkpt lat="42.99261" lon="-0.06174">
        <ele>570</ele>
        <time>2019-06-14T20:46:06Z</time>
      </trkpt>
      <trkpt lat="42.99276" lon="-0.06194">
        <ele>563</ele>
        <time>2019-06-14T20:46:07Z</time>
      </trkpt>
      <trkpt lat="42.99292" lon="-0.06206">
        <ele>559</ele>
        <time>2019-06-14T20:46:08Z</time>
      </trkpt>
      <trkpt lat="42.99273" lon="-0.06222">
        <ele>555</ele>
        <time>2019-06-14T20:46:09Z</time>
      </trkpt>
      <trkpt lat="42.99255" lon="-0.0621">
        <ele>560</ele>
        <time>2019-06-14T20:46:10Z</time>
      </trkpt>
      <trkpt lat="42.99239" lon="-0.06197">
        <ele>563</ele>
        <time>2019-06-14T20:46:11Z</time>
      </trkpt>
      <trkpt lat="42.99221" lon="-0.0618">
        <ele>565</ele>
        <time>2019-06-14T20:46:12Z</time>
      </trkpt>
      <trkpt lat="42.99203" lon="-0.06166">
        <ele>566</ele>
        <time>2019-06-14T20:46:13Z</time>
      </trkpt>
      <trkpt lat="42.99184" lon="-0.06161">
        <ele>564</ele>
        <time>2019-06-14T20:46:14Z</time>
      </trkpt>
      <trkpt lat="42.99166" lon="-0.06169">
        <ele>559</ele>
        <time>2019-06-14T20:46:15Z</time>
      </trkpt>
      <trkpt lat="42.99145" lon="-0.06184">
        <ele>557</ele>
        <time>2019-06-14T20:46:16Z</time>
      </trkpt>
      <trkpt lat="42.99129" lon="-0.062">
        <ele>554</ele>
        <time>2019-06-14T20:46:17Z</time>
      </trkpt>
      <trkpt lat="42.99112" lon="-0.06226">
        <ele>549</ele>
        <time>2019-06-14T20:46:18Z</time>
      </trkpt>
      <trkpt lat="42.99124" lon="-0.06252">
        <ele>542</ele>
        <time>2019-06-14T20:46:19Z</time>
      </trkpt>
      <trkpt lat="42.99148" lon="-0.06266">
        <ele>538</ele>
        <time>2019-06-14T20:46:20Z</time>
      </trkpt>
      <trkpt lat="42.9917" lon="-0.06282">
        <ele>534</ele>
        <time>2019-06-14T20:46:21Z</time>
      </trkpt>
      <trkpt lat="42.99189" lon="-0.06275">
        <ele>537</ele>
        <time>2019-06-14T20:46:22Z</time>
      </trkpt>
      <trkpt lat="42.99209" lon="-0.06269">
        <ele>540</ele>
        <time>2019-06-14T20:46:23Z</time>
      </trkpt>
      <trkpt lat="42.9923" lon="-0.06279">
        <ele>540</ele>
        <time>2019-06-14T20:46:24Z</time>
      </trkpt>
      <trkpt lat="42.99241" lon="-0.06299">
        <ele>536</ele>
        <time>2019-06-14T20:46:25Z</time>
      </trkpt>
      <trkpt lat="42.9924" lon="-0.06326">
        <ele>530</ele>
        <time>2019-06-14T20:46:26Z</time>
      </trkpt>
      <trkpt lat="42.99241" lon="-0.06358">
        <ele>524</ele>
        <time>2019-06-14T20:46:27Z</time>
      </trkpt>
      <trkpt lat="42.9924" lon="-0.06395">
        <ele>518</ele>
        <time>2019-06-14T20:46:28Z</time>
      </trkpt>
      <trkpt lat="42.99238" lon="-0.0642">
        <ele>513</ele>
        <time>2019-06-14T20:46:29Z</time>
      </trkpt>
      <trkpt lat="42.99235" lon="-0.06448">
        <ele>510</ele>
        <time>2019-06-14T20:46:30Z</time>
      </trkpt>
      <trkpt lat="42.99234" lon="-0.06477">
        <ele>507</ele>
        <time>2019-06-14T20:46:31Z</time>
      </trkpt>
      <trkpt lat="42.9923" lon="-0.06509">
        <ele>503</ele>
        <time>2019-06-14T20:46:32Z</time>
      </trkpt>
      <trkpt lat="42.99229" lon="-0.06543">
        <ele>500</ele>
        <time>2019-06-14T20:46:33Z</time>
      </trkpt>
      <trkpt lat="42.9923" lon="-0.06571">
        <ele>497</ele>
        <time>2019-06-14T20:46:34Z</time>
      </trkpt>
      <trkpt lat="42.99228" lon="-0.06597">
        <ele>495</ele>
        <time>2019-06-14T20:46:35Z</time>
      </trkpt>
      <trkpt lat="42.99226" lon="-0.06622">
        <ele>493</ele>
        <time>2019-06-14T20:46:36Z</time>
      </trkpt>
      <trkpt lat="42.99237" lon="-0.06645">
        <ele>491</ele>
        <time>2019-06-14T20:46:37Z</time>
      </trkpt>
      <trkpt lat="42.99255" lon="-0.06658">
        <ele>490</ele>
        <time>2019-06-14T20:46:38Z</time>
      </trkpt>
      <trkpt lat="42.99274" lon="-0.06666">
        <ele>489</ele>
        <time>2019-06-14T20:46:39Z</time>
      </trkpt>
      <trkpt lat="42.99298" lon="-0.06674">
        <ele>488</ele>
        <time>2019-06-14T20:46:40Z</time>
      </trkpt>
      <trkpt lat="42.9931" lon="-0.06699">
        <ele>486</ele>
        <time>2019-06-14T20:46:41Z</time>
      </trkpt>
      <trkpt lat="42.99312" lon="-0.06724">
        <ele>484</ele>
        <time>2019-06-14T20:46:42Z</time>
      </trkpt>
      <trkpt lat="42.99322" lon="-0.06746">
        <ele>481</ele>
        <time>2019-06-14T20:46:43Z</time>
      </trkpt>
      <trkpt lat="42.9934" lon="-0.06758">
        <ele>481</ele>
        <time>2019-06-14T20:46:44Z</time>
      </trkpt>
      <trkpt lat="42.99356" lon="-0.06768">
        <ele>481</ele>
        <time>2019-06-14T20:46:45Z</time>
      </trkpt>
      <trkpt lat="42.99372" lon="-0.06783">
        <ele>480</ele>
        <time>2019-06-14T20:46:46Z</time>
      </trkpt>
      <trkpt lat="42.99386" lon="-0.068">
        <ele>480</ele>
        <time>2019-06-14T20:46:47Z</time>
      </trkpt>
      <trkpt lat="42.994" lon="-0.06819">
        <ele>479</ele>
        <time>2019-06-14T20:46:48Z</time>
      </trkpt>
      <trkpt lat="42.99415" lon="-0.06842">
        <ele>479</ele>
        <time>2019-06-14T20:46:49Z</time>
      </trkpt>
      <trkpt lat="42.99428" lon="-0.06864">
        <ele>479</ele>
        <time>2019-06-14T20:46:50Z</time>
      </trkpt>
      <trkpt lat="42.99433" lon="-0.0689">
        <ele>478</ele>
        <time>2019-06-14T20:46:51Z</time>
      </trkpt>
      <trkpt lat="42.99437" lon="-0.06917">
        <ele>478</ele>
        <time>2019-06-14T20:46:52Z</time>
      </trkpt>
      <trkpt lat="42.99423" lon="-0.06936">
        <ele>478</ele>
        <time>2019-06-14T20:46:53Z</time>
      </trkpt>
      <trkpt lat="42.99403" lon="-0.0694">
        <ele>477</ele>
        <time>2019-06-14T20:46:54Z</time>
      </trkpt>
      <trkpt lat="42.99385" lon="-0.06949">
        <ele>475</ele>
        <time>2019-06-14T20:46:55Z</time>
      </trkpt>
      <trkpt lat="42.99364" lon="-0.06965">
        <ele>472</ele>
        <time>2019-06-14T20:46:56Z</time>
      </trkpt>
      <trkpt lat="42.99346" lon="-0.06985">
        <ele>469</ele>
        <time>2019-06-14T20:46:57Z</time>
      </trkpt>
      <trkpt lat="42.99339" lon="-0.07018">
        <ele>467</ele>
        <time>2019-06-14T20:46:58Z</time>
      </trkpt>
      <trkpt lat="42.99335" lon="-0.07043">
        <ele>465</ele>
        <time>2019-06-14T20:46:59Z</time>
      </trkpt>
      <trkpt lat="42.99331" lon="-0.07068">
        <ele>464</ele>
        <time>2019-06-14T20:47:00Z</time>
      </trkpt>
      <trkpt lat="42.99323" lon="-0.07091">
        <ele>461</ele>
        <time>2019-06-14T20:47:01Z</time>
      </trkpt>
      <trkpt lat="42.99309" lon="-0.07114">
        <ele>457</ele>
        <time>2019-06-14T20:47:02Z</time>
      </trkpt>
      <trkpt lat="42.99296" lon="-0.07137">
        <ele>453</ele>
        <time>2019-06-14T20:47:03Z</time>
      </trkpt>
      <trkpt lat="42.99283" lon="-0.07155">
        <ele>449</ele>
        <time>2019-06-14T20:47:04Z</time>
      </trkpt>
      <trkpt lat="42.99263" lon="-0.07163">
        <ele>445</ele>
        <time>2019-06-14T20:47:05Z</time>
      </trkpt>
      <trkpt lat="42.99243" lon="-0.07164">
        <ele>442</ele>
        <time>2019-06-14T20:47:06Z</time>
      </trkpt>
      <trkpt lat="42.99222" lon="-0.07166">
        <ele>441</ele>
        <time>2019-06-14T20:47:07Z</time>
      </trkpt>
      <trkpt lat="42.99244" lon="-0.07163">
        <ele>442</ele>
        <time>2019-06-14T20:47:08Z</time>
      </trkpt>
      <trkpt lat="42.99265" lon="-0.07162">
        <ele>445</ele>
        <time>2019-06-14T20:47:09Z</time>
      </trkpt>
      <trkpt lat="42.99282" lon="-0.07156">
        <ele>449</ele>
        <time>2019-06-14T20:47:10Z</time>
      </trkpt>
      <trkpt lat="42.99294" lon="-0.07176">
        <ele>449</ele>
        <time>2019-06-14T20:47:11Z</time>
      </trkpt>
      <trkpt lat="42.99294" lon="-0.07201">
        <ele>449</ele>
        <time>2019-06-14T20:47:12Z</time>
      </trkpt>
      <trkpt lat="42.99292" lon="-0.07233">
        <ele>447</ele>
        <time>2019-06-14T20:47:13Z</time>
      </trkpt>
      <trkpt lat="42.99288" lon="-0.07257">
        <ele>446</ele>
        <time>2019-06-14T20:47:14Z</time>
      </trkpt>
      <trkpt lat="42.99279" lon="-0.07281">
        <ele>445</ele>
        <time>2019-06-14T20:47:15Z</time>
      </trkpt>
      <trkpt lat="42.99266" lon="-0.07301">
        <ele>443</ele>
        <time>2019-06-14T20:47:16Z</time>
      </trkpt>
      <trkpt lat="42.99257" lon="-0.07329">
        <ele>442</ele>
        <time>2019-06-14T20:47:17Z</time>
      </trkpt>
      <trkpt lat="42.99252" lon="-0.07358">
        <ele>440</ele>
        <time>2019-06-14T20:47:18Z</time>
      </trkpt>
      <trkpt lat="42.99259" lon="-0.07382">
        <ele>439</ele>
        <time>2019-06-14T20:47:19Z</time>
      </trkpt>
      <trkpt lat="42.99276" lon="-0.07397">
        <ele>439</ele>
        <time>2019-06-14T20:47:20Z</time>
      </trkpt>
      <trkpt lat="42.99289" lon="-0.0742">
        <ele>438</ele>
        <time>2019-06-14T20:47:21Z</time>
      </trkpt>
      <trkpt lat="42.99295" lon="-0.07444">
        <ele>437</ele>
        <time>2019-06-14T20:47:22Z</time>
      </trkpt>
      <trkpt lat="42.99301" lon="-0.07473">
        <ele>436</ele>
        <time>2019-06-14T20:47:23Z</time>
      </trkpt>
      <trkpt lat="42.99307" lon="-0.07502">
        <ele>435</ele>
        <time>2019-06-14T20:47:24Z</time>
      </trkpt>
      <trkpt lat="42.99317" lon="-0.07525">
        <ele>435</ele>
        <time>2019-06-14T20:47:25Z</time>
      </trkpt>
      <trkpt lat="42.99329" lon="-0.07546">
        <ele>434</ele>
        <time>2019-06-14T20:47:26Z</time>
      </trkpt>
      <trkpt lat="42.99344" lon="-0.07566">
        <ele>434</ele>
        <time>2019-06-14T20:47:27Z</time>
      </trkpt>
      <trkpt lat="42.99362" lon="-0.07584">
        <ele>434</ele>
        <time>2019-06-14T20:47:28Z</time>
      </trkpt>
      <trkpt lat="42.99375" lon="-0.07603">
        <ele>434</ele>
        <time>2019-06-14T20:47:29Z</time>
      </trkpt>
      <trkpt lat="42.99393" lon="-0.07614">
        <ele>434</ele>
        <time>2019-06-14T20:47:30Z</time>
      </trkpt>
      <trkpt lat="42.99411" lon="-0.07624">
        <ele>434</ele>
        <time>2019-06-14T20:47:31Z</time>
      </trkpt>
      <trkpt lat="42.99432" lon="-0.07636">
        <ele>435</ele>
        <time>2019-06-14T20:47:32Z</time>
      </trkpt>
      <trkpt lat="42.99454" lon="-0.07647">
        <ele>435</ele>
        <time>2019-06-14T20:47:33Z</time>
      </trkpt>
      <trkpt lat="42.99476" lon="-0.07657">
        <ele>436</ele>
        <time>2019-06-14T20:47:34Z</time>
      </trkpt>
      <trkpt lat="42.99493" lon="-0.07666">
        <ele>436</ele>
        <time>2019-06-14T20:47:35Z</time>
      </trkpt>
      <trkpt lat="42.99514" lon="-0.07673">
        <ele>436</ele>
        <time>2019-06-14T20:47:36Z</time>
      </trkpt>
      <trkpt lat="42.99536" lon="-0.07682">
        <ele>436</ele>
        <time>2019-06-14T20:47:37Z</time>
      </trkpt>
      <trkpt lat="42.99556" lon="-0.07695">
        <ele>436</ele>
        <time>2019-06-14T20:47:38Z</time>
      </trkpt>
      <trkpt lat="42.99577" lon="-0.07706">
        <ele>436</ele>
        <time>2019-06-14T20:47:39Z</time>
      </trkpt>
      <trkpt lat="42.99597" lon="-0.07717">
        <ele>435</ele>
        <time>2019-06-14T20:47:40Z</time>
      </trkpt>
      <trkpt lat="42.99617" lon="-0.0773">
        <ele>434</ele>
        <time>2019-06-14T20:47:41Z</time>
      </trkpt>
      <trkpt lat="42.99638" lon="-0.07743">
        <ele>433</ele>
        <time>2019-06-14T20:47:42Z</time>
      </trkpt>
      <trkpt lat="42.99662" lon="-0.07743">
        <ele>433</ele>
        <time>2019-06-14T20:47:43Z</time>
      </trkpt>
      <trkpt lat="42.99686" lon="-0.07741">
        <ele>433</ele>
        <time>2019-06-14T20:47:44Z</time>
      </trkpt>
      <trkpt lat="42.99706" lon="-0.07727">
        <ele>434</ele>
        <time>2019-06-14T20:47:45Z</time>
      </trkpt>
      <trkpt lat="42.99717" lon="-0.077">
        <ele>434</ele>
        <time>2019-06-14T20:47:46Z</time>
      </trkpt>
      <trkpt lat="42.99725" lon="-0.07677">
        <ele>435</ele>
        <time>2019-06-14T20:47:47Z</time>
      </trkpt>
      <trkpt lat="42.99745" lon="-0.0766">
        <ele>435</ele>
        <time>2019-06-14T20:47:48Z</time>
      </trkpt>
      <trkpt lat="42.9976" lon="-0.07642">
        <ele>435</ele>
        <time>2019-06-14T20:47:49Z</time>
      </trkpt>
      <trkpt lat="42.99774" lon="-0.0762">
        <ele>435</ele>
        <time>2019-06-14T20:47:50Z</time>
      </trkpt>
      <trkpt lat="42.99788" lon="-0.07599">
        <ele>435</ele>
        <time>2019-06-14T20:47:51Z</time>
      </trkpt>
      <trkpt lat="42.99804" lon="-0.07579">
        <ele>435</ele>
        <time>2019-06-14T20:47:52Z</time>
      </trkpt>
      <trkpt lat="42.99819" lon="-0.07559">
        <ele>434</ele>
        <time>2019-06-14T20:47:53Z</time>
      </trkpt>
      <trkpt lat="42.99834" lon="-0.07539">
        <ele>434</ele>
        <time>2019-06-14T20:47:54Z</time>
      </trkpt>
      <trkpt lat="42.99849" lon="-0.07518">
        <ele>435</ele>
        <time>2019-06-14T20:47:55Z</time>
      </trkpt>
      <trkpt lat="42.99862" lon="-0.07499">
        <ele>435</ele>
        <time>2019-06-14T20:47:56Z</time>
      </trkpt>
      <trkpt lat="42.99876" lon="-0.07479">
        <ele>435</ele>
        <time>2019-06-14T20:47:57Z</time>
      </trkpt>
      <trkpt lat="42.99893" lon="-0.07458">
        <ele>436</ele>
        <time>2019-06-14T20:47:58Z</time>
      </trkpt>
      <trkpt lat="42.99911" lon="-0.07438">
        <ele>438</ele>
        <time>2019-06-14T20:47:59Z</time>
      </trkpt>
      <trkpt lat="42.99926" lon="-0.07415">
        <ele>439</ele>
        <time>2019-06-14T20:48:00Z</time>
      </trkpt>
      <trkpt lat="42.99942" lon="-0.07393">
        <ele>441</ele>
        <time>2019-06-14T20:48:01Z</time>
      </trkpt>
      <trkpt lat="42.99958" lon="-0.07371">
        <ele>443</ele>
        <time>2019-06-14T20:48:02Z</time>
      </trkpt>
      <trkpt lat="42.99973" lon="-0.07348">
        <ele>444</ele>
        <time>2019-06-14T20:48:03Z</time>
      </trkpt>
      <trkpt lat="42.99987" lon="-0.07323">
        <ele>446</ele>
        <time>2019-06-14T20:48:04Z</time>
      </trkpt>
      <trkpt lat="42.99999" lon="-0.07299">
        <ele>449</ele>
        <time>2019-06-14T20:48:05Z</time>
      </trkpt>
      <trkpt lat="43.00012" lon="-0.07275">
        <ele>438</ele>
        <time>2019-06-14T20:48:06Z</time>
      </trkpt>
      <trkpt lat="43.00025" lon="-0.07251">
        <ele>440</ele>
        <time>2019-06-14T20:48:07Z</time>
      </trkpt>
      <trkpt lat="43.00037" lon="-0.07225">
        <ele>441</ele>
        <time>2019-06-14T20:48:08Z</time>
      </trkpt>
      <trkpt lat="43.00048" lon="-0.07199">
        <ele>443</ele>
        <time>2019-06-14T20:48:09Z</time>
      </trkpt>
      <trkpt lat="43.00058" lon="-0.07171">
        <ele>445</ele>
        <time>2019-06-14T20:48:10Z</time>
      </trkpt>
      <trkpt lat="43.00071" lon="-0.07148">
        <ele>447</ele>
        <time>2019-06-14T20:48:11Z</time>
      </trkpt>
      <trkpt lat="43.00084" lon="-0.07129">
        <ele>448</ele>
        <time>2019-06-14T20:48:12Z</time>
      </trkpt>
      <trkpt lat="43.00096" lon="-0.07107">
        <ele>449</ele>
        <time>2019-06-14T20:48:13Z</time>
      </trkpt>
      <trkpt lat="43.00103" lon="-0.07083">
        <ele>451</ele>
        <time>2019-06-14T20:48:14Z</time>
      </trkpt>
      <trkpt lat="43.00112" lon="-0.07055">
        <ele>452</ele>
        <time>2019-06-14T20:48:15Z</time>
      </trkpt>
      <trkpt lat="43.00124" lon="-0.07033">
        <ele>453</ele>
        <time>2019-06-14T20:48:16Z</time>
      </trkpt>
      <trkpt lat="43.00128" lon="-0.07006">
        <ele>454</ele>
        <time>2019-06-14T20:48:17Z</time>
      </trkpt>
      <trkpt lat="43.0012" lon="-0.06979">
        <ele>456</ele>
        <time>2019-06-14T20:48:18Z</time>
      </trkpt>
      <trkpt lat="43.00126" lon="-0.0695">
        <ele>457</ele>
        <time>2019-06-14T20:48:19Z</time>
      </trkpt>
      <trkpt lat="43.00143" lon="-0.0694">
        <ele>456</ele>
        <time>2019-06-14T20:48:20Z</time>
      </trkpt>
      <trkpt lat="43.00161" lon="-0.06933">
        <ele>456</ele>
        <time>2019-06-14T20:48:21Z</time>
      </trkpt>
      <trkpt lat="43.0018" lon="-0.06927">
        <ele>457</ele>
        <time>2019-06-14T20:48:22Z</time>
      </trkpt>
      <trkpt lat="43.00199" lon="-0.06921">
        <ele>458</ele>
        <time>2019-06-14T20:48:23Z</time>
      </trkpt>
      <trkpt lat="43.00218" lon="-0.06915">
        <ele>460</ele>
        <time>2019-06-14T20:48:24Z</time>
      </trkpt>
      <trkpt lat="43.00237" lon="-0.06908">
        <ele>461</ele>
        <time>2019-06-14T20:48:25Z</time>
      </trkpt>
      <trkpt lat="43.00255" lon="-0.06902">
        <ele>461</ele>
        <time>2019-06-14T20:48:26Z</time>
      </trkpt>
      <trkpt lat="43.00276" lon="-0.06897">
        <ele>462</ele>
        <time>2019-06-14T20:48:27Z</time>
      </trkpt>
      <trkpt lat="43.00298" lon="-0.06893">
        <ele>463</ele>
        <time>2019-06-14T20:48:28Z</time>
      </trkpt>
      <trkpt lat="43.00318" lon="-0.06906">
        <ele>464</ele>
        <time>2019-06-14T20:48:29Z</time>
      </trkpt>
      <trkpt lat="43.00333" lon="-0.06928">
        <ele>464</ele>
        <time>2019-06-14T20:48:30Z</time>
      </trkpt>
      <trkpt lat="43.00341" lon="-0.06951">
        <ele>464</ele>
        <time>2019-06-14T20:48:31Z</time>
      </trkpt>
      <trkpt lat="43.00348" lon="-0.06976">
        <ele>465</ele>
        <time>2019-06-14T20:48:32Z</time>
      </trkpt>
      <trkpt lat="43.00355" lon="-0.07001">
        <ele>465</ele>
        <time>2019-06-14T20:48:33Z</time>
      </trkpt>
      <trkpt lat="43.00361" lon="-0.07026">
        <ele>465</ele>
        <time>2019-06-14T20:48:34Z</time>
      </trkpt>
      <trkpt lat="43.00366" lon="-0.07052">
        <ele>464</ele>
        <time>2019-06-14T20:48:35Z</time>
      </trkpt>
      <trkpt lat="43.00375" lon="-0.07078">
        <ele>464</ele>
        <time>2019-06-14T20:48:36Z</time>
      </trkpt>
      <trkpt lat="43.00389" lon="-0.07095">
        <ele>463</ele>
        <time>2019-06-14T20:48:37Z</time>
      </trkpt>
      <trkpt lat="43.00401" lon="-0.07114">
        <ele>462</ele>
        <time>2019-06-14T20:48:38Z</time>
      </trkpt>
      <trkpt lat="43.00418" lon="-0.07139">
        <ele>461</ele>
        <time>2019-06-14T20:48:39Z</time>
      </trkpt>
      <trkpt lat="43.00431" lon="-0.07157">
        <ele>460</ele>
        <time>2019-06-14T20:48:40Z</time>
      </trkpt>
      <trkpt lat="43.00444" lon="-0.07177">
        <ele>459</ele>
        <time>2019-06-14T20:48:41Z</time>
      </trkpt>
      <trkpt lat="43.00456" lon="-0.07198">
        <ele>459</ele>
        <time>2019-06-14T20:48:42Z</time>
      </trkpt>
      <trkpt lat="43.00466" lon="-0.0722">
        <ele>458</ele>
        <time>2019-06-14T20:48:43Z</time>
      </trkpt>
      <trkpt lat="43.00477" lon="-0.07242">
        <ele>457</ele>
        <time>2019-06-14T20:48:44Z</time>
      </trkpt>
      <trkpt lat="43.00469" lon="-0.07266">
        <ele>456</ele>
        <time>2019-06-14T20:48:45Z</time>
      </trkpt>
      <trkpt lat="43.00447" lon="-0.07281">
        <ele>457</ele>
        <time>2019-06-14T20:48:46Z</time>
      </trkpt>
      <trkpt lat="43.00428" lon="-0.07289">
        <ele>457</ele>
        <time>2019-06-14T20:48:47Z</time>
      </trkpt>
      <trkpt lat="43.0041" lon="-0.07297">
        <ele>457</ele>
        <time>2019-06-14T20:48:48Z</time>
      </trkpt>
      <trkpt lat="43.00393" lon="-0.07309">
        <ele>455</ele>
        <time>2019-06-14T20:48:49Z</time>
      </trkpt>
      <trkpt lat="43.00373" lon="-0.07327">
        <ele>454</ele>
        <time>2019-06-14T20:48:50Z</time>
      </trkpt>
      <trkpt lat="43.00355" lon="-0.07343">
        <ele>453</ele>
        <time>2019-06-14T20:48:51Z</time>
      </trkpt>
      <trkpt lat="43.00341" lon="-0.07364">
        <ele>451</ele>
        <time>2019-06-14T20:48:52Z</time>
      </trkpt>
      <trkpt lat="43.00333" lon="-0.07391">
        <ele>451</ele>
        <time>2019-06-14T20:48:53Z</time>
      </trkpt>
      <trkpt lat="43.00341" lon="-0.07417">
        <ele>454</ele>
        <time>2019-06-14T20:48:54Z</time>
      </trkpt>
      <trkpt lat="43.00337" lon="-0.07442">
        <ele>453</ele>
        <time>2019-06-14T20:48:55Z</time>
      </trkpt>
      <trkpt lat="43.00327" lon="-0.07462">
        <ele>451</ele>
        <time>2019-06-14T20:48:56Z</time>
      </trkpt>
      <trkpt lat="43.00328" lon="-0.07489">
        <ele>452</ele>
        <time>2019-06-14T20:48:57Z</time>
      </trkpt>
      <trkpt lat="43.00326" lon="-0.07519">
        <ele>452</ele>
        <time>2019-06-14T20:48:58Z</time>
      </trkpt>
      <trkpt lat="43.00325" lon="-0.07544">
        <ele>453</ele>
        <time>2019-06-14T20:48:59Z</time>
      </trkpt>
      <trkpt lat="43.0033" lon="-0.07574">
        <ele>454</ele>
        <time>2019-06-14T20:49:00Z</time>
      </trkpt>
      <trkpt lat="43.0034" lon="-0.07597">
        <ele>456</ele>
        <time>2019-06-14T20:49:01Z</time>
      </trkpt>
      <trkpt lat="43.00348" lon="-0.0762">
        <ele>457</ele>
        <time>2019-06-14T20:49:02Z</time>
      </trkpt>
      <trkpt lat="43.00354" lon="-0.07644">
        <ele>459</ele>
        <time>2019-06-14T20:49:03Z</time>
      </trkpt>
      <trkpt lat="43.0036" lon="-0.07669">
        <ele>461</ele>
        <time>2019-06-14T20:49:04Z</time>
      </trkpt>
      <trkpt lat="43.00365" lon="-0.07702">
        <ele>459</ele>
        <time>2019-06-14T20:49:05Z</time>
      </trkpt>
      <trkpt lat="43.00369" lon="-0.07733">
        <ele>458</ele>
        <time>2019-06-14T20:49:06Z</time>
      </trkpt>
      <trkpt lat="43.00371" lon="-0.07766">
        <ele>454</ele>
        <time>2019-06-14T20:49:07Z</time>
      </trkpt>
      <trkpt lat="43.00384" lon="-0.07792">
        <ele>455</ele>
        <time>2019-06-14T20:49:08Z</time>
      </trkpt>
      <trkpt lat="43.0039" lon="-0.07819">
        <ele>452</ele>
        <time>2019-06-14T20:49:09Z</time>
      </trkpt>
      <trkpt lat="43.00398" lon="-0.07844">
        <ele>450</ele>
        <time>2019-06-14T20:49:10Z</time>
      </trkpt>
      <trkpt lat="43.00411" lon="-0.07869">
        <ele>448</ele>
        <time>2019-06-14T20:49:11Z</time>
      </trkpt>
      <trkpt lat="43.00426" lon="-0.0789">
        <ele>447</ele>
        <time>2019-06-14T20:49:12Z</time>
      </trkpt>
      <trkpt lat="43.00442" lon="-0.07905">
        <ele>447</ele>
        <time>2019-06-14T20:49:13Z</time>
      </trkpt>
      <trkpt lat="43.00454" lon="-0.07928">
        <ele>446</ele>
        <time>2019-06-14T20:49:14Z</time>
      </trkpt>
      <trkpt lat="43.00468" lon="-0.07953">
        <ele>445</ele>
        <time>2019-06-14T20:49:15Z</time>
      </trkpt>
      <trkpt lat="43.00481" lon="-0.07977">
        <ele>444</ele>
        <time>2019-06-14T20:49:16Z</time>
      </trkpt>
      <trkpt lat="43.00492" lon="-0.07996">
        <ele>442</ele>
        <time>2019-06-14T20:49:17Z</time>
      </trkpt>
      <trkpt lat="43.00503" lon="-0.08018">
        <ele>440</ele>
        <time>2019-06-14T20:49:18Z</time>
      </trkpt>
      <trkpt lat="43.00516" lon="-0.08042">
        <ele>437</ele>
        <time>2019-06-14T20:49:19Z</time>
      </trkpt>
      <trkpt lat="43.0053" lon="-0.08067">
        <ele>434</ele>
        <time>2019-06-14T20:49:20Z</time>
      </trkpt>
      <trkpt lat="43.00542" lon="-0.08095">
        <ele>431</ele>
        <time>2019-06-14T20:49:21Z</time>
      </trkpt>
      <trkpt lat="43.00545" lon="-0.08126">
        <ele>428</ele>
        <time>2019-06-14T20:49:22Z</time>
      </trkpt>
      <trkpt lat="43.00547" lon="-0.08158">
        <ele>425</ele>
        <time>2019-06-14T20:49:23Z</time>
      </trkpt>
      <trkpt lat="43.00549" lon="-0.08191">
        <ele>424</ele>
        <time>2019-06-14T20:49:24Z</time>
      </trkpt>
      <trkpt lat="43.00548" lon="-0.08222">
        <ele>423</ele>
        <time>2019-06-14T20:49:25Z</time>
      </trkpt>
      <trkpt lat="43.00548" lon="-0.08254">
        <ele>423</ele>
        <time>2019-06-14T20:49:26Z</time>
      </trkpt>
      <trkpt lat="43.00544" lon="-0.08287">
        <ele>423</ele>
        <time>2019-06-14T20:49:27Z</time>
      </trkpt>
      <trkpt lat="43.00521" lon="-0.08292">
        <ele>423</ele>
        <time>2019-06-14T20:49:28Z</time>
      </trkpt>
      <trkpt lat="43.00508" lon="-0.08269">
        <ele>422</ele>
        <time>2019-06-14T20:49:29Z</time>
      </trkpt>
      <trkpt lat="43.00516" lon="-0.0824">
        <ele>422</ele>
        <time>2019-06-14T20:49:30Z</time>
      </trkpt>
      <trkpt lat="43.00513" lon="-0.08215">
        <ele>422</ele>
        <time>2019-06-14T20:49:31Z</time>
      </trkpt>
      <trkpt lat="43.00505" lon="-0.08238">
        <ele>422</ele>
        <time>2019-06-14T20:49:32Z</time>
      </trkpt>
    </trkseg>
  </trk>
  <trk>
    <name><![CDATA[Tracé 002]]></name>
    <trkseg>
      <trkpt lat="43.02573" lon="-0.07511">
        <ele>406</ele>
      </trkpt>
      <trkpt lat="43.02563" lon="-0.07615">
        <ele>406.8</ele>
      </trkpt>
      <trkpt lat="43.02587" lon="-0.07757">
        <ele>407.1</ele>
      </trkpt>
      <trkpt lat="43.02592" lon="-0.07837">
        <ele>407.3</ele>
      </trkpt>
      <trkpt lat="43.026" lon="-0.07936">
        <ele>407.6</ele>
      </trkpt>
      <trkpt lat="43.02464" lon="-0.08115">
        <ele>408.5</ele>
      </trkpt>
      <trkpt lat="43.02278" lon="-0.08232">
        <ele>409.6</ele>
      </trkpt>
      <trkpt lat="43.02121" lon="-0.08256">
        <ele>411</ele>
      </trkpt>
      <trkpt lat="43.02075" lon="-0.08301">
        <ele>410.3</ele>
      </trkpt>
      <trkpt lat="43.02047" lon="-0.0827">
        <ele>416.2</ele>
      </trkpt>
      <trkpt lat="43.01936" lon="-0.08353">
        <ele>414.4</ele>
      </trkpt>
      <trkpt lat="43.01758" lon="-0.08433">
        <ele>425.4</ele>
      </trkpt>
      <trkpt lat="43.01678" lon="-0.08467">
        <ele>416.3</ele>
      </trkpt>
      <trkpt lat="43.01625" lon="-0.08519">
        <ele>414.9</ele>
      </trkpt>
      <trkpt lat="43.01463" lon="-0.08491">
        <ele>414.3</ele>
      </trkpt>
      <trkpt lat="43.01323" lon="-0.08457">
        <ele>414.6</ele>
      </trkpt>
      <trkpt lat="43.01183" lon="-0.08343">
        <ele>416.4</ele>
      </trkpt>
      <trkpt lat="43.01053" lon="-0.08294">
        <ele>417.6</ele>
      </trkpt>
      <trkpt lat="43.00974" lon="-0.08253">
        <ele>420.9</ele>
      </trkpt>
      <trkpt lat="43.0081" lon="-0.08226">
        <ele>421</ele>
      </trkpt>
      <trkpt lat="43.00688" lon="-0.08182">
        <ele>420</ele>
      </trkpt>
      <trkpt lat="43.00566" lon="-0.08118">
        <ele>423.3</ele>
      </trkpt>
      <trkpt lat="43.00544" lon="-0.08158">
        <ele>416.8</ele>
      </trkpt>
      <trkpt lat="43.00546" lon="-0.08269">
        <ele>422.4</ele>
      </trkpt>
      <trkpt lat="43.00517" lon="-0.0828">
        <ele>422.1</ele>
      </trkpt>
      <trkpt lat="43.00513" lon="-0.08216">
        <ele>422.1</ele>
      </trkpt>
    </trkseg>
  </trk>
</gpx>